﻿<?xml version="1.0" encoding="utf-8"?><gpx version="1.1" creator="izvne.com" xmlns="http://www.topografix.com/GPX/1/1"><trk><name>israel-overview</name><trkseg><trkpt lat="31.25714111" lon="34.79820633"><ele>284.9</ele><time>2013-11-19T07:34:04.0000000+00:00</time></trkpt><trkpt lat="31.25726128" lon="34.798069"><ele>284.9</ele><time>2013-11-19T07:35:44.0000000+00:00</time></trkpt><trkpt lat="31.25359345" lon="34.79866791"><ele>280.2</ele><time>2013-11-19T07:37:04.0000000+00:00</time></trkpt><trkpt lat="31.25277901" lon="34.79854965"><ele>280.2</ele><time>2013-11-19T07:37:19.0000000+00:00</time></trkpt><trkpt lat="31.25184822" lon="34.79803467"><ele>278.9</ele><time>2013-11-19T07:37:39.0000000+00:00</time></trkpt><trkpt lat="31.25113678" lon="34.79788971"><ele>279.1</ele><time>2013-11-19T07:37:54.0000000+00:00</time></trkpt><trkpt lat="31.25073052" lon="34.79977036"><ele>277.1</ele><time>2013-11-19T07:39:34.0000000+00:00</time></trkpt><trkpt lat="31.25037575" lon="34.80065155"><ele>277.1</ele><time>2013-11-19T07:40:04.0000000+00:00</time></trkpt><trkpt lat="31.24879456" lon="34.80185318"><ele>278.7</ele><time>2013-11-19T07:41:14.0000000+00:00</time></trkpt><trkpt lat="31.24763107" lon="34.80329514"><ele>277.7</ele><time>2013-11-19T07:42:09.0000000+00:00</time></trkpt><trkpt lat="31.2451191" lon="34.80458832"><ele>274.0</ele><time>2013-11-19T07:43:29.0000000+00:00</time></trkpt><trkpt lat="31.24522209" lon="34.80492783"><ele>274.0</ele><time>2013-11-19T07:44:19.0000000+00:00</time></trkpt><trkpt lat="31.24477768" lon="34.8054657"><ele>275.1</ele><time>2013-11-19T07:45:04.0000000+00:00</time></trkpt><trkpt lat="31.24458504" lon="34.80605316"><ele>276.0</ele><time>2013-11-19T07:45:19.0000000+00:00</time></trkpt><trkpt lat="31.24451447" lon="34.80862427"><ele>280.4</ele><time>2013-11-19T07:46:49.0000000+00:00</time></trkpt><trkpt lat="31.24435997" lon="34.80873871"><ele>279.8</ele><time>2013-11-19T07:47:09.0000000+00:00</time></trkpt><trkpt lat="31.24436188" lon="34.8094902"><ele>281.2</ele><time>2013-11-19T07:47:39.0000000+00:00</time></trkpt><trkpt lat="31.24446869" lon="34.81006622"><ele>282.4</ele><time>2013-11-19T07:47:54.0000000+00:00</time></trkpt><trkpt lat="31.24533081" lon="34.81120682"><ele>283.7</ele><time>2013-11-19T07:48:49.0000000+00:00</time></trkpt><trkpt lat="31.24532318" lon="34.8117218"><ele>284.3</ele><time>2013-11-19T07:49:49.0000000+00:00</time></trkpt><trkpt lat="31.24514008" lon="34.81148529"><ele>283.6</ele><time>2013-11-19T07:50:24.0000000+00:00</time></trkpt><trkpt lat="31.24501228" lon="34.81155396"><ele>283.8</ele><time>2013-11-19T07:50:29.0000000+00:00</time></trkpt><trkpt lat="31.24487114" lon="34.81167984"><ele>284.2</ele><time>2013-11-19T07:50:34.0000000+00:00</time></trkpt><trkpt lat="31.2449398" lon="34.81199265"><ele>285.5</ele><time>2013-11-19T07:50:49.0000000+00:00</time></trkpt><trkpt lat="31.24453354" lon="34.81207657"><ele>286.4</ele><time>2013-11-19T07:51:04.0000000+00:00</time></trkpt><trkpt lat="31.2441864" lon="34.81254959"><ele>284.9</ele><time>2013-11-19T07:51:24.0000000+00:00</time></trkpt><trkpt lat="31.24383164" lon="34.81241989"><ele>285.6</ele><time>2013-11-19T07:51:34.0000000+00:00</time></trkpt><trkpt lat="31.24380112" lon="34.81210327"><ele>284.0</ele><time>2013-11-19T07:51:44.0000000+00:00</time></trkpt><trkpt lat="31.24365807" lon="34.81200028"><ele>284.3</ele><time>2013-11-19T07:51:49.0000000+00:00</time></trkpt><trkpt lat="31.2434063" lon="34.81232452"><ele>286.5</ele><time>2013-11-19T07:54:24.0000000+00:00</time></trkpt><trkpt lat="31.24358177" lon="34.81234741"><ele>286.8</ele><time>2013-11-19T07:55:04.0000000+00:00</time></trkpt><trkpt lat="31.2433815" lon="34.81204224"><ele>285.5</ele><time>2013-11-19T08:04:09.0000000+00:00</time></trkpt><trkpt lat="31.2449379" lon="34.81176758"><ele>284.3</ele><time>2013-11-19T08:05:19.0000000+00:00</time></trkpt><trkpt lat="31.24433136" lon="34.81036377"><ele>282.8</ele><time>2013-11-19T08:06:34.0000000+00:00</time></trkpt><trkpt lat="31.24423027" lon="34.80950928"><ele>281.2</ele><time>2013-11-19T08:06:59.0000000+00:00</time></trkpt><trkpt lat="31.24426079" lon="34.80908203"><ele>280.3</ele><time>2013-11-19T08:07:19.0000000+00:00</time></trkpt><trkpt lat="31.24438858" lon="34.809021"><ele>280.2</ele><time>2013-11-19T08:07:24.0000000+00:00</time></trkpt><trkpt lat="31.24419212" lon="34.80889893"><ele>280.4</ele><time>2013-11-19T08:07:29.0000000+00:00</time></trkpt><trkpt lat="31.2443428" lon="34.80889511"><ele>280.0</ele><time>2013-11-19T08:07:54.0000000+00:00</time></trkpt><trkpt lat="31.24460793" lon="34.80719376"><ele>277.4</ele><time>2013-11-19T08:08:39.0000000+00:00</time></trkpt><trkpt lat="31.24457169" lon="34.80647278"><ele>276.6</ele><time>2013-11-19T08:08:49.0000000+00:00</time></trkpt><trkpt lat="31.24484444" lon="34.8053894"><ele>274.6</ele><time>2013-11-19T08:09:04.0000000+00:00</time></trkpt><trkpt lat="31.2453537" lon="34.80485535"><ele>274.0</ele><time>2013-11-19T08:09:24.0000000+00:00</time></trkpt><trkpt lat="31.24752426" lon="34.8035202"><ele>276.7</ele><time>2013-11-19T08:10:19.0000000+00:00</time></trkpt><trkpt lat="31.24777985" lon="34.80306625"><ele>277.5</ele><time>2013-11-19T08:13:09.0000000+00:00</time></trkpt><trkpt lat="31.24775314" lon="34.80346298"><ele>277.8</ele><time>2013-11-19T08:13:24.0000000+00:00</time></trkpt><trkpt lat="31.24684715" lon="34.80393982"><ele>280.4</ele><time>2013-11-19T08:14:14.0000000+00:00</time></trkpt><trkpt lat="31.24513245" lon="34.80437851"><ele>273.2</ele><time>2013-11-19T08:14:54.0000000+00:00</time></trkpt><trkpt lat="31.24457169" lon="34.80369949"><ele>271.5</ele><time>2013-11-19T08:15:09.0000000+00:00</time></trkpt><trkpt lat="31.24435806" lon="34.80364227"><ele>271.9</ele><time>2013-11-19T08:15:14.0000000+00:00</time></trkpt><trkpt lat="31.24401665" lon="34.80308914"><ele>271.0</ele><time>2013-11-19T08:15:24.0000000+00:00</time></trkpt><trkpt lat="31.24349976" lon="34.8029213"><ele>270.5</ele><time>2013-11-19T08:15:34.0000000+00:00</time></trkpt><trkpt lat="31.24143219" lon="34.80129242"><ele>267.1</ele><time>2013-11-19T08:16:39.0000000+00:00</time></trkpt><trkpt lat="31.240448" lon="34.79999542"><ele>266.5</ele><time>2013-11-19T08:17:29.0000000+00:00</time></trkpt><trkpt lat="31.23950958" lon="34.79709625"><ele>262.9</ele><time>2013-11-19T08:18:09.0000000+00:00</time></trkpt><trkpt lat="31.23885346" lon="34.79593277"><ele>261.9</ele><time>2013-11-19T08:18:29.0000000+00:00</time></trkpt><trkpt lat="31.23826599" lon="34.79432678"><ele>262.0</ele><time>2013-11-19T08:19:34.0000000+00:00</time></trkpt><trkpt lat="31.23936272" lon="34.79759216"><ele>261.9</ele><time>2013-11-19T08:24:19.0000000+00:00</time></trkpt><trkpt lat="31.23718071" lon="34.7984314"><ele>263.1</ele><time>2013-11-19T08:25:54.0000000+00:00</time></trkpt><trkpt lat="31.23652268" lon="34.79886627"><ele>262.2</ele><time>2013-11-19T08:26:49.0000000+00:00</time></trkpt><trkpt lat="31.23552704" lon="34.8001442"><ele>263.0</ele><time>2013-11-19T08:27:29.0000000+00:00</time></trkpt><trkpt lat="31.23370171" lon="34.80125427"><ele>260.4</ele><time>2013-11-19T08:28:54.0000000+00:00</time></trkpt><trkpt lat="31.23180008" lon="34.8021431"><ele>266.1</ele><time>2013-11-19T08:29:39.0000000+00:00</time></trkpt><trkpt lat="31.23068428" lon="34.80239868"><ele>267.2</ele><time>2013-11-19T08:30:09.0000000+00:00</time></trkpt><trkpt lat="31.23022652" lon="34.80001068"><ele>265.0</ele><time>2013-11-19T08:33:44.0000000+00:00</time></trkpt><trkpt lat="31.23028946" lon="34.79937363"><ele>264.6</ele><time>2013-11-19T08:33:54.0000000+00:00</time></trkpt><trkpt lat="31.23010826" lon="34.79777145"><ele>264.0</ele><time>2013-11-19T08:34:19.0000000+00:00</time></trkpt><trkpt lat="31.2308197" lon="34.79722595"><ele>264.3</ele><time>2013-11-19T08:35:44.0000000+00:00</time></trkpt><trkpt lat="31.23082352" lon="34.79689407"><ele>264.4</ele><time>2013-11-19T08:35:59.0000000+00:00</time></trkpt><trkpt lat="31.23006249" lon="34.79528427"><ele>264.2</ele><time>2013-11-19T08:36:39.0000000+00:00</time></trkpt><trkpt lat="31.23174477" lon="34.79472733"><ele>263.1</ele><time>2013-11-19T08:37:24.0000000+00:00</time></trkpt><trkpt lat="31.23174095" lon="34.79385376"><ele>262.4</ele><time>2013-11-19T08:37:44.0000000+00:00</time></trkpt><trkpt lat="31.2320919" lon="34.79370499"><ele>261.5</ele><time>2013-11-19T08:37:54.0000000+00:00</time></trkpt><trkpt lat="31.23217583" lon="34.79344177"><ele>261.3</ele><time>2013-11-19T08:37:59.0000000+00:00</time></trkpt><trkpt lat="31.23214912" lon="34.79132462"><ele>259.0</ele><time>2013-11-19T08:38:34.0000000+00:00</time></trkpt><trkpt lat="31.23313141" lon="34.79127121"><ele>256.8</ele><time>2013-11-19T08:39:49.0000000+00:00</time></trkpt><trkpt lat="31.23186302" lon="34.79115295"><ele>259.5</ele><time>2013-11-19T08:40:59.0000000+00:00</time></trkpt><trkpt lat="31.23030663" lon="34.79142761"><ele>261.8</ele><time>2013-11-19T08:42:14.0000000+00:00</time></trkpt><trkpt lat="31.22903824" lon="34.79203415"><ele>261.6</ele><time>2013-11-19T08:42:59.0000000+00:00</time></trkpt><trkpt lat="31.2283535" lon="34.79215622"><ele>261.6</ele><time>2013-11-19T08:43:29.0000000+00:00</time></trkpt><trkpt lat="31.22820664" lon="34.79236984"><ele>260.7</ele><time>2013-11-19T08:43:39.0000000+00:00</time></trkpt><trkpt lat="31.22824669" lon="34.79302979"><ele>262.2</ele><time>2013-11-19T08:44:04.0000000+00:00</time></trkpt><trkpt lat="31.22826958" lon="34.79228973"><ele>261.1</ele><time>2013-11-19T08:44:34.0000000+00:00</time></trkpt><trkpt lat="31.22774506" lon="34.79073334"><ele>253.8</ele><time>2013-11-19T08:45:09.0000000+00:00</time></trkpt><trkpt lat="31.22753143" lon="34.79178238"><ele>254.9</ele><time>2013-11-19T08:45:39.0000000+00:00</time></trkpt><trkpt lat="31.22730255" lon="34.79624176"><ele>257.0</ele><time>2013-11-19T08:47:14.0000000+00:00</time></trkpt><trkpt lat="31.22734451" lon="34.79727936"><ele>257.0</ele><time>2013-11-19T08:47:49.0000000+00:00</time></trkpt><trkpt lat="31.22763062" lon="34.79751968"><ele>258.1</ele><time>2013-11-19T08:48:09.0000000+00:00</time></trkpt><trkpt lat="31.22555924" lon="34.79779053"><ele>263.4</ele><time>2013-11-19T08:48:59.0000000+00:00</time></trkpt><trkpt lat="31.22350121" lon="34.79856491"><ele>268.7</ele><time>2013-11-19T08:49:54.0000000+00:00</time></trkpt><trkpt lat="31.22328949" lon="34.79873276"><ele>269.6</ele><time>2013-11-19T08:50:09.0000000+00:00</time></trkpt><trkpt lat="31.22359848" lon="34.79989624"><ele>271.0</ele><time>2013-11-19T08:51:04.0000000+00:00</time></trkpt><trkpt lat="31.22135735" lon="34.80058289"><ele>274.6</ele><time>2013-11-19T08:52:04.0000000+00:00</time></trkpt><trkpt lat="31.22104454" lon="34.80083084"><ele>272.8</ele><time>2013-11-19T08:52:14.0000000+00:00</time></trkpt><trkpt lat="31.22118759" lon="34.80138016"><ele>273.0</ele><time>2013-11-19T08:52:24.0000000+00:00</time></trkpt><trkpt lat="31.22107697" lon="34.80155182"><ele>273.5</ele><time>2013-11-19T08:52:29.0000000+00:00</time></trkpt><trkpt lat="31.22010994" lon="34.80177307"><ele>275.0</ele><time>2013-11-19T08:52:54.0000000+00:00</time></trkpt><trkpt lat="31.22015572" lon="34.80449295"><ele>275.5</ele><time>2013-11-19T08:54:39.0000000+00:00</time></trkpt><trkpt lat="31.22151756" lon="34.80436707"><ele>273.3</ele><time>2013-11-19T09:03:19.0000000+00:00</time></trkpt><trkpt lat="31.2217865" lon="34.80400848"><ele>273.2</ele><time>2013-11-19T09:03:39.0000000+00:00</time></trkpt><trkpt lat="31.22268295" lon="34.80381012"><ele>272.2</ele><time>2013-11-19T09:04:09.0000000+00:00</time></trkpt><trkpt lat="31.22257996" lon="34.80345917"><ele>275.1</ele><time>2013-11-19T09:04:44.0000000+00:00</time></trkpt><trkpt lat="31.22235489" lon="34.8037796"><ele>274.1</ele><time>2013-11-19T09:05:29.0000000+00:00</time></trkpt><trkpt lat="31.2210598" lon="34.80406189"><ele>273.5</ele><time>2013-11-19T09:06:34.0000000+00:00</time></trkpt><trkpt lat="31.22081947" lon="34.80303192"><ele>273.7</ele><time>2013-11-19T09:07:09.0000000+00:00</time></trkpt><trkpt lat="31.2202549" lon="34.8030014"><ele>275.1</ele><time>2013-11-19T09:07:24.0000000+00:00</time></trkpt><trkpt lat="31.22013474" lon="34.80449677"><ele>275.6</ele><time>2013-11-19T09:07:59.0000000+00:00</time></trkpt><trkpt lat="31.2184391" lon="34.80490112"><ele>276.4</ele><time>2013-11-19T09:08:54.0000000+00:00</time></trkpt><trkpt lat="31.21738434" lon="34.80481339"><ele>277.3</ele><time>2013-11-19T09:09:14.0000000+00:00</time></trkpt><trkpt lat="31.21621323" lon="34.80447388"><ele>276.9</ele><time>2013-11-19T09:09:34.0000000+00:00</time></trkpt><trkpt lat="31.21355248" lon="34.80270004"><ele>282.2</ele><time>2013-11-19T09:10:29.0000000+00:00</time></trkpt><trkpt lat="31.21268463" lon="34.80230713"><ele>284.1</ele><time>2013-11-19T09:10:49.0000000+00:00</time></trkpt><trkpt lat="31.21109963" lon="34.80185318"><ele>286.4</ele><time>2013-11-19T09:11:19.0000000+00:00</time></trkpt><trkpt lat="31.21005249" lon="34.80177689"><ele>286.8</ele><time>2013-11-19T09:11:39.0000000+00:00</time></trkpt><trkpt lat="31.20833397" lon="34.80196381"><ele>289.6</ele><time>2013-11-19T09:12:49.0000000+00:00</time></trkpt><trkpt lat="31.20837975" lon="34.80208969"><ele>288.5</ele><time>2013-11-19T09:22:29.0000000+00:00</time></trkpt><trkpt lat="31.20608139" lon="34.80224228"><ele>290.9</ele><time>2013-11-19T09:26:04.0000000+00:00</time></trkpt><trkpt lat="31.20601082" lon="34.80197907"><ele>291.4</ele><time>2013-11-19T09:26:29.0000000+00:00</time></trkpt><trkpt lat="31.20277214" lon="34.80211258"><ele>298.0</ele><time>2013-11-19T09:27:59.0000000+00:00</time></trkpt><trkpt lat="31.20023727" lon="34.80263519"><ele>304.4</ele><time>2013-11-19T09:29:09.0000000+00:00</time></trkpt><trkpt lat="31.1978817" lon="34.80290222"><ele>305.8</ele><time>2013-11-19T09:30:09.0000000+00:00</time></trkpt><trkpt lat="31.19302177" lon="34.80450058"><ele>304.4</ele><time>2013-11-19T09:32:44.0000000+00:00</time></trkpt><trkpt lat="31.19217873" lon="34.80495453"><ele>304.9</ele><time>2013-11-19T09:33:09.0000000+00:00</time></trkpt><trkpt lat="31.1908493" lon="34.80506516"><ele>306.5</ele><time>2013-11-19T09:33:34.0000000+00:00</time></trkpt><trkpt lat="31.1866951" lon="34.80656433"><ele>312.2</ele><time>2013-11-19T09:35:24.0000000+00:00</time></trkpt><trkpt lat="31.18555832" lon="34.80661392"><ele>317.7</ele><time>2013-11-19T09:35:59.0000000+00:00</time></trkpt><trkpt lat="31.18431473" lon="34.80555725"><ele>329.1</ele><time>2013-11-19T09:36:44.0000000+00:00</time></trkpt><trkpt lat="31.18412781" lon="34.8055687"><ele>325.8</ele><time>2013-11-19T09:36:49.0000000+00:00</time></trkpt><trkpt lat="31.18279839" lon="34.8066864"><ele>318.9</ele><time>2013-11-19T09:37:19.0000000+00:00</time></trkpt><trkpt lat="31.17844391" lon="34.80698776"><ele>321.6</ele><time>2013-11-19T09:38:39.0000000+00:00</time></trkpt><trkpt lat="31.17682838" lon="34.80680847"><ele>323.1</ele><time>2013-11-19T09:39:29.0000000+00:00</time></trkpt><trkpt lat="31.17117882" lon="34.80545425"><ele>327.8</ele><time>2013-11-19T09:41:09.0000000+00:00</time></trkpt><trkpt lat="31.16463471" lon="34.80356216"><ele>335.6</ele><time>2013-11-19T09:43:19.0000000+00:00</time></trkpt><trkpt lat="31.16319847" lon="34.80363464"><ele>335.1</ele><time>2013-11-19T09:43:44.0000000+00:00</time></trkpt><trkpt lat="31.15967178" lon="34.80423355"><ele>324.5</ele><time>2013-11-19T09:44:39.0000000+00:00</time></trkpt><trkpt lat="31.15830612" lon="34.8040123"><ele>322.4</ele><time>2013-11-19T09:44:59.0000000+00:00</time></trkpt><trkpt lat="31.15753174" lon="34.80461884"><ele>325.3</ele><time>2013-11-19T09:45:29.0000000+00:00</time></trkpt><trkpt lat="31.15352249" lon="34.80526733"><ele>328.6</ele><time>2013-11-19T09:47:14.0000000+00:00</time></trkpt><trkpt lat="31.15094566" lon="34.80512238"><ele>327.9</ele><time>2013-11-19T09:48:44.0000000+00:00</time></trkpt><trkpt lat="31.1511364" lon="34.80493546"><ele>330.3</ele><time>2013-11-19T09:49:04.0000000+00:00</time></trkpt><trkpt lat="31.15100098" lon="34.80429077"><ele>333.6</ele><time>2013-11-19T09:55:24.0000000+00:00</time></trkpt><trkpt lat="31.15113068" lon="34.80492401"><ele>330.3</ele><time>2013-11-19T09:58:44.0000000+00:00</time></trkpt><trkpt lat="31.15094566" lon="34.80506897"><ele>328.3</ele><time>2013-11-19T09:58:54.0000000+00:00</time></trkpt><trkpt lat="31.14650345" lon="34.80468369"><ele>316.9</ele><time>2013-11-19T10:00:09.0000000+00:00</time></trkpt><trkpt lat="31.14562225" lon="34.8039856"><ele>313.3</ele><time>2013-11-19T10:00:24.0000000+00:00</time></trkpt><trkpt lat="31.14564705" lon="34.8033371"><ele>310.9</ele><time>2013-11-19T10:00:49.0000000+00:00</time></trkpt><trkpt lat="31.1456089" lon="34.80399704"><ele>313.3</ele><time>2013-11-19T10:01:09.0000000+00:00</time></trkpt><trkpt lat="31.14498138" lon="34.80473709"><ele>317.4</ele><time>2013-11-19T10:01:39.0000000+00:00</time></trkpt><trkpt lat="31.1436367" lon="34.80472565"><ele>323.6</ele><time>2013-11-19T10:02:29.0000000+00:00</time></trkpt><trkpt lat="31.1407547" lon="34.80422974"><ele>332.5</ele><time>2013-11-19T10:05:19.0000000+00:00</time></trkpt><trkpt lat="31.13908005" lon="34.80418015"><ele>332.9</ele><time>2013-11-19T10:05:59.0000000+00:00</time></trkpt><trkpt lat="31.13718224" lon="34.80438995"><ele>329.8</ele><time>2013-11-19T10:06:34.0000000+00:00</time></trkpt><trkpt lat="31.13613701" lon="34.80474854"><ele>327.6</ele><time>2013-11-19T10:07:09.0000000+00:00</time></trkpt><trkpt lat="31.13599777" lon="34.80452728"><ele>326.7</ele><time>2013-11-19T10:07:19.0000000+00:00</time></trkpt><trkpt lat="31.13601303" lon="34.8038826"><ele>327.1</ele><time>2013-11-19T10:07:34.0000000+00:00</time></trkpt><trkpt lat="31.13571549" lon="34.80380631"><ele>326.4</ele><time>2013-11-19T10:07:54.0000000+00:00</time></trkpt><trkpt lat="31.13571739" lon="34.80323029"><ele>327.1</ele><time>2013-11-19T10:08:14.0000000+00:00</time></trkpt><trkpt lat="31.13556862" lon="34.80319214"><ele>326.8</ele><time>2013-11-19T10:08:19.0000000+00:00</time></trkpt><trkpt lat="31.13473511" lon="34.80397797"><ele>324.7</ele><time>2013-11-19T10:09:24.0000000+00:00</time></trkpt><trkpt lat="31.13419914" lon="34.80503845"><ele>318.0</ele><time>2013-11-19T10:09:44.0000000+00:00</time></trkpt><trkpt lat="31.13279915" lon="34.80516434"><ele>314.6</ele><time>2013-11-19T10:10:04.0000000+00:00</time></trkpt><trkpt lat="31.13227081" lon="34.80506516"><ele>314.6</ele><time>2013-11-19T10:10:14.0000000+00:00</time></trkpt><trkpt lat="31.12889671" lon="34.80619812"><ele>322.6</ele><time>2013-11-19T10:11:59.0000000+00:00</time></trkpt><trkpt lat="31.12799454" lon="34.80605316"><ele>326.7</ele><time>2013-11-19T10:12:24.0000000+00:00</time></trkpt><trkpt lat="31.12740898" lon="34.80618668"><ele>326.8</ele><time>2013-11-19T10:12:39.0000000+00:00</time></trkpt><trkpt lat="31.12557793" lon="34.80758667"><ele>324.3</ele><time>2013-11-19T10:13:24.0000000+00:00</time></trkpt><trkpt lat="31.1241169" lon="34.80820847"><ele>320.2</ele><time>2013-11-19T10:13:54.0000000+00:00</time></trkpt><trkpt lat="31.12272644" lon="34.8094368"><ele>319.5</ele><time>2013-11-19T10:14:29.0000000+00:00</time></trkpt><trkpt lat="31.11838341" lon="34.81195831"><ele>323.8</ele><time>2013-11-19T10:16:59.0000000+00:00</time></trkpt><trkpt lat="31.11652756" lon="34.81385422"><ele>336.7</ele><time>2013-11-19T10:18:39.0000000+00:00</time></trkpt><trkpt lat="31.11433983" lon="34.81496429"><ele>343.6</ele><time>2013-11-19T10:21:39.0000000+00:00</time></trkpt><trkpt lat="31.11357498" lon="34.81641769"><ele>339.2</ele><time>2013-11-19T10:25:34.0000000+00:00</time></trkpt><trkpt lat="31.10546303" lon="34.82402039"><ele>352.6</ele><time>2013-11-19T10:30:04.0000000+00:00</time></trkpt><trkpt lat="31.10497093" lon="34.82429886"><ele>353.2</ele><time>2013-11-19T10:30:19.0000000+00:00</time></trkpt><trkpt lat="31.10452843" lon="34.82411575"><ele>353.6</ele><time>2013-11-19T10:45:04.0000000+00:00</time></trkpt><trkpt lat="31.10433388" lon="34.82438278"><ele>352.5</ele><time>2013-11-19T10:47:54.0000000+00:00</time></trkpt><trkpt lat="31.10450554" lon="34.82465363"><ele>352.5</ele><time>2013-11-19T10:51:54.0000000+00:00</time></trkpt><trkpt lat="31.10442162" lon="34.82501602"><ele>352.7</ele><time>2013-11-19T10:52:04.0000000+00:00</time></trkpt><trkpt lat="31.1032238" lon="34.82583237"><ele>351.6</ele><time>2013-11-19T10:52:34.0000000+00:00</time></trkpt><trkpt lat="31.09466934" lon="34.82843781"><ele>333.6</ele><time>2013-11-19T10:57:09.0000000+00:00</time></trkpt><trkpt lat="31.09046745" lon="34.82936096"><ele>333.7</ele><time>2013-11-19T10:59:44.0000000+00:00</time></trkpt><trkpt lat="31.08916664" lon="34.83021545"><ele>335.4</ele><time>2013-11-19T11:00:14.0000000+00:00</time></trkpt><trkpt lat="31.08683395" lon="34.83287048"><ele>337.1</ele><time>2013-11-19T11:01:34.0000000+00:00</time></trkpt><trkpt lat="31.08557129" lon="34.83380127"><ele>337.9</ele><time>2013-11-19T11:02:04.0000000+00:00</time></trkpt><trkpt lat="31.08445358" lon="34.83431244"><ele>338.2</ele><time>2013-11-19T11:02:29.0000000+00:00</time></trkpt><trkpt lat="31.07790756" lon="34.8363266"><ele>341.7</ele><time>2013-11-19T11:08:09.0000000+00:00</time></trkpt><trkpt lat="31.07702255" lon="34.83694077"><ele>343.1</ele><time>2013-11-19T11:08:29.0000000+00:00</time></trkpt><trkpt lat="31.07539368" lon="34.83856964"><ele>347.9</ele><time>2013-11-19T11:09:14.0000000+00:00</time></trkpt><trkpt lat="31.07391739" lon="34.83934403"><ele>349.1</ele><time>2013-11-19T11:09:49.0000000+00:00</time></trkpt><trkpt lat="31.07243347" lon="34.83950806"><ele>351.1</ele><time>2013-11-19T11:10:19.0000000+00:00</time></trkpt><trkpt lat="31.06780434" lon="34.83839417"><ele>356.0</ele><time>2013-11-19T11:12:29.0000000+00:00</time></trkpt><trkpt lat="31.06468773" lon="34.83852768"><ele>362.6</ele><time>2013-11-19T11:17:04.0000000+00:00</time></trkpt><trkpt lat="31.06353188" lon="34.83826065"><ele>364.2</ele><time>2013-11-19T11:17:29.0000000+00:00</time></trkpt><trkpt lat="31.06302643" lon="34.83800888"><ele>365.5</ele><time>2013-11-19T11:17:44.0000000+00:00</time></trkpt><trkpt lat="31.06286621" lon="34.83758164"><ele>365.6</ele><time>2013-11-19T11:18:19.0000000+00:00</time></trkpt><trkpt lat="31.06222916" lon="34.83731079"><ele>368.2</ele><time>2013-11-19T11:18:39.0000000+00:00</time></trkpt><trkpt lat="31.06023026" lon="34.83533478"><ele>376.9</ele><time>2013-11-19T11:20:54.0000000+00:00</time></trkpt><trkpt lat="31.06010628" lon="34.83472824"><ele>387.6</ele><time>2013-11-19T11:21:44.0000000+00:00</time></trkpt><trkpt lat="31.06047821" lon="34.83315659"><ele>378.5</ele><time>2013-11-19T11:23:04.0000000+00:00</time></trkpt><trkpt lat="31.06044769" lon="34.83283234"><ele>376.5</ele><time>2013-11-19T11:23:09.0000000+00:00</time></trkpt><trkpt lat="31.06004143" lon="34.83255005"><ele>378.1</ele><time>2013-11-19T11:29:19.0000000+00:00</time></trkpt><trkpt lat="31.06064224" lon="34.8325882"><ele>375.6</ele><time>2013-11-19T11:29:39.0000000+00:00</time></trkpt><trkpt lat="31.061203" lon="34.83305359"><ele>375.0</ele><time>2013-11-19T11:30:04.0000000+00:00</time></trkpt><trkpt lat="31.06077576" lon="34.83261871"><ele>375.4</ele><time>2013-11-19T11:37:09.0000000+00:00</time></trkpt><trkpt lat="31.0600605" lon="34.83250046"><ele>377.8</ele><time>2013-11-19T11:37:39.0000000+00:00</time></trkpt><trkpt lat="31.05911446" lon="34.83184052"><ele>383.2</ele><time>2013-11-19T11:38:14.0000000+00:00</time></trkpt><trkpt lat="31.05694962" lon="34.83194351"><ele>382.7</ele><time>2013-11-19T11:39:24.0000000+00:00</time></trkpt><trkpt lat="31.05578041" lon="34.83143234"><ele>385.5</ele><time>2013-11-19T11:39:59.0000000+00:00</time></trkpt><trkpt lat="31.05453491" lon="34.83026886"><ele>388.1</ele><time>2013-11-19T11:41:04.0000000+00:00</time></trkpt><trkpt lat="31.05397987" lon="34.82917786"><ele>388.3</ele><time>2013-11-19T11:41:34.0000000+00:00</time></trkpt><trkpt lat="31.05325508" lon="34.82817841"><ele>388.4</ele><time>2013-11-19T11:41:59.0000000+00:00</time></trkpt><trkpt lat="31.05186462" lon="34.82529831"><ele>385.5</ele><time>2013-11-19T11:42:49.0000000+00:00</time></trkpt><trkpt lat="31.0506897" lon="34.82434845"><ele>384.3</ele><time>2013-11-19T11:43:19.0000000+00:00</time></trkpt><trkpt lat="31.05025864" lon="34.82359314"><ele>383.9</ele><time>2013-11-19T11:43:34.0000000+00:00</time></trkpt><trkpt lat="31.0481739" lon="34.82109451"><ele>379.3</ele><time>2013-11-19T11:44:19.0000000+00:00</time></trkpt><trkpt lat="31.04693985" lon="34.81865692"><ele>374.8</ele><time>2013-11-19T11:44:54.0000000+00:00</time></trkpt><trkpt lat="31.04500389" lon="34.81585693"><ele>372.8</ele><time>2013-11-19T11:45:39.0000000+00:00</time></trkpt><trkpt lat="31.0432148" lon="34.81423569"><ele>371.9</ele><time>2013-11-19T11:46:19.0000000+00:00</time></trkpt><trkpt lat="31.04016876" lon="34.81025696"><ele>364.0</ele><time>2013-11-19T11:48:44.0000000+00:00</time></trkpt><trkpt lat="31.03939438" lon="34.80882645"><ele>361.2</ele><time>2013-11-19T11:49:09.0000000+00:00</time></trkpt><trkpt lat="31.03857231" lon="34.80785751"><ele>358.2</ele><time>2013-11-19T11:49:24.0000000+00:00</time></trkpt><trkpt lat="31.03738785" lon="34.8068428"><ele>358.7</ele><time>2013-11-19T11:50:39.0000000+00:00</time></trkpt><trkpt lat="31.03590012" lon="34.80410385"><ele>356.8</ele><time>2013-11-19T11:51:44.0000000+00:00</time></trkpt><trkpt lat="31.0319519" lon="34.80111313"><ele>355.5</ele><time>2013-11-19T11:53:14.0000000+00:00</time></trkpt><trkpt lat="31.03071022" lon="34.80051041"><ele>354.5</ele><time>2013-11-19T11:53:39.0000000+00:00</time></trkpt><trkpt lat="31.02972031" lon="34.7998085"><ele>355.0</ele><time>2013-11-19T11:54:09.0000000+00:00</time></trkpt><trkpt lat="31.02836227" lon="34.79811859"><ele>355.9</ele><time>2013-11-19T11:54:59.0000000+00:00</time></trkpt><trkpt lat="31.0253315" lon="34.79532623"><ele>354.8</ele><time>2013-11-19T11:56:09.0000000+00:00</time></trkpt><trkpt lat="31.02451897" lon="34.7940979"><ele>354.4</ele><time>2013-11-19T11:56:34.0000000+00:00</time></trkpt><trkpt lat="31.02381134" lon="34.79347992"><ele>356.3</ele><time>2013-11-19T11:56:59.0000000+00:00</time></trkpt><trkpt lat="31.02347183" lon="34.79296494"><ele>356.6</ele><time>2013-11-19T11:58:24.0000000+00:00</time></trkpt><trkpt lat="31.02336693" lon="34.79308701"><ele>356.7</ele><time>2013-11-19T12:00:59.0000000+00:00</time></trkpt><trkpt lat="31.02350235" lon="34.79275131"><ele>356.6</ele><time>2013-11-19T12:01:14.0000000+00:00</time></trkpt><trkpt lat="31.0226078" lon="34.79159546"><ele>356.5</ele><time>2013-11-19T12:01:54.0000000+00:00</time></trkpt><trkpt lat="31.02207565" lon="34.79042435"><ele>356.2</ele><time>2013-11-19T12:02:24.0000000+00:00</time></trkpt><trkpt lat="31.02187347" lon="34.78939056"><ele>355.7</ele><time>2013-11-19T12:02:59.0000000+00:00</time></trkpt><trkpt lat="31.02146721" lon="34.79040909"><ele>353.9</ele><time>2013-11-19T12:03:34.0000000+00:00</time></trkpt><trkpt lat="31.02107048" lon="34.79065323"><ele>353.1</ele><time>2013-11-19T12:03:49.0000000+00:00</time></trkpt><trkpt lat="31.02071953" lon="34.79038239"><ele>352.1</ele><time>2013-11-19T12:04:04.0000000+00:00</time></trkpt><trkpt lat="31.02007675" lon="34.78917694"><ele>350.3</ele><time>2013-11-19T12:04:39.0000000+00:00</time></trkpt><trkpt lat="31.01968002" lon="34.78888321"><ele>349.9</ele><time>2013-11-19T12:04:54.0000000+00:00</time></trkpt><trkpt lat="31.01898575" lon="34.78922272"><ele>348.6</ele><time>2013-11-19T12:05:19.0000000+00:00</time></trkpt><trkpt lat="31.01720619" lon="34.78768539"><ele>346.7</ele><time>2013-11-19T12:06:04.0000000+00:00</time></trkpt><trkpt lat="31.01324654" lon="34.77993774"><ele>343.1</ele><time>2013-11-19T12:08:34.0000000+00:00</time></trkpt><trkpt lat="31.01201439" lon="34.77839279"><ele>338.3</ele><time>2013-11-19T12:09:09.0000000+00:00</time></trkpt><trkpt lat="31.01137543" lon="34.77783585"><ele>338.2</ele><time>2013-11-19T12:09:24.0000000+00:00</time></trkpt><trkpt lat="31.01381874" lon="34.76818466"><ele>323.8</ele><time>2013-11-19T12:12:04.0000000+00:00</time></trkpt><trkpt lat="31.01520729" lon="34.76387024"><ele>323.2</ele><time>2013-11-19T12:13:54.0000000+00:00</time></trkpt><trkpt lat="31.01582146" lon="34.7624588"><ele>321.5</ele><time>2013-11-19T12:15:09.0000000+00:00</time></trkpt><trkpt lat="31.01600075" lon="34.76243591"><ele>321.7</ele><time>2013-11-19T12:15:34.0000000+00:00</time></trkpt><trkpt lat="31.01587486" lon="34.76256943"><ele>321.2</ele><time>2013-11-19T12:16:19.0000000+00:00</time></trkpt><trkpt lat="31.0161438" lon="34.76171875"><ele>321.8</ele><time>2013-11-19T12:17:09.0000000+00:00</time></trkpt><trkpt lat="31.01642799" lon="34.76168442"><ele>320.3</ele><time>2013-11-19T12:17:24.0000000+00:00</time></trkpt><trkpt lat="31.01666832" lon="34.76191711"><ele>317.7</ele><time>2013-11-19T12:20:29.0000000+00:00</time></trkpt><trkpt lat="31.01666451" lon="34.76273346"><ele>317.7</ele><time>2013-11-19T12:21:14.0000000+00:00</time></trkpt><trkpt lat="31.01677322" lon="34.76251984"><ele>317.1</ele><time>2013-11-19T12:21:39.0000000+00:00</time></trkpt><trkpt lat="31.01704979" lon="34.76250839"><ele>317.0</ele><time>2013-11-19T12:22:14.0000000+00:00</time></trkpt><trkpt lat="31.01758003" lon="34.76115418"><ele>319.1</ele><time>2013-11-19T12:23:09.0000000+00:00</time></trkpt><trkpt lat="31.01733971" lon="34.76011276"><ele>315.7</ele><time>2013-11-19T12:23:59.0000000+00:00</time></trkpt><trkpt lat="31.01625443" lon="34.76123047"><ele>321.2</ele><time>2013-11-19T12:25:04.0000000+00:00</time></trkpt><trkpt lat="31.01604462" lon="34.76081848"><ele>321.2</ele><time>2013-11-19T12:25:39.0000000+00:00</time></trkpt><trkpt lat="31.01482964" lon="34.75986862"><ele>321.7</ele><time>2013-11-19T12:26:24.0000000+00:00</time></trkpt><trkpt lat="31.01405907" lon="34.75966263"><ele>323.2</ele><time>2013-11-19T12:27:04.0000000+00:00</time></trkpt><trkpt lat="31.01495743" lon="34.75998688"><ele>321.5</ele><time>2013-11-19T12:28:09.0000000+00:00</time></trkpt><trkpt lat="31.01603508" lon="34.76088333"><ele>321.0</ele><time>2013-11-19T12:28:54.0000000+00:00</time></trkpt><trkpt lat="31.01703644" lon="34.75829697"><ele>318.9</ele><time>2013-11-19T12:29:49.0000000+00:00</time></trkpt><trkpt lat="31.01703453" lon="34.75776291"><ele>318.2</ele><time>2013-11-19T12:30:09.0000000+00:00</time></trkpt><trkpt lat="31.01751709" lon="34.75685883"><ele>317.0</ele><time>2013-11-19T12:30:34.0000000+00:00</time></trkpt><trkpt lat="31.01716423" lon="34.75508881"><ele>315.3</ele><time>2013-11-19T12:33:54.0000000+00:00</time></trkpt><trkpt lat="31.01631165" lon="34.75432968"><ele>318.1</ele><time>2013-11-19T12:34:24.0000000+00:00</time></trkpt><trkpt lat="31.01622391" lon="34.75403214"><ele>317.6</ele><time>2013-11-19T12:34:34.0000000+00:00</time></trkpt><trkpt lat="31.0168438" lon="34.75068283"><ele>318.9</ele><time>2013-11-19T12:35:59.0000000+00:00</time></trkpt><trkpt lat="31.01683998" lon="34.74980927"><ele>322.3</ele><time>2013-11-19T12:36:44.0000000+00:00</time></trkpt><trkpt lat="31.01712608" lon="34.74916458"><ele>326.4</ele><time>2013-11-19T12:38:09.0000000+00:00</time></trkpt><trkpt lat="31.01684952" lon="34.7497406"><ele>323.0</ele><time>2013-11-19T12:38:39.0000000+00:00</time></trkpt><trkpt lat="31.0168438" lon="34.75073242"><ele>318.9</ele><time>2013-11-19T12:39:09.0000000+00:00</time></trkpt><trkpt lat="31.01623917" lon="34.7539978"><ele>317.7</ele><time>2013-11-19T12:40:24.0000000+00:00</time></trkpt><trkpt lat="31.01629829" lon="34.75432968"><ele>318.2</ele><time>2013-11-19T12:40:34.0000000+00:00</time></trkpt><trkpt lat="31.01714897" lon="34.75578308"><ele>317.1</ele><time>2013-11-19T12:41:14.0000000+00:00</time></trkpt><trkpt lat="31.01749229" lon="34.75681686"><ele>316.9</ele><time>2013-11-19T12:42:04.0000000+00:00</time></trkpt><trkpt lat="31.01697922" lon="34.75798798"><ele>318.5</ele><time>2013-11-19T12:42:44.0000000+00:00</time></trkpt><trkpt lat="31.0171032" lon="34.75801849"><ele>318.8</ele><time>2013-11-19T12:42:49.0000000+00:00</time></trkpt><trkpt lat="31.01766777" lon="34.75723267"><ele>318.2</ele><time>2013-11-19T12:43:09.0000000+00:00</time></trkpt><trkpt lat="31.0184536" lon="34.75651932"><ele>316.4</ele><time>2013-11-19T12:43:29.0000000+00:00</time></trkpt><trkpt lat="31.02102852" lon="34.75521469"><ele>318.4</ele><time>2013-11-19T12:44:34.0000000+00:00</time></trkpt><trkpt lat="31.0190258" lon="34.75691986"><ele>316.6</ele><time>2013-11-19T12:45:54.0000000+00:00</time></trkpt><trkpt lat="31.01976776" lon="34.75872421"><ele>322.0</ele><time>2013-11-19T12:46:59.0000000+00:00</time></trkpt><trkpt lat="31.019804" lon="34.75911331"><ele>323.8</ele><time>2013-11-19T12:47:14.0000000+00:00</time></trkpt><trkpt lat="31.01922035" lon="34.76050186"><ele>335.1</ele><time>2013-11-19T12:48:54.0000000+00:00</time></trkpt><trkpt lat="31.01880074" lon="34.76094055"><ele>339.8</ele><time>2013-11-19T12:49:34.0000000+00:00</time></trkpt><trkpt lat="31.01838493" lon="34.76108551"><ele>337.1</ele><time>2013-11-19T12:50:14.0000000+00:00</time></trkpt><trkpt lat="31.01869202" lon="34.76144409"><ele>341.1</ele><time>2013-11-19T12:53:34.0000000+00:00</time></trkpt><trkpt lat="31.01849175" lon="34.76185226"><ele>340.5</ele><time>2013-11-19T12:54:24.0000000+00:00</time></trkpt><trkpt lat="31.02001762" lon="34.75910568"><ele>322.8</ele><time>2013-11-19T12:55:39.0000000+00:00</time></trkpt><trkpt lat="31.02033234" lon="34.7604599"><ele>325.3</ele><time>2013-11-19T12:56:19.0000000+00:00</time></trkpt><trkpt lat="31.02021408" lon="34.76197434"><ele>327.8</ele><time>2013-11-19T12:56:59.0000000+00:00</time></trkpt><trkpt lat="31.01961517" lon="34.76368332"><ele>330.6</ele><time>2013-11-19T12:57:49.0000000+00:00</time></trkpt><trkpt lat="31.01891708" lon="34.76767731"><ele>335.9</ele><time>2013-11-19T13:00:14.0000000+00:00</time></trkpt><trkpt lat="31.01954651" lon="34.76397705"><ele>330.8</ele><time>2013-11-19T13:01:44.0000000+00:00</time></trkpt><trkpt lat="31.02017975" lon="34.76193237"><ele>328.1</ele><time>2013-11-19T13:02:34.0000000+00:00</time></trkpt><trkpt lat="31.02029991" lon="34.76045227"><ele>325.5</ele><time>2013-11-19T13:03:04.0000000+00:00</time></trkpt><trkpt lat="31.02004623" lon="34.75917053"><ele>323.2</ele><time>2013-11-19T13:03:29.0000000+00:00</time></trkpt><trkpt lat="31.0190239" lon="34.75718308"><ele>317.3</ele><time>2013-11-19T13:04:09.0000000+00:00</time></trkpt><trkpt lat="31.01902771" lon="34.75692368"><ele>316.6</ele><time>2013-11-19T13:04:14.0000000+00:00</time></trkpt><trkpt lat="31.02500534" lon="34.75189591"><ele>314.6</ele><time>2013-11-19T13:06:54.0000000+00:00</time></trkpt><trkpt lat="31.02675438" lon="34.75071335"><ele>313.9</ele><time>2013-11-19T13:07:39.0000000+00:00</time></trkpt><trkpt lat="31.03470993" lon="34.74951935"><ele>313.8</ele><time>2013-11-19T13:10:44.0000000+00:00</time></trkpt><trkpt lat="31.03547478" lon="34.74921417"><ele>310.7</ele><time>2013-11-19T13:10:59.0000000+00:00</time></trkpt><trkpt lat="31.03635788" lon="34.74852753"><ele>308.0</ele><time>2013-11-19T13:11:19.0000000+00:00</time></trkpt><trkpt lat="31.03728485" lon="34.74714661"><ele>310.5</ele><time>2013-11-19T13:11:49.0000000+00:00</time></trkpt><trkpt lat="31.04292107" lon="34.73467255"><ele>294.1</ele><time>2013-11-19T13:16:14.0000000+00:00</time></trkpt><trkpt lat="31.04369164" lon="34.73379135"><ele>297.2</ele><time>2013-11-19T13:16:39.0000000+00:00</time></trkpt><trkpt lat="31.04620552" lon="34.73226166"><ele>290.1</ele><time>2013-11-19T13:17:34.0000000+00:00</time></trkpt><trkpt lat="31.04711914" lon="34.73152924"><ele>288.1</ele><time>2013-11-19T13:17:54.0000000+00:00</time></trkpt><trkpt lat="31.04975891" lon="34.72880936"><ele>279.4</ele><time>2013-11-19T13:18:54.0000000+00:00</time></trkpt><trkpt lat="31.05071068" lon="34.72761154"><ele>275.6</ele><time>2013-11-19T13:19:24.0000000+00:00</time></trkpt><trkpt lat="31.05079842" lon="34.72732163"><ele>275.2</ele><time>2013-11-19T13:19:34.0000000+00:00</time></trkpt><trkpt lat="31.04768181" lon="34.72426224"><ele>279.2</ele><time>2013-11-19T13:21:29.0000000+00:00</time></trkpt><trkpt lat="31.04668999" lon="34.72386551"><ele>282.6</ele><time>2013-11-19T13:22:19.0000000+00:00</time></trkpt><trkpt lat="31.04606056" lon="34.72391892"><ele>280.9</ele><time>2013-11-19T13:22:39.0000000+00:00</time></trkpt><trkpt lat="31.0448246" lon="34.72437668"><ele>282.3</ele><time>2013-11-19T13:23:24.0000000+00:00</time></trkpt><trkpt lat="31.04376411" lon="34.72418213"><ele>283.0</ele><time>2013-11-19T13:24:09.0000000+00:00</time></trkpt><trkpt lat="31.04205513" lon="34.72331238"><ele>288.4</ele><time>2013-11-19T13:25:14.0000000+00:00</time></trkpt><trkpt lat="31.04094315" lon="34.72150803"><ele>283.6</ele><time>2013-11-19T13:26:39.0000000+00:00</time></trkpt><trkpt lat="31.04208374" lon="34.72335815"><ele>288.5</ele><time>2013-11-19T13:27:39.0000000+00:00</time></trkpt><trkpt lat="31.04371452" lon="34.72422791"><ele>283.0</ele><time>2013-11-19T13:28:29.0000000+00:00</time></trkpt><trkpt lat="31.04469109" lon="34.72446442"><ele>282.3</ele><time>2013-11-19T13:29:04.0000000+00:00</time></trkpt><trkpt lat="31.04367447" lon="34.72413254"><ele>283.2</ele><time>2013-11-19T13:29:39.0000000+00:00</time></trkpt><trkpt lat="31.04200745" lon="34.72320557"><ele>288.3</ele><time>2013-11-19T13:30:34.0000000+00:00</time></trkpt><trkpt lat="31.04057694" lon="34.72095871"><ele>284.2</ele><time>2013-11-19T13:31:24.0000000+00:00</time></trkpt><trkpt lat="31.04104805" lon="34.72021103"><ele>283.3</ele><time>2013-11-19T13:31:59.0000000+00:00</time></trkpt><trkpt lat="31.04132462" lon="34.72039032"><ele>283.2</ele><time>2013-11-19T13:33:14.0000000+00:00</time></trkpt><trkpt lat="31.04125404" lon="34.72019959"><ele>283.6</ele><time>2013-11-19T13:59:49.0000000+00:00</time></trkpt></trkseg><trkseg><trkpt lat="31.04132843" lon="34.72027206"><ele>283.5</ele><time>2013-11-20T06:16:04.0000000+00:00</time></trkpt><trkpt lat="31.04159164" lon="34.72019959"><ele>283.9</ele><time>2013-11-20T06:36:14.0000000+00:00</time></trkpt><trkpt lat="31.04202461" lon="34.72042847"><ele>283.7</ele><time>2013-11-20T06:36:29.0000000+00:00</time></trkpt><trkpt lat="31.04342079" lon="34.71971893"><ele>283.6</ele><time>2013-11-20T06:37:04.0000000+00:00</time></trkpt><trkpt lat="31.04425812" lon="34.72008514"><ele>281.9</ele><time>2013-11-20T06:37:24.0000000+00:00</time></trkpt><trkpt lat="31.04571533" lon="34.71912766"><ele>279.6</ele><time>2013-11-20T06:37:59.0000000+00:00</time></trkpt><trkpt lat="31.04607201" lon="34.71922684"><ele>279.7</ele><time>2013-11-20T06:38:09.0000000+00:00</time></trkpt><trkpt lat="31.0457058" lon="34.71832657"><ele>277.5</ele><time>2013-11-20T06:38:34.0000000+00:00</time></trkpt><trkpt lat="31.04485512" lon="34.71691895"><ele>281.1</ele><time>2013-11-20T06:41:19.0000000+00:00</time></trkpt><trkpt lat="31.04449463" lon="34.71683121"><ele>283.1</ele><time>2013-11-20T06:41:39.0000000+00:00</time></trkpt><trkpt lat="31.04416657" lon="34.71711731"><ele>284.6</ele><time>2013-11-20T06:41:59.0000000+00:00</time></trkpt><trkpt lat="31.04437828" lon="34.71749497"><ele>286.3</ele><time>2013-11-20T06:42:19.0000000+00:00</time></trkpt><trkpt lat="31.04432106" lon="34.71766281"><ele>286.9</ele><time>2013-11-20T06:43:04.0000000+00:00</time></trkpt><trkpt lat="31.04470253" lon="34.71766663"><ele>286.6</ele><time>2013-11-20T06:43:44.0000000+00:00</time></trkpt><trkpt lat="31.04449844" lon="34.71786118"><ele>288.0</ele><time>2013-11-20T06:44:04.0000000+00:00</time></trkpt><trkpt lat="31.04402733" lon="34.71990585"><ele>282.6</ele><time>2013-11-20T06:44:44.0000000+00:00</time></trkpt><trkpt lat="31.04342079" lon="34.71970367"><ele>283.6</ele><time>2013-11-20T06:44:59.0000000+00:00</time></trkpt><trkpt lat="31.04237747" lon="34.72023392"><ele>285.4</ele><time>2013-11-20T06:45:29.0000000+00:00</time></trkpt><trkpt lat="31.04134178" lon="34.71961212"><ele>284.1</ele><time>2013-11-20T06:45:59.0000000+00:00</time></trkpt><trkpt lat="31.04052353" lon="34.7208519"><ele>284.2</ele><time>2013-11-20T06:47:29.0000000+00:00</time></trkpt><trkpt lat="31.04037094" lon="34.7208519"><ele>284.5</ele><time>2013-11-20T06:47:34.0000000+00:00</time></trkpt><trkpt lat="31.03918076" lon="34.71958542"><ele>284.5</ele><time>2013-11-20T06:48:14.0000000+00:00</time></trkpt><trkpt lat="31.03919029" lon="34.71905899"><ele>283.6</ele><time>2013-11-20T06:48:24.0000000+00:00</time></trkpt><trkpt lat="31.03950501" lon="34.71801376"><ele>282.8</ele><time>2013-11-20T06:48:49.0000000+00:00</time></trkpt><trkpt lat="31.03929901" lon="34.71821976"><ele>282.3</ele><time>2013-11-20T07:25:04.0000000+00:00</time></trkpt><trkpt lat="31.03916931" lon="34.71962357"><ele>284.5</ele><time>2013-11-20T07:25:39.0000000+00:00</time></trkpt><trkpt lat="31.04086876" lon="34.72148895"><ele>283.9</ele><time>2013-11-20T07:26:29.0000000+00:00</time></trkpt><trkpt lat="31.04206276" lon="34.72339249"><ele>288.4</ele><time>2013-11-20T07:27:19.0000000+00:00</time></trkpt><trkpt lat="31.04339027" lon="34.7240715"><ele>284.3</ele><time>2013-11-20T07:27:49.0000000+00:00</time></trkpt><trkpt lat="31.044487" lon="34.72440338"><ele>281.9</ele><time>2013-11-20T07:28:09.0000000+00:00</time></trkpt><trkpt lat="31.04648209" lon="34.72387695"><ele>282.5</ele><time>2013-11-20T07:28:59.0000000+00:00</time></trkpt><trkpt lat="31.04727936" lon="34.72408676"><ele>280.6</ele><time>2013-11-20T07:29:19.0000000+00:00</time></trkpt><trkpt lat="31.05004501" lon="34.72677231"><ele>277.3</ele><time>2013-11-20T07:30:24.0000000+00:00</time></trkpt><trkpt lat="31.05059242" lon="34.72747803"><ele>275.7</ele><time>2013-11-20T07:30:39.0000000+00:00</time></trkpt><trkpt lat="31.04940224" lon="34.72907257"><ele>278.6</ele><time>2013-11-20T07:31:19.0000000+00:00</time></trkpt><trkpt lat="31.04735756" lon="34.73117065"><ele>286.4</ele><time>2013-11-20T07:32:29.0000000+00:00</time></trkpt><trkpt lat="31.04644966" lon="34.73195267"><ele>290.1</ele><time>2013-11-20T07:32:59.0000000+00:00</time></trkpt><trkpt lat="31.04368973" lon="34.73358917"><ele>297.8</ele><time>2013-11-20T07:34:19.0000000+00:00</time></trkpt><trkpt lat="31.04269028" lon="34.73468018"><ele>296.2</ele><time>2013-11-20T07:34:49.0000000+00:00</time></trkpt><trkpt lat="31.03715134" lon="34.74715805"><ele>310.1</ele><time>2013-11-20T07:38:54.0000000+00:00</time></trkpt><trkpt lat="31.03644371" lon="34.74828339"><ele>307.3</ele><time>2013-11-20T07:39:14.0000000+00:00</time></trkpt><trkpt lat="31.03581619" lon="34.74884796"><ele>310.8</ele><time>2013-11-20T07:39:29.0000000+00:00</time></trkpt><trkpt lat="31.03469658" lon="34.74933624"><ele>312.9</ele><time>2013-11-20T07:39:54.0000000+00:00</time></trkpt><trkpt lat="31.0273304" lon="34.75039291"><ele>315.8</ele><time>2013-11-20T07:42:24.0000000+00:00</time></trkpt><trkpt lat="31.0262661" lon="34.75080109"><ele>313.1</ele><time>2013-11-20T07:42:44.0000000+00:00</time></trkpt><trkpt lat="31.02116585" lon="34.75492096"><ele>317.7</ele><time>2013-11-20T07:44:39.0000000+00:00</time></trkpt><trkpt lat="31.01789475" lon="34.75677872"><ele>317.9</ele><time>2013-11-20T07:45:49.0000000+00:00</time></trkpt><trkpt lat="31.01690102" lon="34.75823593"><ele>318.6</ele><time>2013-11-20T07:46:19.0000000+00:00</time></trkpt><trkpt lat="31.01598358" lon="34.76075363"><ele>321.7</ele><time>2013-11-20T07:47:04.0000000+00:00</time></trkpt><trkpt lat="31.01424027" lon="34.7596283"><ele>323.3</ele><time>2013-11-20T07:47:44.0000000+00:00</time></trkpt><trkpt lat="31.010252" lon="34.75945282"><ele>325.5</ele><time>2013-11-20T07:49:04.0000000+00:00</time></trkpt><trkpt lat="31.00302887" lon="34.75771713"><ele>336.0</ele><time>2013-11-20T07:51:44.0000000+00:00</time></trkpt><trkpt lat="31.00260162" lon="34.75784302"><ele>335.6</ele><time>2013-11-20T07:51:54.0000000+00:00</time></trkpt><trkpt lat="31.00144005" lon="34.75874329"><ele>336.2</ele><time>2013-11-20T07:52:24.0000000+00:00</time></trkpt><trkpt lat="30.99219513" lon="34.76268768"><ele>350.6</ele><time>2013-11-20T07:57:14.0000000+00:00</time></trkpt><trkpt lat="30.99177742" lon="34.7626152"><ele>351.6</ele><time>2013-11-20T07:57:24.0000000+00:00</time></trkpt><trkpt lat="30.99059296" lon="34.76192093"><ele>351.4</ele><time>2013-11-20T07:57:54.0000000+00:00</time></trkpt><trkpt lat="30.99043655" lon="34.76228333"><ele>352.0</ele><time>2013-11-20T07:58:04.0000000+00:00</time></trkpt><trkpt lat="30.9907856" lon="34.76289749"><ele>352.9</ele><time>2013-11-20T07:58:29.0000000+00:00</time></trkpt><trkpt lat="30.99033928" lon="34.76374435"><ele>354.7</ele><time>2013-11-20T07:58:49.0000000+00:00</time></trkpt><trkpt lat="30.98781395" lon="34.76583481"><ele>359.8</ele><time>2013-11-20T08:00:04.0000000+00:00</time></trkpt><trkpt lat="30.98502922" lon="34.76948929"><ele>367.4</ele><time>2013-11-20T08:01:44.0000000+00:00</time></trkpt><trkpt lat="30.98382187" lon="34.770607"><ele>374.1</ele><time>2013-11-20T08:02:24.0000000+00:00</time></trkpt><trkpt lat="30.98185158" lon="34.77175903"><ele>376.7</ele><time>2013-11-20T08:03:14.0000000+00:00</time></trkpt><trkpt lat="30.98007202" lon="34.77232361"><ele>378.6</ele><time>2013-11-20T08:03:54.0000000+00:00</time></trkpt><trkpt lat="30.97896385" lon="34.7724762"><ele>380.6</ele><time>2013-11-20T08:04:19.0000000+00:00</time></trkpt><trkpt lat="30.97346878" lon="34.77234268"><ele>398.5</ele><time>2013-11-20T08:06:44.0000000+00:00</time></trkpt><trkpt lat="30.97244835" lon="34.77248001"><ele>404.0</ele><time>2013-11-20T08:07:09.0000000+00:00</time></trkpt><trkpt lat="30.97161865" lon="34.77280045"><ele>404.2</ele><time>2013-11-20T08:07:29.0000000+00:00</time></trkpt><trkpt lat="30.96707535" lon="34.776577"><ele>417.0</ele><time>2013-11-20T08:09:44.0000000+00:00</time></trkpt><trkpt lat="30.96421623" lon="34.77925873"><ele>427.2</ele><time>2013-11-20T08:11:29.0000000+00:00</time></trkpt><trkpt lat="30.96235085" lon="34.78177261"><ele>431.1</ele><time>2013-11-20T08:12:29.0000000+00:00</time></trkpt><trkpt lat="30.96174431" lon="34.78314209"><ele>432.0</ele><time>2013-11-20T08:15:24.0000000+00:00</time></trkpt><trkpt lat="30.9610405" lon="34.78322601"><ele>438.2</ele><time>2013-11-20T08:31:34.0000000+00:00</time></trkpt><trkpt lat="30.96083069" lon="34.78345871"><ele>440.3</ele><time>2013-11-20T08:31:59.0000000+00:00</time></trkpt><trkpt lat="30.95947838" lon="34.7834816"><ele>445.0</ele><time>2013-11-20T08:32:49.0000000+00:00</time></trkpt><trkpt lat="30.95911789" lon="34.7840271"><ele>448.8</ele><time>2013-11-20T08:33:09.0000000+00:00</time></trkpt><trkpt lat="30.958704" lon="34.78391266"><ele>446.1</ele><time>2013-11-20T08:33:24.0000000+00:00</time></trkpt><trkpt lat="30.95348549" lon="34.78771973"><ele>451.0</ele><time>2013-11-20T08:36:24.0000000+00:00</time></trkpt><trkpt lat="30.95296097" lon="34.78804016"><ele>451.1</ele><time>2013-11-20T08:36:44.0000000+00:00</time></trkpt><trkpt lat="30.95227814" lon="34.78810883"><ele>457.3</ele><time>2013-11-20T08:37:14.0000000+00:00</time></trkpt><trkpt lat="30.95087242" lon="34.78892517"><ele>455.5</ele><time>2013-11-20T08:38:29.0000000+00:00</time></trkpt><trkpt lat="30.95062065" lon="34.78916931"><ele>456.6</ele><time>2013-11-20T08:38:39.0000000+00:00</time></trkpt><trkpt lat="30.95046616" lon="34.78971863"><ele>459.1</ele><time>2013-11-20T08:38:59.0000000+00:00</time></trkpt><trkpt lat="30.95019722" lon="34.78988648"><ele>461.4</ele><time>2013-11-20T08:39:14.0000000+00:00</time></trkpt><trkpt lat="30.94471359" lon="34.78870773"><ele>472.8</ele><time>2013-11-20T08:51:24.0000000+00:00</time></trkpt><trkpt lat="30.94146156" lon="34.78818893"><ele>487.2</ele><time>2013-11-20T08:53:14.0000000+00:00</time></trkpt><trkpt lat="30.9375782" lon="34.78566361"><ele>501.9</ele><time>2013-11-20T08:55:54.0000000+00:00</time></trkpt><trkpt lat="30.92729569" lon="34.78103256"><ele>500.0</ele><time>2013-11-20T09:01:49.0000000+00:00</time></trkpt><trkpt lat="30.92452431" lon="34.77995682"><ele>500.3</ele><time>2013-11-20T09:02:44.0000000+00:00</time></trkpt><trkpt lat="30.92022896" lon="34.77998352"><ele>489.0</ele><time>2013-11-20T09:04:09.0000000+00:00</time></trkpt><trkpt lat="30.91337585" lon="34.78068924"><ele>465.8</ele><time>2013-11-20T09:06:29.0000000+00:00</time></trkpt><trkpt lat="30.91025162" lon="34.78084564"><ele>466.6</ele><time>2013-11-20T09:07:54.0000000+00:00</time></trkpt><trkpt lat="30.90923119" lon="34.78001404"><ele>462.7</ele><time>2013-11-20T09:08:29.0000000+00:00</time></trkpt><trkpt lat="30.90981102" lon="34.77840424"><ele>458.6</ele><time>2013-11-20T09:09:04.0000000+00:00</time></trkpt><trkpt lat="30.90981484" lon="34.77807236"><ele>458.3</ele><time>2013-11-20T09:09:19.0000000+00:00</time></trkpt><trkpt lat="30.90891647" lon="34.77801895"><ele>459.7</ele><time>2013-11-20T09:09:49.0000000+00:00</time></trkpt><trkpt lat="30.90854454" lon="34.7776947"><ele>459.7</ele><time>2013-11-20T09:09:59.0000000+00:00</time></trkpt><trkpt lat="30.9075737" lon="34.77606964"><ele>459.7</ele><time>2013-11-20T09:10:39.0000000+00:00</time></trkpt><trkpt lat="30.90732765" lon="34.77507782"><ele>458.2</ele><time>2013-11-20T09:10:59.0000000+00:00</time></trkpt><trkpt lat="30.90616798" lon="34.77317047"><ele>453.6</ele><time>2013-11-20T09:11:39.0000000+00:00</time></trkpt><trkpt lat="30.90618706" lon="34.77228546"><ele>450.2</ele><time>2013-11-20T09:11:59.0000000+00:00</time></trkpt><trkpt lat="30.90202141" lon="34.77075577"><ele>448.1</ele><time>2013-11-20T09:14:19.0000000+00:00</time></trkpt><trkpt lat="30.89029312" lon="34.77483368"><ele>450.6</ele><time>2013-11-20T09:18:54.0000000+00:00</time></trkpt><trkpt lat="30.88315773" lon="34.77561188"><ele>456.4</ele><time>2013-11-20T09:23:19.0000000+00:00</time></trkpt><trkpt lat="30.88211441" lon="34.77653503"><ele>456.3</ele><time>2013-11-20T09:23:49.0000000+00:00</time></trkpt><trkpt lat="30.88148689" lon="34.7775383"><ele>457.0</ele><time>2013-11-20T09:24:14.0000000+00:00</time></trkpt><trkpt lat="30.88101196" lon="34.77867889"><ele>457.9</ele><time>2013-11-20T09:24:39.0000000+00:00</time></trkpt><trkpt lat="30.87813377" lon="34.7838707"><ele>465.4</ele><time>2013-11-20T09:26:54.0000000+00:00</time></trkpt><trkpt lat="30.87575722" lon="34.78632355"><ele>465.8</ele><time>2013-11-20T09:28:19.0000000+00:00</time></trkpt><trkpt lat="30.87529755" lon="34.78658295"><ele>466.0</ele><time>2013-11-20T09:28:34.0000000+00:00</time></trkpt><trkpt lat="30.87404633" lon="34.78475189"><ele>465.5</ele><time>2013-11-20T09:29:59.0000000+00:00</time></trkpt><trkpt lat="30.87183571" lon="34.78259659"><ele>472.5</ele><time>2013-11-20T09:31:44.0000000+00:00</time></trkpt><trkpt lat="30.87130737" lon="34.7816124"><ele>476.5</ele><time>2013-11-20T09:32:14.0000000+00:00</time></trkpt><trkpt lat="30.87082672" lon="34.78113937"><ele>476.6</ele><time>2013-11-20T09:32:29.0000000+00:00</time></trkpt><trkpt lat="30.86669922" lon="34.77877808"><ele>478.8</ele><time>2013-11-20T09:34:19.0000000+00:00</time></trkpt><trkpt lat="30.86300659" lon="34.7761116"><ele>481.1</ele><time>2013-11-20T09:36:04.0000000+00:00</time></trkpt><trkpt lat="30.86038399" lon="34.77448654"><ele>483.5</ele><time>2013-11-20T09:37:24.0000000+00:00</time></trkpt><trkpt lat="30.85992622" lon="34.77463913"><ele>481.8</ele><time>2013-11-20T09:37:49.0000000+00:00</time></trkpt><trkpt lat="30.85961151" lon="34.77445602"><ele>482.4</ele><time>2013-11-20T09:37:59.0000000+00:00</time></trkpt><trkpt lat="30.8545742" lon="34.77097702"><ele>488.3</ele><time>2013-11-20T09:40:34.0000000+00:00</time></trkpt><trkpt lat="30.85424233" lon="34.77088928"><ele>488.7</ele><time>2013-11-20T09:40:44.0000000+00:00</time></trkpt><trkpt lat="30.85306549" lon="34.77484131"><ele>480.9</ele><time>2013-11-20T09:41:54.0000000+00:00</time></trkpt><trkpt lat="30.84994698" lon="34.77965546"><ele>481.1</ele><time>2013-11-20T09:48:29.0000000+00:00</time></trkpt><trkpt lat="30.84992981" lon="34.78024674"><ele>479.5</ele><time>2013-11-20T09:48:44.0000000+00:00</time></trkpt><trkpt lat="30.85045242" lon="34.78312302"><ele>477.8</ele><time>2013-11-20T09:49:44.0000000+00:00</time></trkpt><trkpt lat="30.85078621" lon="34.783535"><ele>478.4</ele><time>2013-11-20T10:50:14.0000000+00:00</time></trkpt><trkpt lat="30.85027123" lon="34.78388977"><ele>478.0</ele><time>2013-11-20T10:50:34.0000000+00:00</time></trkpt><trkpt lat="30.8501606" lon="34.78420639"><ele>477.0</ele><time>2013-11-20T10:50:44.0000000+00:00</time></trkpt><trkpt lat="30.85062981" lon="34.78701401"><ele>476.2</ele><time>2013-11-20T10:51:44.0000000+00:00</time></trkpt><trkpt lat="30.85011864" lon="34.78841019"><ele>476.1</ele><time>2013-11-20T10:52:24.0000000+00:00</time></trkpt><trkpt lat="30.85065651" lon="34.78864288"><ele>471.3</ele><time>2013-11-20T10:52:54.0000000+00:00</time></trkpt><trkpt lat="30.85146523" lon="34.78932953"><ele>469.7</ele><time>2013-11-20T10:53:24.0000000+00:00</time></trkpt><trkpt lat="30.85198593" lon="34.79049683"><ele>471.5</ele><time>2013-11-20T10:53:59.0000000+00:00</time></trkpt><trkpt lat="30.85200501" lon="34.79109573"><ele>469.2</ele><time>2013-11-20T10:54:14.0000000+00:00</time></trkpt><trkpt lat="30.85177994" lon="34.79134369"><ele>456.9</ele><time>2013-11-20T10:55:09.0000000+00:00</time></trkpt><trkpt lat="30.85269165" lon="34.79140472"><ele>471.9</ele><time>2013-11-20T10:55:39.0000000+00:00</time></trkpt><trkpt lat="30.85298538" lon="34.7916832"><ele>472.2</ele><time>2013-11-20T10:55:49.0000000+00:00</time></trkpt><trkpt lat="30.85336685" lon="34.79474258"><ele>473.8</ele><time>2013-11-20T10:56:54.0000000+00:00</time></trkpt><trkpt lat="30.85446549" lon="34.79506683"><ele>471.9</ele><time>2013-11-20T10:57:24.0000000+00:00</time></trkpt><trkpt lat="30.8548069" lon="34.79498673"><ele>468.1</ele><time>2013-11-20T10:57:34.0000000+00:00</time></trkpt><trkpt lat="30.85616493" lon="34.79664993"><ele>471.2</ele><time>2013-11-20T10:58:29.0000000+00:00</time></trkpt><trkpt lat="30.85718918" lon="34.79759598"><ele>472.6</ele><time>2013-11-20T10:59:09.0000000+00:00</time></trkpt><trkpt lat="30.85768509" lon="34.80025864"><ele>472.9</ele><time>2013-11-20T11:00:04.0000000+00:00</time></trkpt><trkpt lat="30.85770798" lon="34.80149841"><ele>473.0</ele><time>2013-11-20T11:00:29.0000000+00:00</time></trkpt><trkpt lat="30.85626411" lon="34.80295181"><ele>473.3</ele><time>2013-11-20T11:01:14.0000000+00:00</time></trkpt><trkpt lat="30.8557682" lon="34.80506516"><ele>472.7</ele><time>2013-11-20T11:04:34.0000000+00:00</time></trkpt><trkpt lat="30.85608864" lon="34.80460358"><ele>473.5</ele><time>2013-11-20T11:04:54.0000000+00:00</time></trkpt><trkpt lat="30.85661125" lon="34.80447769"><ele>473.3</ele><time>2013-11-20T11:05:09.0000000+00:00</time></trkpt><trkpt lat="30.85769272" lon="34.80515289"><ele>472.8</ele><time>2013-11-20T11:05:39.0000000+00:00</time></trkpt><trkpt lat="30.85943985" lon="34.80569458"><ele>471.5</ele><time>2013-11-20T11:06:29.0000000+00:00</time></trkpt><trkpt lat="30.86015511" lon="34.80553818"><ele>472.0</ele><time>2013-11-20T11:06:49.0000000+00:00</time></trkpt><trkpt lat="30.86340141" lon="34.80696487"><ele>477.6</ele><time>2013-11-20T11:08:29.0000000+00:00</time></trkpt><trkpt lat="30.86389732" lon="34.80817032"><ele>479.2</ele><time>2013-11-20T11:09:04.0000000+00:00</time></trkpt><trkpt lat="30.86520195" lon="34.81038666"><ele>484.5</ele><time>2013-11-20T11:10:14.0000000+00:00</time></trkpt><trkpt lat="30.86556816" lon="34.81157684"><ele>487.0</ele><time>2013-11-20T11:10:49.0000000+00:00</time></trkpt><trkpt lat="30.86555672" lon="34.81268692"><ele>490.9</ele><time>2013-11-20T11:11:19.0000000+00:00</time></trkpt><trkpt lat="30.86390495" lon="34.81446838"><ele>497.1</ele><time>2013-11-20T11:12:29.0000000+00:00</time></trkpt><trkpt lat="30.86362839" lon="34.8152504"><ele>499.4</ele><time>2013-11-20T11:12:54.0000000+00:00</time></trkpt><trkpt lat="30.86446571" lon="34.81688309"><ele>519.1</ele><time>2013-11-20T11:16:39.0000000+00:00</time></trkpt><trkpt lat="30.86463547" lon="34.81917191"><ele>535.9</ele><time>2013-11-20T11:18:49.0000000+00:00</time></trkpt><trkpt lat="30.86370277" lon="34.82079697"><ele>532.7</ele><time>2013-11-20T11:20:19.0000000+00:00</time></trkpt><trkpt lat="30.86408997" lon="34.8213234"><ele>535.5</ele><time>2013-11-20T11:24:14.0000000+00:00</time></trkpt><trkpt lat="30.86464119" lon="34.82121277"><ele>537.1</ele><time>2013-11-20T11:24:34.0000000+00:00</time></trkpt><trkpt lat="30.86617851" lon="34.82137299"><ele>513.1</ele><time>2013-11-20T11:25:19.0000000+00:00</time></trkpt><trkpt lat="30.86657524" lon="34.82164764"><ele>509.4</ele><time>2013-11-20T11:25:29.0000000+00:00</time></trkpt><trkpt lat="30.86666489" lon="34.82189941"><ele>508.7</ele><time>2013-11-20T11:25:34.0000000+00:00</time></trkpt><trkpt lat="30.86613083" lon="34.82458115"><ele>513.6</ele><time>2013-11-20T11:26:39.0000000+00:00</time></trkpt><trkpt lat="30.86556816" lon="34.82641602"><ele>516.7</ele><time>2013-11-20T11:27:29.0000000+00:00</time></trkpt><trkpt lat="30.86543274" lon="34.82836533"><ele>521.4</ele><time>2013-11-20T11:28:29.0000000+00:00</time></trkpt><trkpt lat="30.8663311" lon="34.82999039"><ele>531.2</ele><time>2013-11-20T11:30:04.0000000+00:00</time></trkpt><trkpt lat="30.86721993" lon="34.83085251"><ele>535.4</ele><time>2013-11-20T11:30:59.0000000+00:00</time></trkpt><trkpt lat="30.86799812" lon="34.83097458"><ele>530.5</ele><time>2013-11-20T11:31:14.0000000+00:00</time></trkpt><trkpt lat="30.86943245" lon="34.83078003"><ele>531.3</ele><time>2013-11-20T11:31:49.0000000+00:00</time></trkpt><trkpt lat="30.87033081" lon="34.83090591"><ele>528.9</ele><time>2013-11-20T11:32:14.0000000+00:00</time></trkpt><trkpt lat="30.87179375" lon="34.83145142"><ele>534.6</ele><time>2013-11-20T11:33:09.0000000+00:00</time></trkpt><trkpt lat="30.87270737" lon="34.83141708"><ele>535.7</ele><time>2013-11-20T11:33:49.0000000+00:00</time></trkpt><trkpt lat="30.87347794" lon="34.83181763"><ele>538.3</ele><time>2013-11-20T11:34:19.0000000+00:00</time></trkpt><trkpt lat="30.87477303" lon="34.83193207"><ele>539.3</ele><time>2013-11-20T11:35:29.0000000+00:00</time></trkpt><trkpt lat="30.87514114" lon="34.83224869"><ele>540.2</ele><time>2013-11-20T11:35:49.0000000+00:00</time></trkpt><trkpt lat="30.8757019" lon="34.8320694"><ele>541.4</ele><time>2013-11-20T11:36:19.0000000+00:00</time></trkpt><trkpt lat="30.8759861" lon="34.83220673"><ele>539.0</ele><time>2013-11-20T11:36:29.0000000+00:00</time></trkpt><trkpt lat="30.8763752" lon="34.83213425"><ele>537.0</ele><time>2013-11-20T11:36:39.0000000+00:00</time></trkpt><trkpt lat="30.87824249" lon="34.83273697"><ele>528.3</ele><time>2013-11-20T11:37:29.0000000+00:00</time></trkpt><trkpt lat="30.88028336" lon="34.83281708"><ele>518.8</ele><time>2013-11-20T11:38:14.0000000+00:00</time></trkpt><trkpt lat="30.8808918" lon="34.83242798"><ele>516.9</ele><time>2013-11-20T11:38:34.0000000+00:00</time></trkpt><trkpt lat="30.88166618" lon="34.83121872"><ele>515.0</ele><time>2013-11-20T11:39:09.0000000+00:00</time></trkpt><trkpt lat="30.88297653" lon="34.83047485"><ele>511.5</ele><time>2013-11-20T11:39:44.0000000+00:00</time></trkpt><trkpt lat="30.88511276" lon="34.82777023"><ele>506.2</ele><time>2013-11-20T11:40:59.0000000+00:00</time></trkpt><trkpt lat="30.88578033" lon="34.82666016"><ele>503.3</ele><time>2013-11-20T11:41:29.0000000+00:00</time></trkpt><trkpt lat="30.88708305" lon="34.82600784"><ele>502.8</ele><time>2013-11-20T11:42:09.0000000+00:00</time></trkpt><trkpt lat="30.8883419" lon="34.8245163"><ele>500.9</ele><time>2013-11-20T11:42:59.0000000+00:00</time></trkpt><trkpt lat="30.88741875" lon="34.82356262"><ele>499.7</ele><time>2013-11-20T11:43:29.0000000+00:00</time></trkpt><trkpt lat="30.88681412" lon="34.8224678"><ele>498.3</ele><time>2013-11-20T11:43:54.0000000+00:00</time></trkpt><trkpt lat="30.88626289" lon="34.82220078"><ele>497.5</ele><time>2013-11-20T11:44:09.0000000+00:00</time></trkpt><trkpt lat="30.88506889" lon="34.81949234"><ele>492.3</ele><time>2013-11-20T11:45:04.0000000+00:00</time></trkpt><trkpt lat="30.88378906" lon="34.81771088"><ele>490.7</ele><time>2013-11-20T11:46:24.0000000+00:00</time></trkpt><trkpt lat="30.8826046" lon="34.81566238"><ele>489.0</ele><time>2013-11-20T11:47:19.0000000+00:00</time></trkpt><trkpt lat="30.88221169" lon="34.81469345"><ele>488.1</ele><time>2013-11-20T11:47:39.0000000+00:00</time></trkpt><trkpt lat="30.88170433" lon="34.81272125"><ele>486.4</ele><time>2013-11-20T11:48:19.0000000+00:00</time></trkpt><trkpt lat="30.88147354" lon="34.81047058"><ele>486.2</ele><time>2013-11-20T11:49:04.0000000+00:00</time></trkpt><trkpt lat="30.88173294" lon="34.80933762"><ele>485.9</ele><time>2013-11-20T11:49:29.0000000+00:00</time></trkpt><trkpt lat="30.88133621" lon="34.80718613"><ele>483.5</ele><time>2013-11-20T11:50:09.0000000+00:00</time></trkpt><trkpt lat="30.87965584" lon="34.80168915"><ele>480.1</ele><time>2013-11-20T11:51:54.0000000+00:00</time></trkpt><trkpt lat="30.87918472" lon="34.80104065"><ele>478.8</ele><time>2013-11-20T11:52:14.0000000+00:00</time></trkpt><trkpt lat="30.8786583" lon="34.79866409"><ele>475.8</ele><time>2013-11-20T11:52:59.0000000+00:00</time></trkpt><trkpt lat="30.87853432" lon="34.79567719"><ele>473.0</ele><time>2013-11-20T11:53:49.0000000+00:00</time></trkpt><trkpt lat="30.87796211" lon="34.79418182"><ele>474.7</ele><time>2013-11-20T11:54:19.0000000+00:00</time></trkpt><trkpt lat="30.87952614" lon="34.79363632"><ele>472.7</ele><time>2013-11-20T11:56:34.0000000+00:00</time></trkpt><trkpt lat="30.87994194" lon="34.79320908"><ele>472.8</ele><time>2013-11-20T11:56:49.0000000+00:00</time></trkpt><trkpt lat="30.88025475" lon="34.79257584"><ele>475.3</ele><time>2013-11-20T11:58:29.0000000+00:00</time></trkpt><trkpt lat="30.87723923" lon="34.78949738"><ele>468.4</ele><time>2013-11-20T11:59:59.0000000+00:00</time></trkpt><trkpt lat="30.87476158" lon="34.78575516"><ele>465.0</ele><time>2013-11-20T12:01:39.0000000+00:00</time></trkpt><trkpt lat="30.87474823" lon="34.78550339"><ele>465.4</ele><time>2013-11-20T12:01:49.0000000+00:00</time></trkpt><trkpt lat="30.87191391" lon="34.78264618"><ele>472.4</ele><time>2013-11-20T12:10:39.0000000+00:00</time></trkpt><trkpt lat="30.87112808" lon="34.78136444"><ele>476.7</ele><time>2013-11-20T12:11:24.0000000+00:00</time></trkpt><trkpt lat="30.86763573" lon="34.77931213"><ele>478.4</ele><time>2013-11-20T12:12:39.0000000+00:00</time></trkpt><trkpt lat="30.86474991" lon="34.77736664"><ele>480.0</ele><time>2013-11-20T12:16:04.0000000+00:00</time></trkpt><trkpt lat="30.86457443" lon="34.77659607"><ele>483.2</ele><time>2013-11-20T12:20:14.0000000+00:00</time></trkpt><trkpt lat="30.86466408" lon="34.77510452"><ele>486.9</ele><time>2013-11-20T12:20:49.0000000+00:00</time></trkpt><trkpt lat="30.86378861" lon="34.77399063"><ele>491.4</ele><time>2013-11-20T12:21:19.0000000+00:00</time></trkpt><trkpt lat="30.86358261" lon="34.77315903"><ele>492.0</ele><time>2013-11-20T12:21:39.0000000+00:00</time></trkpt><trkpt lat="30.86359787" lon="34.77241135"><ele>491.6</ele><time>2013-11-20T12:21:59.0000000+00:00</time></trkpt><trkpt lat="30.86404038" lon="34.77203751"><ele>490.9</ele><time>2013-11-20T12:22:14.0000000+00:00</time></trkpt><trkpt lat="30.8642025" lon="34.77139664"><ele>493.6</ele><time>2013-11-20T12:22:29.0000000+00:00</time></trkpt><trkpt lat="30.86455154" lon="34.77087402"><ele>496.0</ele><time>2013-11-20T12:22:44.0000000+00:00</time></trkpt><trkpt lat="30.86557579" lon="34.77019119"><ele>502.0</ele><time>2013-11-20T12:23:24.0000000+00:00</time></trkpt><trkpt lat="30.86626053" lon="34.7699852"><ele>501.1</ele><time>2013-11-20T12:23:44.0000000+00:00</time></trkpt><trkpt lat="30.86728859" lon="34.77003098"><ele>495.8</ele><time>2013-11-20T12:24:04.0000000+00:00</time></trkpt><trkpt lat="30.86970902" lon="34.76934815"><ele>489.8</ele><time>2013-11-20T12:24:49.0000000+00:00</time></trkpt><trkpt lat="30.87064743" lon="34.76873016"><ele>488.7</ele><time>2013-11-20T12:25:09.0000000+00:00</time></trkpt><trkpt lat="30.87076378" lon="34.76848984"><ele>486.9</ele><time>2013-11-20T12:25:29.0000000+00:00</time></trkpt><trkpt lat="30.8712635" lon="34.76830292"><ele>487.7</ele><time>2013-11-20T12:25:54.0000000+00:00</time></trkpt><trkpt lat="30.8718586" lon="34.76771545"><ele>484.2</ele><time>2013-11-20T12:27:29.0000000+00:00</time></trkpt><trkpt lat="30.87311745" lon="34.76736832"><ele>479.1</ele><time>2013-11-20T12:27:54.0000000+00:00</time></trkpt><trkpt lat="30.87365723" lon="34.76693726"><ele>478.0</ele><time>2013-11-20T12:28:09.0000000+00:00</time></trkpt><trkpt lat="30.8741436" lon="34.76626205"><ele>478.6</ele><time>2013-11-20T12:28:24.0000000+00:00</time></trkpt><trkpt lat="30.8743782" lon="34.76617813"><ele>477.6</ele><time>2013-11-20T12:28:29.0000000+00:00</time></trkpt><trkpt lat="30.87646675" lon="34.76607513"><ele>470.8</ele><time>2013-11-20T12:29:24.0000000+00:00</time></trkpt><trkpt lat="30.87697029" lon="34.7666893"><ele>472.8</ele><time>2013-11-20T12:30:34.0000000+00:00</time></trkpt><trkpt lat="30.87714577" lon="34.7676506"><ele>471.7</ele><time>2013-11-20T12:30:59.0000000+00:00</time></trkpt><trkpt lat="30.8775692" lon="34.76796722"><ele>475.1</ele><time>2013-11-20T12:31:44.0000000+00:00</time></trkpt><trkpt lat="30.87824249" lon="34.76798248"><ele>477.7</ele><time>2013-11-20T12:32:09.0000000+00:00</time></trkpt><trkpt lat="30.87867928" lon="34.76837921"><ele>482.6</ele><time>2013-11-20T12:52:09.0000000+00:00</time></trkpt><trkpt lat="30.87977982" lon="34.76875687"><ele>484.8</ele><time>2013-11-20T12:53:24.0000000+00:00</time></trkpt><trkpt lat="30.88106155" lon="34.77049255"><ele>496.3</ele><time>2013-11-20T12:55:19.0000000+00:00</time></trkpt><trkpt lat="30.88141251" lon="34.77023315"><ele>495.1</ele><time>2013-11-20T12:55:44.0000000+00:00</time></trkpt><trkpt lat="30.88146019" lon="34.76982117"><ele>495.8</ele><time>2013-11-20T12:56:14.0000000+00:00</time></trkpt><trkpt lat="30.88235855" lon="34.76875305"><ele>490.1</ele><time>2013-11-20T12:56:54.0000000+00:00</time></trkpt><trkpt lat="30.88308716" lon="34.76867676"><ele>489.8</ele><time>2013-11-20T12:57:29.0000000+00:00</time></trkpt><trkpt lat="30.88352203" lon="34.76831818"><ele>488.5</ele><time>2013-11-20T12:57:44.0000000+00:00</time></trkpt><trkpt lat="30.88398171" lon="34.76716995"><ele>479.6</ele><time>2013-11-20T12:58:09.0000000+00:00</time></trkpt><trkpt lat="30.88424683" lon="34.76567459"><ele>473.3</ele><time>2013-11-20T12:58:49.0000000+00:00</time></trkpt><trkpt lat="30.88396645" lon="34.76722717"><ele>479.9</ele><time>2013-11-20T13:00:04.0000000+00:00</time></trkpt><trkpt lat="30.883461" lon="34.76840973"><ele>489.2</ele><time>2013-11-20T13:01:04.0000000+00:00</time></trkpt><trkpt lat="30.88306999" lon="34.76871109"><ele>489.5</ele><time>2013-11-20T13:01:24.0000000+00:00</time></trkpt><trkpt lat="30.88234329" lon="34.76877213"><ele>490.2</ele><time>2013-11-20T13:01:49.0000000+00:00</time></trkpt><trkpt lat="30.88157272" lon="34.76993942"><ele>496.2</ele><time>2013-11-20T13:02:49.0000000+00:00</time></trkpt><trkpt lat="30.88168716" lon="34.77017593"><ele>493.5</ele><time>2013-11-20T13:02:59.0000000+00:00</time></trkpt><trkpt lat="30.88285828" lon="34.77045441"><ele>484.3</ele><time>2013-11-20T13:03:29.0000000+00:00</time></trkpt><trkpt lat="30.88377571" lon="34.77128983"><ele>484.3</ele><time>2013-11-20T13:03:54.0000000+00:00</time></trkpt><trkpt lat="30.88525963" lon="34.77072525"><ele>478.7</ele><time>2013-11-20T13:04:49.0000000+00:00</time></trkpt><trkpt lat="30.88551903" lon="34.77102661"><ele>476.5</ele><time>2013-11-20T13:05:04.0000000+00:00</time></trkpt><trkpt lat="30.88547707" lon="34.77138519"><ele>474.1</ele><time>2013-11-20T13:05:19.0000000+00:00</time></trkpt><trkpt lat="30.88495255" lon="34.77142334"><ele>474.1</ele><time>2013-11-20T13:05:39.0000000+00:00</time></trkpt><trkpt lat="30.88475418" lon="34.77174759"><ele>467.4</ele><time>2013-11-20T13:05:54.0000000+00:00</time></trkpt><trkpt lat="30.88428116" lon="34.77183151"><ele>467.4</ele><time>2013-11-20T13:06:09.0000000+00:00</time></trkpt><trkpt lat="30.88360405" lon="34.77253342"><ele>466.5</ele><time>2013-11-20T13:06:34.0000000+00:00</time></trkpt><trkpt lat="30.88408089" lon="34.7734108"><ele>463.4</ele><time>2013-11-20T13:06:59.0000000+00:00</time></trkpt><trkpt lat="30.88450813" lon="34.77360916"><ele>461.5</ele><time>2013-11-20T13:07:09.0000000+00:00</time></trkpt><trkpt lat="30.88488007" lon="34.77357483"><ele>462.9</ele><time>2013-11-20T13:07:19.0000000+00:00</time></trkpt><trkpt lat="30.88524818" lon="34.77396774"><ele>454.9</ele><time>2013-11-20T13:07:29.0000000+00:00</time></trkpt><trkpt lat="30.88539887" lon="34.77455521"><ele>453.3</ele><time>2013-11-20T13:07:44.0000000+00:00</time></trkpt><trkpt lat="30.88540459" lon="34.77595902"><ele>457.5</ele><time>2013-11-20T13:12:19.0000000+00:00</time></trkpt><trkpt lat="30.88657761" lon="34.77556992"><ele>454.7</ele><time>2013-11-20T13:13:09.0000000+00:00</time></trkpt><trkpt lat="30.88912201" lon="34.7758255"><ele>454.5</ele><time>2013-11-20T13:14:09.0000000+00:00</time></trkpt><trkpt lat="30.88998985" lon="34.77568817"><ele>451.6</ele><time>2013-11-20T13:14:29.0000000+00:00</time></trkpt><trkpt lat="30.89059639" lon="34.77586365"><ele>452.6</ele><time>2013-11-20T13:14:44.0000000+00:00</time></trkpt><trkpt lat="30.89175224" lon="34.77574921"><ele>452.3</ele><time>2013-11-20T13:15:14.0000000+00:00</time></trkpt><trkpt lat="30.89230728" lon="34.77544403"><ele>450.5</ele><time>2013-11-20T13:15:29.0000000+00:00</time></trkpt><trkpt lat="30.89378166" lon="34.77506256"><ele>451.5</ele><time>2013-11-20T13:16:09.0000000+00:00</time></trkpt><trkpt lat="30.89436531" lon="34.77466583"><ele>448.2</ele><time>2013-11-20T13:16:24.0000000+00:00</time></trkpt><trkpt lat="30.89565086" lon="34.77416992"><ele>450.9</ele><time>2013-11-20T13:16:54.0000000+00:00</time></trkpt><trkpt lat="30.89722824" lon="34.77282333"><ele>445.9</ele><time>2013-11-20T13:17:39.0000000+00:00</time></trkpt><trkpt lat="30.89747238" lon="34.77235413"><ele>445.3</ele><time>2013-11-20T13:17:59.0000000+00:00</time></trkpt><trkpt lat="30.90211296" lon="34.77077484"><ele>448.5</ele><time>2013-11-20T13:19:44.0000000+00:00</time></trkpt><trkpt lat="30.90568543" lon="34.7722168"><ele>452.8</ele><time>2013-11-20T13:23:24.0000000+00:00</time></trkpt><trkpt lat="30.90625763" lon="34.77258682"><ele>451.5</ele><time>2013-11-20T13:23:39.0000000+00:00</time></trkpt><trkpt lat="30.9061718" lon="34.77334595"><ele>454.2</ele><time>2013-11-20T13:24:04.0000000+00:00</time></trkpt><trkpt lat="30.90669632" lon="34.77400971"><ele>456.3</ele><time>2013-11-20T13:24:29.0000000+00:00</time></trkpt><trkpt lat="30.90731621" lon="34.77524948"><ele>459.9</ele><time>2013-11-20T13:25:04.0000000+00:00</time></trkpt><trkpt lat="30.90755844" lon="34.77621079"><ele>460.0</ele><time>2013-11-20T13:25:29.0000000+00:00</time></trkpt><trkpt lat="30.90891647" lon="34.77835465"><ele>460.0</ele><time>2013-11-20T13:26:29.0000000+00:00</time></trkpt><trkpt lat="30.90840721" lon="34.77959824"><ele>464.7</ele><time>2013-11-20T13:27:14.0000000+00:00</time></trkpt><trkpt lat="30.90835953" lon="34.78108597"><ele>464.1</ele><time>2013-11-20T13:27:44.0000000+00:00</time></trkpt><trkpt lat="30.90526009" lon="34.78291702"><ele>469.8</ele><time>2013-11-20T13:29:24.0000000+00:00</time></trkpt><trkpt lat="30.90525627" lon="34.78334045"><ele>470.5</ele><time>2013-11-20T13:29:39.0000000+00:00</time></trkpt><trkpt lat="30.90481186" lon="34.78379822"><ele>472.8</ele><time>2013-11-20T13:29:59.0000000+00:00</time></trkpt><trkpt lat="30.90438843" lon="34.78495407"><ele>475.2</ele><time>2013-11-20T13:35:04.0000000+00:00</time></trkpt><trkpt lat="30.90447807" lon="34.78545761"><ele>474.7</ele><time>2013-11-20T13:35:19.0000000+00:00</time></trkpt><trkpt lat="30.90353012" lon="34.78639603"><ele>483.2</ele><time>2013-11-20T13:35:59.0000000+00:00</time></trkpt><trkpt lat="30.90388489" lon="34.78827286"><ele>481.0</ele><time>2013-11-20T13:36:39.0000000+00:00</time></trkpt><trkpt lat="30.90379334" lon="34.78909302"><ele>485.3</ele><time>2013-11-20T13:36:59.0000000+00:00</time></trkpt><trkpt lat="30.90389061" lon="34.78946686"><ele>483.4</ele><time>2013-11-20T13:37:09.0000000+00:00</time></trkpt><trkpt lat="30.90358543" lon="34.79069138"><ele>483.9</ele><time>2013-11-20T13:37:44.0000000+00:00</time></trkpt><trkpt lat="30.90446091" lon="34.79133606"><ele>487.1</ele><time>2013-11-20T13:38:14.0000000+00:00</time></trkpt><trkpt lat="30.90506935" lon="34.79232025"><ele>486.3</ele><time>2013-11-20T13:38:44.0000000+00:00</time></trkpt><trkpt lat="30.90486336" lon="34.79327774"><ele>488.0</ele><time>2013-11-20T13:39:19.0000000+00:00</time></trkpt><trkpt lat="30.90499306" lon="34.79374313"><ele>489.3</ele><time>2013-11-20T13:39:49.0000000+00:00</time></trkpt><trkpt lat="30.90469742" lon="34.79405975"><ele>492.6</ele><time>2013-11-20T13:40:59.0000000+00:00</time></trkpt><trkpt lat="30.90488815" lon="34.79499435"><ele>493.7</ele><time>2013-11-20T13:41:24.0000000+00:00</time></trkpt><trkpt lat="30.90480042" lon="34.79557037"><ele>494.7</ele><time>2013-11-20T13:41:39.0000000+00:00</time></trkpt><trkpt lat="30.90468597" lon="34.79575729"><ele>494.8</ele><time>2013-11-20T13:41:49.0000000+00:00</time></trkpt><trkpt lat="30.90386009" lon="34.79588318"><ele>497.2</ele><time>2013-11-20T13:42:24.0000000+00:00</time></trkpt><trkpt lat="30.90249062" lon="34.7955246"><ele>500.1</ele><time>2013-11-20T13:43:24.0000000+00:00</time></trkpt><trkpt lat="30.90174294" lon="34.79585648"><ele>503.1</ele><time>2013-11-20T13:43:49.0000000+00:00</time></trkpt><trkpt lat="30.90150642" lon="34.79608154"><ele>504.6</ele><time>2013-11-20T13:43:59.0000000+00:00</time></trkpt><trkpt lat="30.90109634" lon="34.79737091"><ele>504.9</ele><time>2013-11-20T13:44:34.0000000+00:00</time></trkpt><trkpt lat="30.9007473" lon="34.79781342"><ele>506.4</ele><time>2013-11-20T13:44:49.0000000+00:00</time></trkpt><trkpt lat="30.90030861" lon="34.798069"><ele>507.6</ele><time>2013-11-20T13:45:04.0000000+00:00</time></trkpt><trkpt lat="30.90007401" lon="34.7985611"><ele>508.9</ele><time>2013-11-20T13:45:24.0000000+00:00</time></trkpt><trkpt lat="30.89879799" lon="34.79823303"><ele>512.0</ele><time>2013-11-20T13:46:04.0000000+00:00</time></trkpt><trkpt lat="30.89801788" lon="34.79888916"><ele>513.9</ele><time>2013-11-20T13:46:39.0000000+00:00</time></trkpt><trkpt lat="30.89683914" lon="34.79903412"><ele>516.8</ele><time>2013-11-20T13:47:24.0000000+00:00</time></trkpt><trkpt lat="30.89672852" lon="34.79936981"><ele>518.4</ele><time>2013-11-20T13:47:34.0000000+00:00</time></trkpt><trkpt lat="30.89587212" lon="34.80006027"><ele>522.9</ele><time>2013-11-20T13:48:09.0000000+00:00</time></trkpt><trkpt lat="30.89585686" lon="34.80077362"><ele>521.4</ele><time>2013-11-20T13:48:29.0000000+00:00</time></trkpt><trkpt lat="30.89599419" lon="34.8010788"><ele>523.6</ele><time>2013-11-20T13:48:44.0000000+00:00</time></trkpt><trkpt lat="30.8958149" lon="34.80117416"><ele>525.1</ele><time>2013-11-20T13:48:54.0000000+00:00</time></trkpt><trkpt lat="30.89459801" lon="34.80089569"><ele>524.4</ele><time>2013-11-20T13:49:34.0000000+00:00</time></trkpt><trkpt lat="30.89405441" lon="34.80116272"><ele>528.2</ele><time>2013-11-20T13:50:24.0000000+00:00</time></trkpt><trkpt lat="30.89342308" lon="34.80112457"><ele>535.4</ele><time>2013-11-20T13:51:39.0000000+00:00</time></trkpt><trkpt lat="30.8926506" lon="34.80143738"><ele>535.1</ele><time>2013-11-20T13:53:19.0000000+00:00</time></trkpt><trkpt lat="30.89060783" lon="34.80148315"><ele>515.8</ele><time>2013-11-20T13:54:39.0000000+00:00</time></trkpt><trkpt lat="30.89009476" lon="34.80134964"><ele>512.5</ele><time>2013-11-20T13:54:49.0000000+00:00</time></trkpt><trkpt lat="30.88858604" lon="34.80163193"><ele>496.2</ele><time>2013-11-20T13:55:54.0000000+00:00</time></trkpt><trkpt lat="30.8882103" lon="34.80144119"><ele>494.3</ele><time>2013-11-20T13:56:09.0000000+00:00</time></trkpt><trkpt lat="30.88775635" lon="34.80185318"><ele>492.2</ele><time>2013-11-20T13:59:24.0000000+00:00</time></trkpt><trkpt lat="30.88754273" lon="34.7991066"><ele>488.2</ele><time>2013-11-20T14:01:34.0000000+00:00</time></trkpt><trkpt lat="30.88719368" lon="34.79762268"><ele>487.3</ele><time>2013-11-20T14:02:09.0000000+00:00</time></trkpt><trkpt lat="30.88591957" lon="34.79553223"><ele>486.8</ele><time>2013-11-20T14:03:09.0000000+00:00</time></trkpt><trkpt lat="30.88581085" lon="34.7951088"><ele>487.2</ele><time>2013-11-20T14:03:24.0000000+00:00</time></trkpt><trkpt lat="30.88549805" lon="34.79474258"><ele>487.3</ele><time>2013-11-20T14:03:39.0000000+00:00</time></trkpt><trkpt lat="30.8848896" lon="34.79440689"><ele>488.3</ele><time>2013-11-20T14:03:59.0000000+00:00</time></trkpt><trkpt lat="30.8814373" lon="34.79325867"><ele>477.8</ele><time>2013-11-20T14:04:54.0000000+00:00</time></trkpt><trkpt lat="30.88022614" lon="34.79239273"><ele>476.0</ele><time>2013-11-20T14:05:34.0000000+00:00</time></trkpt><trkpt lat="30.87968254" lon="34.79332733"><ele>472.4</ele><time>2013-11-20T14:06:09.0000000+00:00</time></trkpt><trkpt lat="30.87903214" lon="34.79370499"><ele>472.4</ele><time>2013-11-20T14:06:19.0000000+00:00</time></trkpt><trkpt lat="30.87734032" lon="34.79409409"><ele>474.7</ele><time>2013-11-20T14:06:49.0000000+00:00</time></trkpt><trkpt lat="30.87618256" lon="34.79401016"><ele>472.5</ele><time>2013-11-20T14:07:09.0000000+00:00</time></trkpt><trkpt lat="30.87447548" lon="34.79424286"><ele>474.0</ele><time>2013-11-20T14:07:49.0000000+00:00</time></trkpt><trkpt lat="30.87441826" lon="34.79476166"><ele>474.3</ele><time>2013-11-20T14:08:04.0000000+00:00</time></trkpt><trkpt lat="30.87178993" lon="34.79526901"><ele>473.2</ele><time>2013-11-20T14:09:09.0000000+00:00</time></trkpt><trkpt lat="30.87165451" lon="34.79512787"><ele>473.1</ele><time>2013-11-20T14:09:14.0000000+00:00</time></trkpt><trkpt lat="30.87174988" lon="34.79049301"><ele>469.1</ele><time>2013-11-20T14:10:39.0000000+00:00</time></trkpt><trkpt lat="30.87147331" lon="34.78995514"><ele>468.7</ele><time>2013-11-20T14:10:54.0000000+00:00</time></trkpt><trkpt lat="30.87191773" lon="34.79008102"><ele>469.4</ele><time>2013-11-20T14:11:14.0000000+00:00</time></trkpt><trkpt lat="30.87264061" lon="34.78952789"><ele>469.9</ele><time>2013-11-20T14:11:39.0000000+00:00</time></trkpt><trkpt lat="30.87295723" lon="34.78977585"><ele>470.5</ele><time>2013-11-20T14:11:54.0000000+00:00</time></trkpt><trkpt lat="30.87339592" lon="34.78977585"><ele>472.8</ele><time>2013-11-20T14:12:19.0000000+00:00</time></trkpt><trkpt lat="30.87334251" lon="34.79039002"><ele>474.1</ele><time>2013-11-20T14:12:54.0000000+00:00</time></trkpt><trkpt lat="30.87339401" lon="34.78960419"><ele>472.4</ele><time>2013-11-20T14:13:39.0000000+00:00</time></trkpt><trkpt lat="30.87354469" lon="34.78937912"><ele>471.8</ele><time>2013-11-20T14:13:54.0000000+00:00</time></trkpt><trkpt lat="30.87408638" lon="34.78934479"><ele>471.5</ele><time>2013-11-20T14:14:39.0000000+00:00</time></trkpt><trkpt lat="30.87397766" lon="34.78934097"><ele>471.7</ele><time>2013-11-20T14:14:49.0000000+00:00</time></trkpt><trkpt lat="30.87395859" lon="34.78907394"><ele>470.8</ele><time>2013-11-20T14:15:04.0000000+00:00</time></trkpt><trkpt lat="30.87411881" lon="34.78894043"><ele>470.8</ele><time>2013-11-20T14:15:19.0000000+00:00</time></trkpt><trkpt lat="30.87429619" lon="34.78822708"><ele>469.9</ele><time>2013-11-20T14:15:39.0000000+00:00</time></trkpt><trkpt lat="30.87415314" lon="34.78816986"><ele>469.7</ele><time>2013-11-20T14:15:44.0000000+00:00</time></trkpt><trkpt lat="30.87409592" lon="34.78890991"><ele>470.7</ele><time>2013-11-20T14:15:59.0000000+00:00</time></trkpt><trkpt lat="30.87364197" lon="34.78897858"><ele>470.2</ele><time>2013-11-20T14:16:09.0000000+00:00</time></trkpt><trkpt lat="30.87341118" lon="34.78890228"><ele>469.6</ele><time>2013-11-20T14:16:14.0000000+00:00</time></trkpt><trkpt lat="30.87332916" lon="34.78869247"><ele>468.9</ele><time>2013-11-20T14:16:19.0000000+00:00</time></trkpt><trkpt lat="30.87522888" lon="34.78682709"><ele>466.5</ele><time>2013-11-20T14:17:09.0000000+00:00</time></trkpt><trkpt lat="30.87506676" lon="34.78635407"><ele>466.2</ele><time>2013-11-20T14:17:34.0000000+00:00</time></trkpt><trkpt lat="30.87087441" lon="34.78195953"><ele>473.9</ele><time>2013-11-20T14:19:34.0000000+00:00</time></trkpt><trkpt lat="30.86944771" lon="34.78068924"><ele>475.3</ele><time>2013-11-20T14:20:09.0000000+00:00</time></trkpt><trkpt lat="30.85768127" lon="34.77288055"><ele>487.9</ele><time>2013-11-20T14:24:19.0000000+00:00</time></trkpt><trkpt lat="30.85461807" lon="34.77060318"><ele>489.5</ele><time>2013-11-20T14:25:34.0000000+00:00</time></trkpt><trkpt lat="30.85420609" lon="34.77047348"><ele>490.0</ele><time>2013-11-20T14:25:44.0000000+00:00</time></trkpt><trkpt lat="30.8530159" lon="34.7747345"><ele>481.2</ele><time>2013-11-20T14:26:44.0000000+00:00</time></trkpt><trkpt lat="30.85025406" lon="34.77897263"><ele>479.3</ele><time>2013-11-20T14:28:04.0000000+00:00</time></trkpt><trkpt lat="30.84986305" lon="34.77986527"><ele>480.6</ele><time>2013-11-20T14:28:24.0000000+00:00</time></trkpt><trkpt lat="30.85033608" lon="34.78258133"><ele>478.0</ele><time>2013-11-20T14:29:19.0000000+00:00</time></trkpt><trkpt lat="30.85063744" lon="34.78348923"><ele>477.9</ele><time>2013-11-20T14:31:34.0000000+00:00</time></trkpt><trkpt lat="30.85124779" lon="34.78323364"><ele>477.7</ele><time>2013-11-20T14:32:44.0000000+00:00</time></trkpt><trkpt lat="30.85116768" lon="34.78245926"><ele>478.0</ele><time>2013-11-20T14:33:09.0000000+00:00</time></trkpt><trkpt lat="30.85177803" lon="34.78223038"><ele>477.6</ele><time>2013-11-20T14:33:44.0000000+00:00</time></trkpt><trkpt lat="30.85195351" lon="34.78238297"><ele>477.8</ele><time>2013-11-20T14:34:04.0000000+00:00</time></trkpt><trkpt lat="30.85274124" lon="34.78202438"><ele>478.8</ele><time>2013-11-20T14:34:29.0000000+00:00</time></trkpt><trkpt lat="30.85264969" lon="34.78119278"><ele>477.9</ele><time>2013-11-20T14:34:54.0000000+00:00</time></trkpt><trkpt lat="30.85241127" lon="34.7805748"><ele>478.1</ele><time>2013-11-20T14:35:29.0000000+00:00</time></trkpt><trkpt lat="30.85266495" lon="34.78121185"><ele>477.9</ele><time>2013-11-20T14:35:54.0000000+00:00</time></trkpt><trkpt lat="30.85301209" lon="34.78125382"><ele>479.1</ele><time>2013-11-20T14:36:09.0000000+00:00</time></trkpt><trkpt lat="30.85307884" lon="34.78153229"><ele>479.4</ele><time>2013-11-20T14:36:24.0000000+00:00</time></trkpt><trkpt lat="30.85333252" lon="34.78142166"><ele>479.0</ele><time>2013-11-20T14:36:39.0000000+00:00</time></trkpt><trkpt lat="30.85343361" lon="34.78155518"><ele>478.7</ele><time>2013-11-20T14:37:39.0000000+00:00</time></trkpt></trkseg><trkseg><trkpt lat="30.85342217" lon="34.78193283"><ele>479.2</ele><time>2013-11-21T06:20:57.0000000+00:00</time></trkpt><trkpt lat="30.85351372" lon="34.78144836"><ele>478.7</ele><time>2013-11-21T06:25:47.0000000+00:00</time></trkpt><trkpt lat="30.85319328" lon="34.7813797"><ele>479.4</ele><time>2013-11-21T06:28:07.0000000+00:00</time></trkpt><trkpt lat="30.8531723" lon="34.78169632"><ele>479.4</ele><time>2013-11-21T06:28:22.0000000+00:00</time></trkpt><trkpt lat="30.85294151" lon="34.78186798"><ele>479.1</ele><time>2013-11-21T06:28:47.0000000+00:00</time></trkpt><trkpt lat="30.85186768" lon="34.7820549"><ele>478.3</ele><time>2013-11-21T06:29:17.0000000+00:00</time></trkpt><trkpt lat="30.85047722" lon="34.782547"><ele>478.1</ele><time>2013-11-21T06:30:12.0000000+00:00</time></trkpt><trkpt lat="30.85101509" lon="34.78261185"><ele>478.4</ele><time>2013-11-21T06:30:52.0000000+00:00</time></trkpt><trkpt lat="30.85211372" lon="34.78249741"><ele>478.4</ele><time>2013-11-21T06:31:42.0000000+00:00</time></trkpt><trkpt lat="30.85259819" lon="34.78228378"><ele>478.8</ele><time>2013-11-21T06:31:52.0000000+00:00</time></trkpt><trkpt lat="30.85269547" lon="34.78237915"><ele>478.9</ele><time>2013-11-21T06:32:02.0000000+00:00</time></trkpt><trkpt lat="30.85271072" lon="34.78209686"><ele>478.8</ele><time>2013-11-21T06:32:27.0000000+00:00</time></trkpt><trkpt lat="30.85285759" lon="34.78202438"><ele>479.2</ele><time>2013-11-21T06:32:57.0000000+00:00</time></trkpt><trkpt lat="30.85246849" lon="34.78196716"><ele>478.7</ele><time>2013-11-21T06:33:22.0000000+00:00</time></trkpt><trkpt lat="30.84971428" lon="34.78263474"><ele>476.4</ele><time>2013-11-21T06:34:27.0000000+00:00</time></trkpt><trkpt lat="30.84936142" lon="34.7825737"><ele>476.6</ele><time>2013-11-21T06:34:37.0000000+00:00</time></trkpt><trkpt lat="30.84929848" lon="34.78218079"><ele>478.7</ele><time>2013-11-21T06:35:17.0000000+00:00</time></trkpt><trkpt lat="30.84897232" lon="34.78202057"><ele>477.9</ele><time>2013-11-21T06:35:47.0000000+00:00</time></trkpt><trkpt lat="30.84931374" lon="34.78136444"><ele>480.1</ele><time>2013-11-21T06:36:07.0000000+00:00</time></trkpt><trkpt lat="30.84943962" lon="34.78060913"><ele>480.7</ele><time>2013-11-21T06:36:52.0000000+00:00</time></trkpt><trkpt lat="30.84997749" lon="34.77996826"><ele>480.0</ele><time>2013-11-21T06:37:27.0000000+00:00</time></trkpt><trkpt lat="30.84992218" lon="34.77945328"><ele>481.2</ele><time>2013-11-21T06:37:57.0000000+00:00</time></trkpt><trkpt lat="30.85007286" lon="34.77904511"><ele>479.5</ele><time>2013-11-21T06:38:22.0000000+00:00</time></trkpt><trkpt lat="30.84922409" lon="34.77866745"><ele>477.3</ele><time>2013-11-21T06:39:07.0000000+00:00</time></trkpt><trkpt lat="30.84886169" lon="34.77877045"><ele>473.3</ele><time>2013-11-21T06:39:22.0000000+00:00</time></trkpt><trkpt lat="30.84738541" lon="34.78036118"><ele>455.7</ele><time>2013-11-21T06:40:27.0000000+00:00</time></trkpt><trkpt lat="30.84751129" lon="34.78187943"><ele>459.9</ele><time>2013-11-21T06:40:52.0000000+00:00</time></trkpt><trkpt lat="30.84746742" lon="34.78219223"><ele>457.5</ele><time>2013-11-21T06:40:57.0000000+00:00</time></trkpt><trkpt lat="30.84722328" lon="34.78233719"><ele>453.5</ele><time>2013-11-21T06:41:02.0000000+00:00</time></trkpt><trkpt lat="30.84703064" lon="34.78214264"><ele>452.2</ele><time>2013-11-21T06:41:07.0000000+00:00</time></trkpt><trkpt lat="30.846735" lon="34.78038406"><ele>439.5</ele><time>2013-11-21T06:41:42.0000000+00:00</time></trkpt><trkpt lat="30.84658432" lon="34.7803421"><ele>438.3</ele><time>2013-11-21T06:43:02.0000000+00:00</time></trkpt><trkpt lat="30.84661675" lon="34.78152084"><ele>439.1</ele><time>2013-11-21T06:43:22.0000000+00:00</time></trkpt><trkpt lat="30.84633637" lon="34.78178787"><ele>432.5</ele><time>2013-11-21T06:43:27.0000000+00:00</time></trkpt><trkpt lat="30.84578896" lon="34.78141022"><ele>421.8</ele><time>2013-11-21T06:43:47.0000000+00:00</time></trkpt><trkpt lat="30.84572601" lon="34.78064346"><ele>416.1</ele><time>2013-11-21T06:43:57.0000000+00:00</time></trkpt><trkpt lat="30.84550858" lon="34.78034592"><ele>407.0</ele><time>2013-11-21T06:44:02.0000000+00:00</time></trkpt><trkpt lat="30.8452549" lon="34.7806015"><ele>402.2</ele><time>2013-11-21T06:44:07.0000000+00:00</time></trkpt><trkpt lat="30.84532547" lon="34.78113174"><ele>402.4</ele><time>2013-11-21T06:44:12.0000000+00:00</time></trkpt><trkpt lat="30.84512901" lon="34.78147507"><ele>395.3</ele><time>2013-11-21T06:44:17.0000000+00:00</time></trkpt><trkpt lat="30.84489059" lon="34.78115082"><ele>386.8</ele><time>2013-11-21T06:44:22.0000000+00:00</time></trkpt><trkpt lat="30.8445549" lon="34.77985382"><ele>377.5</ele><time>2013-11-21T06:44:32.0000000+00:00</time></trkpt><trkpt lat="30.84416771" lon="34.77936935"><ele>370.2</ele><time>2013-11-21T06:44:37.0000000+00:00</time></trkpt><trkpt lat="30.84276199" lon="34.77885056"><ele>364.0</ele><time>2013-11-21T06:45:32.0000000+00:00</time></trkpt><trkpt lat="30.84335327" lon="34.78074265"><ele>363.1</ele><time>2013-11-21T06:47:52.0000000+00:00</time></trkpt><trkpt lat="30.84367371" lon="34.784935"><ele>358.3</ele><time>2013-11-21T06:51:47.0000000+00:00</time></trkpt><trkpt lat="30.84281158" lon="34.78705978"><ele>359.9</ele><time>2013-11-21T06:53:07.0000000+00:00</time></trkpt><trkpt lat="30.84198952" lon="34.78718567"><ele>364.1</ele><time>2013-11-21T06:53:42.0000000+00:00</time></trkpt><trkpt lat="30.84175873" lon="34.78749085"><ele>364.1</ele><time>2013-11-21T06:53:57.0000000+00:00</time></trkpt><trkpt lat="30.84182358" lon="34.78909683"><ele>359.1</ele><time>2013-11-21T06:54:32.0000000+00:00</time></trkpt><trkpt lat="30.84161758" lon="34.79073715"><ele>352.9</ele><time>2013-11-21T06:54:57.0000000+00:00</time></trkpt><trkpt lat="30.84192276" lon="34.7923317"><ele>349.2</ele><time>2013-11-21T06:55:27.0000000+00:00</time></trkpt><trkpt lat="30.84164047" lon="34.79265595"><ele>347.1</ele><time>2013-11-21T06:55:37.0000000+00:00</time></trkpt><trkpt lat="30.84155655" lon="34.793293"><ele>347.0</ele><time>2013-11-21T06:56:17.0000000+00:00</time></trkpt><trkpt lat="30.84107971" lon="34.7935791"><ele>346.6</ele><time>2013-11-21T06:56:37.0000000+00:00</time></trkpt><trkpt lat="30.84078598" lon="34.79398727"><ele>345.9</ele><time>2013-11-21T06:56:52.0000000+00:00</time></trkpt><trkpt lat="30.84057045" lon="34.79471588"><ele>345.0</ele><time>2013-11-21T06:57:12.0000000+00:00</time></trkpt><trkpt lat="30.84056664" lon="34.79568863"><ele>343.8</ele><time>2013-11-21T06:57:37.0000000+00:00</time></trkpt><trkpt lat="30.84092712" lon="34.7964592"><ele>343.4</ele><time>2013-11-21T06:57:57.0000000+00:00</time></trkpt><trkpt lat="30.84133339" lon="34.79695511"><ele>343.1</ele><time>2013-11-21T06:58:12.0000000+00:00</time></trkpt><trkpt lat="30.8420372" lon="34.79708099"><ele>341.3</ele><time>2013-11-21T06:58:32.0000000+00:00</time></trkpt><trkpt lat="30.84280586" lon="34.79797363"><ele>341.2</ele><time>2013-11-21T06:59:27.0000000+00:00</time></trkpt><trkpt lat="30.84265328" lon="34.79954529"><ele>343.1</ele><time>2013-11-21T07:00:12.0000000+00:00</time></trkpt><trkpt lat="30.84211159" lon="34.80128861"><ele>340.8</ele><time>2013-11-21T07:00:52.0000000+00:00</time></trkpt><trkpt lat="30.84162521" lon="34.80146408"><ele>339.2</ele><time>2013-11-21T07:01:07.0000000+00:00</time></trkpt><trkpt lat="30.84137917" lon="34.8024559"><ele>330.5</ele><time>2013-11-21T07:02:02.0000000+00:00</time></trkpt><trkpt lat="30.83944321" lon="34.8044281"><ele>327.7</ele><time>2013-11-21T07:03:27.0000000+00:00</time></trkpt><trkpt lat="30.83842278" lon="34.80636215"><ele>326.6</ele><time>2013-11-21T07:04:22.0000000+00:00</time></trkpt><trkpt lat="30.83856773" lon="34.80739975"><ele>325.9</ele><time>2013-11-21T07:04:47.0000000+00:00</time></trkpt><trkpt lat="30.83891106" lon="34.80812836"><ele>325.2</ele><time>2013-11-21T07:05:07.0000000+00:00</time></trkpt><trkpt lat="30.83911705" lon="34.80916977"><ele>325.6</ele><time>2013-11-21T07:05:42.0000000+00:00</time></trkpt><trkpt lat="30.8389988" lon="34.81031799"><ele>324.1</ele><time>2013-11-21T07:06:12.0000000+00:00</time></trkpt><trkpt lat="30.83847237" lon="34.81023407"><ele>324.8</ele><time>2013-11-21T07:06:32.0000000+00:00</time></trkpt><trkpt lat="30.83642006" lon="34.8106842"><ele>327.5</ele><time>2013-11-21T07:07:32.0000000+00:00</time></trkpt><trkpt lat="30.8358593" lon="34.81143951"><ele>332.8</ele><time>2013-11-21T07:08:07.0000000+00:00</time></trkpt><trkpt lat="30.83616638" lon="34.81158066"><ele>332.9</ele><time>2013-11-21T07:08:37.0000000+00:00</time></trkpt><trkpt lat="30.8366909" lon="34.81128311"><ele>334.6</ele><time>2013-11-21T07:09:07.0000000+00:00</time></trkpt><trkpt lat="30.83703613" lon="34.81132126"><ele>335.4</ele><time>2013-11-21T07:09:17.0000000+00:00</time></trkpt><trkpt lat="30.83858872" lon="34.81210709"><ele>334.5</ele><time>2013-11-21T07:10:22.0000000+00:00</time></trkpt><trkpt lat="30.83936501" lon="34.81336975"><ele>331.1</ele><time>2013-11-21T07:10:57.0000000+00:00</time></trkpt><trkpt lat="30.84187126" lon="34.81643295"><ele>325.1</ele><time>2013-11-21T07:12:22.0000000+00:00</time></trkpt><trkpt lat="30.84255028" lon="34.81768036"><ele>324.7</ele><time>2013-11-21T07:12:57.0000000+00:00</time></trkpt><trkpt lat="30.84300232" lon="34.81814575"><ele>323.1</ele><time>2013-11-21T07:13:12.0000000+00:00</time></trkpt><trkpt lat="30.84337425" lon="34.81949997"><ele>321.3</ele><time>2013-11-21T07:13:42.0000000+00:00</time></trkpt><trkpt lat="30.84372711" lon="34.81987763"><ele>320.1</ele><time>2013-11-21T07:13:57.0000000+00:00</time></trkpt><trkpt lat="30.84381104" lon="34.82096863"><ele>320.0</ele><time>2013-11-21T07:14:17.0000000+00:00</time></trkpt><trkpt lat="30.8441906" lon="34.82226181"><ele>320.0</ele><time>2013-11-21T07:14:47.0000000+00:00</time></trkpt><trkpt lat="30.84419441" lon="34.82285309"><ele>322.8</ele><time>2013-11-21T07:15:02.0000000+00:00</time></trkpt><trkpt lat="30.84438324" lon="34.82319641"><ele>323.3</ele><time>2013-11-21T07:16:42.0000000+00:00</time></trkpt><trkpt lat="30.84736252" lon="34.81953049"><ele>319.9</ele><time>2013-11-21T07:20:02.0000000+00:00</time></trkpt><trkpt lat="30.84863854" lon="34.81998062"><ele>324.1</ele><time>2013-11-21T07:22:12.0000000+00:00</time></trkpt><trkpt lat="30.84964562" lon="34.81955338"><ele>326.3</ele><time>2013-11-21T07:23:32.0000000+00:00</time></trkpt><trkpt lat="30.8503952" lon="34.81990814"><ele>329.7</ele><time>2013-11-21T07:24:07.0000000+00:00</time></trkpt><trkpt lat="30.85051346" lon="34.81939316"><ele>328.0</ele><time>2013-11-21T07:24:47.0000000+00:00</time></trkpt><trkpt lat="30.85086441" lon="34.81901932"><ele>329.8</ele><time>2013-11-21T07:25:37.0000000+00:00</time></trkpt><trkpt lat="30.85281563" lon="34.81819534"><ele>341.3</ele><time>2013-11-21T07:28:37.0000000+00:00</time></trkpt><trkpt lat="30.85342789" lon="34.81825256"><ele>343.6</ele><time>2013-11-21T07:29:32.0000000+00:00</time></trkpt><trkpt lat="30.85416603" lon="34.81884766"><ele>348.2</ele><time>2013-11-21T07:30:42.0000000+00:00</time></trkpt><trkpt lat="30.85481644" lon="34.8206749"><ele>355.8</ele><time>2013-11-21T07:32:32.0000000+00:00</time></trkpt><trkpt lat="30.85485649" lon="34.82223129"><ele>365.1</ele><time>2013-11-21T07:34:27.0000000+00:00</time></trkpt><trkpt lat="30.85515213" lon="34.82342529"><ele>390.8</ele><time>2013-11-21T07:36:37.0000000+00:00</time></trkpt><trkpt lat="30.85532379" lon="34.82341766"><ele>390.6</ele><time>2013-11-21T07:37:07.0000000+00:00</time></trkpt><trkpt lat="30.85532761" lon="34.82367706"><ele>396.7</ele><time>2013-11-21T07:37:47.0000000+00:00</time></trkpt><trkpt lat="30.85586548" lon="34.82381821"><ele>410.4</ele><time>2013-11-21T07:39:47.0000000+00:00</time></trkpt><trkpt lat="30.85596275" lon="34.82413101"><ele>424.0</ele><time>2013-11-21T07:42:17.0000000+00:00</time></trkpt><trkpt lat="30.85628319" lon="34.82435608"><ele>427.5</ele><time>2013-11-21T07:43:07.0000000+00:00</time></trkpt><trkpt lat="30.85661316" lon="34.82329559"><ele>422.3</ele><time>2013-11-21T07:45:27.0000000+00:00</time></trkpt><trkpt lat="30.85717583" lon="34.82273102"><ele>435.4</ele><time>2013-11-21T07:46:52.0000000+00:00</time></trkpt><trkpt lat="30.85704422" lon="34.82238007"><ele>422.9</ele><time>2013-11-21T07:48:02.0000000+00:00</time></trkpt><trkpt lat="30.85722351" lon="34.82312012"><ele>443.8</ele><time>2013-11-21T07:50:07.0000000+00:00</time></trkpt><trkpt lat="30.85806274" lon="34.82368088"><ele>444.6</ele><time>2013-11-21T07:51:17.0000000+00:00</time></trkpt><trkpt lat="30.8582592" lon="34.82428742"><ele>449.9</ele><time>2013-11-21T07:51:57.0000000+00:00</time></trkpt><trkpt lat="30.85907745" lon="34.82397842"><ele>453.0</ele><time>2013-11-21T07:53:07.0000000+00:00</time></trkpt><trkpt lat="30.85948944" lon="34.82410812"><ele>453.4</ele><time>2013-11-21T07:53:57.0000000+00:00</time></trkpt><trkpt lat="30.86008072" lon="34.82394791"><ele>457.9</ele><time>2013-11-21T07:54:32.0000000+00:00</time></trkpt><trkpt lat="30.86032105" lon="34.82416916"><ele>460.1</ele><time>2013-11-21T07:55:07.0000000+00:00</time></trkpt><trkpt lat="30.86104775" lon="34.82337952"><ele>465.4</ele><time>2013-11-21T07:57:02.0000000+00:00</time></trkpt><trkpt lat="30.86148453" lon="34.82340241"><ele>474.0</ele><time>2013-11-21T07:57:52.0000000+00:00</time></trkpt><trkpt lat="30.86170006" lon="34.82279587"><ele>476.1</ele><time>2013-11-21T07:59:17.0000000+00:00</time></trkpt><trkpt lat="30.86234283" lon="34.82229233"><ele>488.3</ele><time>2013-11-21T08:01:12.0000000+00:00</time></trkpt><trkpt lat="30.86264229" lon="34.82177353"><ele>491.8</ele><time>2013-11-21T08:02:32.0000000+00:00</time></trkpt><trkpt lat="30.86252976" lon="34.82102203"><ele>507.1</ele><time>2013-11-21T08:05:27.0000000+00:00</time></trkpt><trkpt lat="30.86333084" lon="34.82062531"><ele>514.7</ele><time>2013-11-21T08:07:12.0000000+00:00</time></trkpt><trkpt lat="30.86401177" lon="34.8211937"><ele>532.8</ele><time>2013-11-21T08:08:22.0000000+00:00</time></trkpt><trkpt lat="30.86430359" lon="34.8220253"><ele>543.3</ele><time>2013-11-21T08:10:07.0000000+00:00</time></trkpt><trkpt lat="30.86414528" lon="34.82528305"><ele>532.2</ele><time>2013-11-21T08:14:37.0000000+00:00</time></trkpt><trkpt lat="30.86429405" lon="34.83110046"><ele>532.9</ele><time>2013-11-21T08:18:27.0000000+00:00</time></trkpt><trkpt lat="30.86395073" lon="34.83367539"><ele>546.2</ele><time>2013-11-21T08:21:47.0000000+00:00</time></trkpt><trkpt lat="30.86413384" lon="34.83492661"><ele>544.8</ele><time>2013-11-21T08:22:17.0000000+00:00</time></trkpt><trkpt lat="30.86695862" lon="34.83824921"><ele>561.3</ele><time>2013-11-21T08:27:22.0000000+00:00</time></trkpt><trkpt lat="30.86786079" lon="34.84039307"><ele>567.6</ele><time>2013-11-21T08:29:17.0000000+00:00</time></trkpt><trkpt lat="30.86827278" lon="34.84086609"><ele>573.1</ele><time>2013-11-21T08:29:47.0000000+00:00</time></trkpt><trkpt lat="30.86833191" lon="34.84172821"><ele>570.8</ele><time>2013-11-21T08:30:12.0000000+00:00</time></trkpt><trkpt lat="30.86885643" lon="34.84225464"><ele>577.6</ele><time>2013-11-21T08:30:47.0000000+00:00</time></trkpt><trkpt lat="30.86900902" lon="34.84267807"><ele>576.4</ele><time>2013-11-21T08:31:07.0000000+00:00</time></trkpt><trkpt lat="30.87064934" lon="34.8440094"><ele>573.5</ele><time>2013-11-21T08:32:17.0000000+00:00</time></trkpt><trkpt lat="30.87191582" lon="34.84558106"><ele>550.4</ele><time>2013-11-21T08:34:12.0000000+00:00</time></trkpt><trkpt lat="30.87372589" lon="34.84529114"><ele>546.3</ele><time>2013-11-21T08:35:02.0000000+00:00</time></trkpt><trkpt lat="30.87400627" lon="34.84540558"><ele>545.0</ele><time>2013-11-21T08:35:12.0000000+00:00</time></trkpt><trkpt lat="30.87414169" lon="34.84571838"><ele>545.5</ele><time>2013-11-21T08:35:22.0000000+00:00</time></trkpt><trkpt lat="30.87433243" lon="34.84571075"><ele>544.5</ele><time>2013-11-21T08:35:27.0000000+00:00</time></trkpt><trkpt lat="30.8748169" lon="34.84531021"><ele>543.7</ele><time>2013-11-21T08:35:47.0000000+00:00</time></trkpt><trkpt lat="30.87686539" lon="34.84434128"><ele>539.6</ele><time>2013-11-21T08:36:47.0000000+00:00</time></trkpt><trkpt lat="30.87900925" lon="34.84591675"><ele>548.9</ele><time>2013-11-21T08:39:17.0000000+00:00</time></trkpt><trkpt lat="30.8809185" lon="34.84782028"><ele>549.8</ele><time>2013-11-21T08:41:27.0000000+00:00</time></trkpt><trkpt lat="30.88267899" lon="34.84998703"><ele>560.0</ele><time>2013-11-21T08:44:57.0000000+00:00</time></trkpt><trkpt lat="30.88386917" lon="34.85092163"><ele>564.0</ele><time>2013-11-21T08:46:42.0000000+00:00</time></trkpt><trkpt lat="30.88518906" lon="34.85243607"><ele>569.8</ele><time>2013-11-21T08:47:57.0000000+00:00</time></trkpt><trkpt lat="30.88644028" lon="34.85333252"><ele>570.3</ele><time>2013-11-21T08:48:57.0000000+00:00</time></trkpt><trkpt lat="30.88850212" lon="34.85320664"><ele>555.5</ele><time>2013-11-21T08:51:07.0000000+00:00</time></trkpt><trkpt lat="30.88840675" lon="34.85314179"><ele>557.3</ele><time>2013-11-21T08:51:47.0000000+00:00</time></trkpt><trkpt lat="30.89008904" lon="34.85268021"><ele>538.7</ele><time>2013-11-21T08:53:02.0000000+00:00</time></trkpt><trkpt lat="30.89068604" lon="34.85227966"><ele>537.1</ele><time>2013-11-21T08:53:17.0000000+00:00</time></trkpt><trkpt lat="30.89112091" lon="34.85230255"><ele>535.9</ele><time>2013-11-21T08:53:27.0000000+00:00</time></trkpt><trkpt lat="30.89131928" lon="34.85160446"><ele>538.4</ele><time>2013-11-21T08:54:12.0000000+00:00</time></trkpt><trkpt lat="30.89122391" lon="34.85058212"><ele>538.9</ele><time>2013-11-21T08:54:37.0000000+00:00</time></trkpt><trkpt lat="30.89085579" lon="34.8498497"><ele>537.2</ele><time>2013-11-21T08:54:52.0000000+00:00</time></trkpt><trkpt lat="30.89051628" lon="34.849617"><ele>537.6</ele><time>2013-11-21T08:55:02.0000000+00:00</time></trkpt><trkpt lat="30.89091873" lon="34.84907913"><ele>534.3</ele><time>2013-11-21T08:55:17.0000000+00:00</time></trkpt><trkpt lat="30.89144707" lon="34.84716797"><ele>529.1</ele><time>2013-11-21T08:55:42.0000000+00:00</time></trkpt><trkpt lat="30.89101982" lon="34.84401321"><ele>529.9</ele><time>2013-11-21T08:59:27.0000000+00:00</time></trkpt><trkpt lat="30.89123344" lon="34.84365463"><ele>528.6</ele><time>2013-11-21T08:59:47.0000000+00:00</time></trkpt><trkpt lat="30.89214516" lon="34.84320068"><ele>523.4</ele><time>2013-11-21T09:00:17.0000000+00:00</time></trkpt><trkpt lat="30.89319992" lon="34.84104538"><ele>521.5</ele><time>2013-11-21T09:01:52.0000000+00:00</time></trkpt><trkpt lat="30.89389992" lon="34.84037399"><ele>519.9</ele><time>2013-11-21T09:02:17.0000000+00:00</time></trkpt><trkpt lat="30.89419365" lon="34.84031296"><ele>519.1</ele><time>2013-11-21T09:03:32.0000000+00:00</time></trkpt><trkpt lat="30.89503479" lon="34.83851242"><ele>518.2</ele><time>2013-11-21T09:05:52.0000000+00:00</time></trkpt><trkpt lat="30.8941555" lon="34.8403244"><ele>519.2</ele><time>2013-11-21T09:06:52.0000000+00:00</time></trkpt><trkpt lat="30.89481545" lon="34.8405571"><ele>520.7</ele><time>2013-11-21T09:07:47.0000000+00:00</time></trkpt><trkpt lat="30.89504433" lon="34.84127808"><ele>524.9</ele><time>2013-11-21T09:08:17.0000000+00:00</time></trkpt><trkpt lat="30.8955555" lon="34.84186173"><ele>528.1</ele><time>2013-11-21T09:08:52.0000000+00:00</time></trkpt><trkpt lat="30.89569473" lon="34.84261322"><ele>543.9</ele><time>2013-11-21T09:10:02.0000000+00:00</time></trkpt><trkpt lat="30.89597893" lon="34.84262085"><ele>542.1</ele><time>2013-11-21T09:10:52.0000000+00:00</time></trkpt><trkpt lat="30.89565468" lon="34.84237289"><ele>539.5</ele><time>2013-11-21T09:11:47.0000000+00:00</time></trkpt><trkpt lat="30.89556694" lon="34.84187698"><ele>528.2</ele><time>2013-11-21T09:12:12.0000000+00:00</time></trkpt><trkpt lat="30.89504623" lon="34.84128571"><ele>525.0</ele><time>2013-11-21T09:12:32.0000000+00:00</time></trkpt><trkpt lat="30.89484024" lon="34.84065628"><ele>521.4</ele><time>2013-11-21T09:12:47.0000000+00:00</time></trkpt><trkpt lat="30.89439011" lon="34.84043503"><ele>519.3</ele><time>2013-11-21T09:13:07.0000000+00:00</time></trkpt><trkpt lat="30.89432716" lon="34.84003067"><ele>519.1</ele><time>2013-11-21T09:13:27.0000000+00:00</time></trkpt><trkpt lat="30.89492226" lon="34.83876419"><ele>518.2</ele><time>2013-11-21T09:14:02.0000000+00:00</time></trkpt><trkpt lat="30.89572716" lon="34.83790588"><ele>516.3</ele><time>2013-11-21T09:14:27.0000000+00:00</time></trkpt><trkpt lat="30.89600563" lon="34.8371582"><ele>516.5</ele><time>2013-11-21T09:14:42.0000000+00:00</time></trkpt><trkpt lat="30.89610291" lon="34.83637619"><ele>514.8</ele><time>2013-11-21T09:14:57.0000000+00:00</time></trkpt><trkpt lat="30.89667702" lon="34.83477402"><ele>512.1</ele><time>2013-11-21T09:15:32.0000000+00:00</time></trkpt><trkpt lat="30.89671898" lon="34.83309937"><ele>510.2</ele><time>2013-11-21T09:16:02.0000000+00:00</time></trkpt><trkpt lat="30.89695931" lon="34.83216095"><ele>507.0</ele><time>2013-11-21T09:16:22.0000000+00:00</time></trkpt><trkpt lat="30.89764595" lon="34.83115768"><ele>506.9</ele><time>2013-11-21T09:16:57.0000000+00:00</time></trkpt><trkpt lat="30.89850998" lon="34.82907486"><ele>511.6</ele><time>2013-11-21T09:18:02.0000000+00:00</time></trkpt><trkpt lat="30.89969444" lon="34.82830811"><ele>515.4</ele><time>2013-11-21T09:18:47.0000000+00:00</time></trkpt><trkpt lat="30.89664841" lon="34.82426834"><ele>511.8</ele><time>2013-11-21T09:20:17.0000000+00:00</time></trkpt><trkpt lat="30.89470673" lon="34.82129669"><ele>507.6</ele><time>2013-11-21T09:21:07.0000000+00:00</time></trkpt><trkpt lat="30.89282036" lon="34.81952286"><ele>504.7</ele><time>2013-11-21T09:21:47.0000000+00:00</time></trkpt><trkpt lat="30.89185143" lon="34.81825256"><ele>504.1</ele><time>2013-11-21T09:22:12.0000000+00:00</time></trkpt><trkpt lat="30.89112854" lon="34.81694031"><ele>502.5</ele><time>2013-11-21T09:22:32.0000000+00:00</time></trkpt><trkpt lat="30.8899498" lon="34.812603"><ele>501.1</ele><time>2013-11-21T09:23:37.0000000+00:00</time></trkpt><trkpt lat="30.88867569" lon="34.80862427"><ele>495.2</ele><time>2013-11-21T09:24:37.0000000+00:00</time></trkpt><trkpt lat="30.88771629" lon="34.79866409"><ele>490.2</ele><time>2013-11-21T09:26:57.0000000+00:00</time></trkpt><trkpt lat="30.88751221" lon="34.79778671"><ele>489.1</ele><time>2013-11-21T09:27:12.0000000+00:00</time></trkpt><trkpt lat="30.88671875" lon="34.79614258"><ele>489.3</ele><time>2013-11-21T09:27:42.0000000+00:00</time></trkpt><trkpt lat="30.88573647" lon="34.79491425"><ele>487.5</ele><time>2013-11-21T09:28:07.0000000+00:00</time></trkpt><trkpt lat="30.88532257" lon="34.79460526"><ele>487.9</ele><time>2013-11-21T09:28:17.0000000+00:00</time></trkpt><trkpt lat="30.88187599" lon="34.79342651"><ele>479.4</ele><time>2013-11-21T09:29:12.0000000+00:00</time></trkpt><trkpt lat="30.88014603" lon="34.79232788"><ele>475.9</ele><time>2013-11-21T09:29:42.0000000+00:00</time></trkpt><trkpt lat="30.87738991" lon="34.78964615"><ele>468.8</ele><time>2013-11-21T09:30:32.0000000+00:00</time></trkpt><trkpt lat="30.87468338" lon="34.78575897"><ele>465.1</ele><time>2013-11-21T09:31:32.0000000+00:00</time></trkpt><trkpt lat="30.86977768" lon="34.78078079"><ele>475.9</ele><time>2013-11-21T09:33:47.0000000+00:00</time></trkpt><trkpt lat="30.85617065" lon="34.77172852"><ele>488.1</ele><time>2013-11-21T09:38:52.0000000+00:00</time></trkpt><trkpt lat="30.85452652" lon="34.77029038"><ele>490.6</ele><time>2013-11-21T09:39:32.0000000+00:00</time></trkpt><trkpt lat="30.85430527" lon="34.77054596"><ele>490.0</ele><time>2013-11-21T09:39:47.0000000+00:00</time></trkpt><trkpt lat="30.85346413" lon="34.7742424"><ele>481.6</ele><time>2013-11-21T09:40:37.0000000+00:00</time></trkpt><trkpt lat="30.85301209" lon="34.77522278"><ele>480.2</ele><time>2013-11-21T09:40:52.0000000+00:00</time></trkpt><trkpt lat="30.85053444" lon="34.77881622"><ele>479.6</ele><time>2013-11-21T09:42:12.0000000+00:00</time></trkpt><trkpt lat="30.84969139" lon="34.77903748"><ele>480.6</ele><time>2013-11-21T09:42:42.0000000+00:00</time></trkpt><trkpt lat="30.84914017" lon="34.77958679"><ele>480.5</ele><time>2013-11-21T09:43:02.0000000+00:00</time></trkpt><trkpt lat="30.8488102" lon="34.78028488"><ele>480.2</ele><time>2013-11-21T09:43:27.0000000+00:00</time></trkpt><trkpt lat="30.84892464" lon="34.78086472"><ele>479.1</ele><time>2013-11-21T09:43:42.0000000+00:00</time></trkpt><trkpt lat="30.84838677" lon="34.78139496"><ele>478.1</ele><time>2013-11-21T09:44:07.0000000+00:00</time></trkpt><trkpt lat="30.84822846" lon="34.78232575"><ele>462.4</ele><time>2013-11-21T09:45:07.0000000+00:00</time></trkpt><trkpt lat="30.84886932" lon="34.78251267"><ele>469.7</ele><time>2013-11-21T09:46:07.0000000+00:00</time></trkpt><trkpt lat="30.84925842" lon="34.78282929"><ele>474.7</ele><time>2013-11-21T09:46:22.0000000+00:00</time></trkpt><trkpt lat="30.84986115" lon="34.78276062"><ele>476.5</ele><time>2013-11-21T09:46:42.0000000+00:00</time></trkpt><trkpt lat="30.85275841" lon="34.78202438"><ele>478.9</ele><time>2013-11-21T09:47:57.0000000+00:00</time></trkpt><trkpt lat="30.85274887" lon="34.78131104"><ele>478.5</ele><time>2013-11-21T09:48:17.0000000+00:00</time></trkpt><trkpt lat="30.85340691" lon="34.78149414"><ele>478.8</ele><time>2013-11-21T09:49:22.0000000+00:00</time></trkpt></trkseg><trkseg><trkpt lat="30.85367394" lon="34.78142166"><ele>478.8</ele><time>2013-11-21T10:55:34.0000000+00:00</time></trkpt><trkpt lat="30.85349083" lon="34.78158569"><ele>478.7</ele><time>2013-11-21T10:56:09.0000000+00:00</time></trkpt><trkpt lat="30.8536644" lon="34.78132248"><ele>478.7</ele><time>2013-11-21T10:57:05.0000000+00:00</time></trkpt><trkpt lat="30.85352516" lon="34.78149033"><ele>478.7</ele><time>2013-11-21T10:57:25.0000000+00:00</time></trkpt><trkpt lat="30.85337448" lon="34.78139877"><ele>478.9</ele><time>2013-11-21T10:57:35.0000000+00:00</time></trkpt><trkpt lat="30.85323525" lon="34.78178024"><ele>479.3</ele><time>2013-11-21T11:01:14.0000000+00:00</time></trkpt><trkpt lat="30.85344887" lon="34.78179169"><ele>479.0</ele><time>2013-11-21T11:01:29.0000000+00:00</time></trkpt><trkpt lat="30.85353088" lon="34.78149796"><ele>478.7</ele><time>2013-11-21T11:02:44.0000000+00:00</time></trkpt><trkpt lat="30.85364151" lon="34.78181458"><ele>479.1</ele><time>2013-11-21T11:03:44.0000000+00:00</time></trkpt><trkpt lat="30.8539238" lon="34.78190994"><ele>480.5</ele><time>2013-11-21T11:03:59.0000000+00:00</time></trkpt><trkpt lat="30.85486794" lon="34.78167343"><ele>481.2</ele><time>2013-11-21T11:04:34.0000000+00:00</time></trkpt><trkpt lat="30.85500908" lon="34.78234482"><ele>481.0</ele><time>2013-11-21T11:04:59.0000000+00:00</time></trkpt><trkpt lat="30.85519028" lon="34.78250504"><ele>480.9</ele><time>2013-11-21T11:05:09.0000000+00:00</time></trkpt><trkpt lat="30.85512543" lon="34.78189468"><ele>478.2</ele><time>2013-11-21T11:05:34.0000000+00:00</time></trkpt><trkpt lat="30.85431671" lon="34.78166962"><ele>480.1</ele><time>2013-11-21T11:05:59.0000000+00:00</time></trkpt><trkpt lat="30.85163879" lon="34.78235245"><ele>477.4</ele><time>2013-11-21T11:06:54.0000000+00:00</time></trkpt><trkpt lat="30.85148811" lon="34.78252792"><ele>477.3</ele><time>2013-11-21T11:06:59.0000000+00:00</time></trkpt><trkpt lat="30.85132599" lon="34.78337097"><ele>478.0</ele><time>2013-11-21T11:07:14.0000000+00:00</time></trkpt><trkpt lat="30.85132217" lon="34.78397751"><ele>479.4</ele><time>2013-11-21T11:07:24.0000000+00:00</time></trkpt><trkpt lat="30.85153198" lon="34.78469849"><ele>476.6</ele><time>2013-11-21T11:07:39.0000000+00:00</time></trkpt><trkpt lat="30.85804176" lon="34.78323364"><ele>475.9</ele><time>2013-11-21T11:10:09.0000000+00:00</time></trkpt><trkpt lat="30.8584137" lon="34.78281784"><ele>475.3</ele><time>2013-11-21T11:10:19.0000000+00:00</time></trkpt><trkpt lat="30.85948181" lon="34.78084946"><ele>474.5</ele><time>2013-11-21T11:11:14.0000000+00:00</time></trkpt><trkpt lat="30.86084747" lon="34.7790184"><ele>475.4</ele><time>2013-11-21T11:12:34.0000000+00:00</time></trkpt><trkpt lat="30.86181259" lon="34.77703095"><ele>477.2</ele><time>2013-11-21T11:13:29.0000000+00:00</time></trkpt><trkpt lat="30.8623085" lon="34.77634049"><ele>479.5</ele><time>2013-11-21T11:13:54.0000000+00:00</time></trkpt><trkpt lat="30.85461235" lon="34.77135086"><ele>487.5</ele><time>2013-11-21T11:17:34.0000000+00:00</time></trkpt><trkpt lat="30.8542347" lon="34.77230454"><ele>485.2</ele><time>2013-11-21T11:17:54.0000000+00:00</time></trkpt><trkpt lat="30.85352135" lon="34.77567291"><ele>479.8</ele><time>2013-11-21T11:19:04.0000000+00:00</time></trkpt><trkpt lat="30.85214615" lon="34.77769089"><ele>478.3</ele><time>2013-11-21T11:19:44.0000000+00:00</time></trkpt><trkpt lat="30.85193062" lon="34.7784462"><ele>478.5</ele><time>2013-11-21T11:19:59.0000000+00:00</time></trkpt><trkpt lat="30.85121536" lon="34.77915192"><ele>478.6</ele><time>2013-11-21T11:20:19.0000000+00:00</time></trkpt><trkpt lat="30.85077477" lon="34.7792511"><ele>479.1</ele><time>2013-11-21T11:20:29.0000000+00:00</time></trkpt><trkpt lat="30.85058403" lon="34.77913284"><ele>479.4</ele><time>2013-11-21T11:20:34.0000000+00:00</time></trkpt><trkpt lat="30.85333252" lon="34.7746315"><ele>481.1</ele><time>2013-11-21T11:22:14.0000000+00:00</time></trkpt><trkpt lat="30.85447121" lon="34.77033615"><ele>490.4</ele><time>2013-11-21T11:24:09.0000000+00:00</time></trkpt><trkpt lat="30.85074425" lon="34.76758957"><ele>489.3</ele><time>2013-11-21T11:25:49.0000000+00:00</time></trkpt><trkpt lat="30.84999275" lon="34.76643372"><ele>491.0</ele><time>2013-11-21T11:26:14.0000000+00:00</time></trkpt><trkpt lat="30.84911346" lon="34.76436234"><ele>496.8</ele><time>2013-11-21T11:26:59.0000000+00:00</time></trkpt><trkpt lat="30.84794617" lon="34.76040649"><ele>503.3</ele><time>2013-11-21T11:28:24.0000000+00:00</time></trkpt><trkpt lat="30.84808922" lon="34.75945664"><ele>509.2</ele><time>2013-11-21T11:28:44.0000000+00:00</time></trkpt><trkpt lat="30.84856224" lon="34.75859833"><ele>514.5</ele><time>2013-11-21T11:29:14.0000000+00:00</time></trkpt><trkpt lat="30.84899521" lon="34.757164"><ele>511.6</ele><time>2013-11-21T11:29:44.0000000+00:00</time></trkpt><trkpt lat="30.84919739" lon="34.75558472"><ele>510.0</ele><time>2013-11-21T11:30:09.0000000+00:00</time></trkpt><trkpt lat="30.84911156" lon="34.75466919"><ele>506.2</ele><time>2013-11-21T11:30:24.0000000+00:00</time></trkpt><trkpt lat="30.84874725" lon="34.75370407"><ele>502.7</ele><time>2013-11-21T11:30:39.0000000+00:00</time></trkpt><trkpt lat="30.84786606" lon="34.7525444"><ele>502.5</ele><time>2013-11-21T11:31:14.0000000+00:00</time></trkpt><trkpt lat="30.84738922" lon="34.75150299"><ele>503.0</ele><time>2013-11-21T11:31:34.0000000+00:00</time></trkpt><trkpt lat="30.84728432" lon="34.74921799"><ele>494.9</ele><time>2013-11-21T11:32:09.0000000+00:00</time></trkpt><trkpt lat="30.84676361" lon="34.74751663"><ele>494.0</ele><time>2013-11-21T11:32:34.0000000+00:00</time></trkpt><trkpt lat="30.8451519" lon="34.74466705"><ele>486.3</ele><time>2013-11-21T11:33:24.0000000+00:00</time></trkpt><trkpt lat="30.8445816" lon="34.74402237"><ele>481.7</ele><time>2013-11-21T11:33:34.0000000+00:00</time></trkpt><trkpt lat="30.84386826" lon="34.74352264"><ele>479.7</ele><time>2013-11-21T11:33:44.0000000+00:00</time></trkpt><trkpt lat="30.83439064" lon="34.73923111"><ele>502.0</ele><time>2013-11-21T11:37:54.0000000+00:00</time></trkpt><trkpt lat="30.83316994" lon="34.73890686"><ele>505.1</ele><time>2013-11-21T11:38:39.0000000+00:00</time></trkpt><trkpt lat="30.83235931" lon="34.73898697"><ele>508.3</ele><time>2013-11-21T11:39:14.0000000+00:00</time></trkpt><trkpt lat="30.8312645" lon="34.73962021"><ele>515.9</ele><time>2013-11-21T11:40:09.0000000+00:00</time></trkpt><trkpt lat="30.83010674" lon="34.74082947"><ele>522.5</ele><time>2013-11-21T11:41:29.0000000+00:00</time></trkpt><trkpt lat="30.8281002" lon="34.74585342"><ele>535.5</ele><time>2013-11-21T11:45:09.0000000+00:00</time></trkpt><trkpt lat="30.82696915" lon="34.74766922"><ele>533.8</ele><time>2013-11-21T11:46:04.0000000+00:00</time></trkpt><trkpt lat="30.8266182" lon="34.74737167"><ele>538.6</ele><time>2013-11-21T11:47:14.0000000+00:00</time></trkpt><trkpt lat="30.82623482" lon="34.74664307"><ele>546.9</ele><time>2013-11-21T11:48:14.0000000+00:00</time></trkpt><trkpt lat="30.82624054" lon="34.74463272"><ele>558.4</ele><time>2013-11-21T11:49:49.0000000+00:00</time></trkpt><trkpt lat="30.82586861" lon="34.7434082"><ele>563.0</ele><time>2013-11-21T11:50:34.0000000+00:00</time></trkpt><trkpt lat="30.82561874" lon="34.74316406"><ele>567.5</ele><time>2013-11-21T11:50:54.0000000+00:00</time></trkpt><trkpt lat="30.82466507" lon="34.74278641"><ele>576.5</ele><time>2013-11-21T11:52:09.0000000+00:00</time></trkpt><trkpt lat="30.82417488" lon="34.74214554"><ele>580.6</ele><time>2013-11-21T11:53:04.0000000+00:00</time></trkpt><trkpt lat="30.82363129" lon="34.74102402"><ele>595.7</ele><time>2013-11-21T11:54:24.0000000+00:00</time></trkpt><trkpt lat="30.82287026" lon="34.74085999"><ele>600.0</ele><time>2013-11-21T11:54:59.0000000+00:00</time></trkpt><trkpt lat="30.82237053" lon="34.74141693"><ele>598.4</ele><time>2013-11-21T11:56:29.0000000+00:00</time></trkpt><trkpt lat="30.82277489" lon="34.74091721"><ele>600.3</ele><time>2013-11-21T11:59:49.0000000+00:00</time></trkpt><trkpt lat="30.82356453" lon="34.74104691"><ele>595.5</ele><time>2013-11-21T12:00:09.0000000+00:00</time></trkpt><trkpt lat="30.82461548" lon="34.74269104"><ele>577.4</ele><time>2013-11-21T12:01:04.0000000+00:00</time></trkpt><trkpt lat="30.82507706" lon="34.74308014"><ele>572.0</ele><time>2013-11-21T12:01:54.0000000+00:00</time></trkpt><trkpt lat="30.82574654" lon="34.74322891"><ele>566.1</ele><time>2013-11-21T12:02:14.0000000+00:00</time></trkpt><trkpt lat="30.82603264" lon="34.74360275"><ele>560.6</ele><time>2013-11-21T12:02:24.0000000+00:00</time></trkpt><trkpt lat="30.82627869" lon="34.74468613"><ele>558.1</ele><time>2013-11-21T12:02:39.0000000+00:00</time></trkpt><trkpt lat="30.82629395" lon="34.74658966"><ele>547.0</ele><time>2013-11-21T12:03:24.0000000+00:00</time></trkpt><trkpt lat="30.82647896" lon="34.74716187"><ele>541.3</ele><time>2013-11-21T12:03:34.0000000+00:00</time></trkpt><trkpt lat="30.82702255" lon="34.74781799"><ele>532.9</ele><time>2013-11-21T12:03:49.0000000+00:00</time></trkpt><trkpt lat="30.82585335" lon="34.74908447"><ele>526.1</ele><time>2013-11-21T12:04:54.0000000+00:00</time></trkpt><trkpt lat="30.82476616" lon="34.750103"><ele>524.8</ele><time>2013-11-21T12:05:19.0000000+00:00</time></trkpt><trkpt lat="30.82258987" lon="34.75163269"><ele>529.5</ele><time>2013-11-21T12:06:14.0000000+00:00</time></trkpt><trkpt lat="30.81889534" lon="34.75471878"><ele>518.0</ele><time>2013-11-21T12:07:39.0000000+00:00</time></trkpt><trkpt lat="30.81866455" lon="34.75506592"><ele>519.2</ele><time>2013-11-21T12:07:54.0000000+00:00</time></trkpt><trkpt lat="30.81866646" lon="34.75532913"><ele>519.8</ele><time>2013-11-21T12:08:09.0000000+00:00</time></trkpt><trkpt lat="30.8183918" lon="34.75540543"><ele>521.2</ele><time>2013-11-21T12:08:24.0000000+00:00</time></trkpt><trkpt lat="30.81762505" lon="34.7562294"><ele>523.7</ele><time>2013-11-21T12:09:09.0000000+00:00</time></trkpt><trkpt lat="30.8165493" lon="34.75701523"><ele>520.0</ele><time>2013-11-21T12:09:44.0000000+00:00</time></trkpt><trkpt lat="30.81374168" lon="34.75965118"><ele>525.1</ele><time>2013-11-21T12:12:14.0000000+00:00</time></trkpt><trkpt lat="30.81335259" lon="34.75988007"><ele>522.5</ele><time>2013-11-21T12:12:34.0000000+00:00</time></trkpt><trkpt lat="30.81293106" lon="34.7598114"><ele>521.2</ele><time>2013-11-21T12:12:59.0000000+00:00</time></trkpt><trkpt lat="30.8114357" lon="34.76026917"><ele>517.0</ele><time>2013-11-21T12:13:24.0000000+00:00</time></trkpt><trkpt lat="30.80224228" lon="34.76332474"><ele>510.6</ele><time>2013-11-21T12:16:44.0000000+00:00</time></trkpt><trkpt lat="30.79902268" lon="34.76502228"><ele>522.4</ele><time>2013-11-21T12:20:19.0000000+00:00</time></trkpt><trkpt lat="30.79896164" lon="34.76456833"><ele>522.4</ele><time>2013-11-21T12:22:44.0000000+00:00</time></trkpt><trkpt lat="30.79873467" lon="34.76441956"><ele>522.6</ele><time>2013-11-21T12:23:04.0000000+00:00</time></trkpt><trkpt lat="30.79872894" lon="34.76407242"><ele>522.5</ele><time>2013-11-21T12:23:14.0000000+00:00</time></trkpt><trkpt lat="30.79829979" lon="34.76298523"><ele>521.1</ele><time>2013-11-21T12:23:49.0000000+00:00</time></trkpt><trkpt lat="30.79764366" lon="34.76228333"><ele>517.8</ele><time>2013-11-21T12:24:49.0000000+00:00</time></trkpt><trkpt lat="30.79774284" lon="34.76170349"><ele>519.8</ele><time>2013-11-21T12:25:39.0000000+00:00</time></trkpt><trkpt lat="30.79724693" lon="34.76149368"><ele>522.1</ele><time>2013-11-21T12:25:59.0000000+00:00</time></trkpt><trkpt lat="30.79642868" lon="34.76165772"><ele>523.2</ele><time>2013-11-21T12:26:39.0000000+00:00</time></trkpt><trkpt lat="30.79636002" lon="34.76109314"><ele>524.0</ele><time>2013-11-21T12:26:54.0000000+00:00</time></trkpt><trkpt lat="30.79574204" lon="34.759552"><ele>523.5</ele><time>2013-11-21T12:27:49.0000000+00:00</time></trkpt><trkpt lat="30.79449844" lon="34.75821304"><ele>524.0</ele><time>2013-11-21T12:28:49.0000000+00:00</time></trkpt><trkpt lat="30.79410744" lon="34.75750351"><ele>523.6</ele><time>2013-11-21T12:29:09.0000000+00:00</time></trkpt><trkpt lat="30.79474831" lon="34.75651169"><ele>523.1</ele><time>2013-11-21T12:29:39.0000000+00:00</time></trkpt><trkpt lat="30.79481888" lon="34.75605011"><ele>521.6</ele><time>2013-11-21T12:30:19.0000000+00:00</time></trkpt><trkpt lat="30.79470825" lon="34.75589371"><ele>520.8</ele><time>2013-11-21T12:30:29.0000000+00:00</time></trkpt><trkpt lat="30.7939682" lon="34.75580978"><ele>520.8</ele><time>2013-11-21T12:30:59.0000000+00:00</time></trkpt><trkpt lat="30.79216003" lon="34.75646973"><ele>522.2</ele><time>2013-11-21T12:31:54.0000000+00:00</time></trkpt><trkpt lat="30.79132843" lon="34.75742722"><ele>522.4</ele><time>2013-11-21T12:32:34.0000000+00:00</time></trkpt><trkpt lat="30.79103279" lon="34.7567215"><ele>521.3</ele><time>2013-11-21T12:33:59.0000000+00:00</time></trkpt><trkpt lat="30.79103851" lon="34.75590134"><ele>523.9</ele><time>2013-11-21T12:34:49.0000000+00:00</time></trkpt><trkpt lat="30.79018021" lon="34.75573731"><ele>526.5</ele><time>2013-11-21T12:35:19.0000000+00:00</time></trkpt><trkpt lat="30.78879929" lon="34.75601196"><ele>528.1</ele><time>2013-11-21T12:36:14.0000000+00:00</time></trkpt><trkpt lat="30.787323" lon="34.75505066"><ele>533.5</ele><time>2013-11-21T12:37:04.0000000+00:00</time></trkpt><trkpt lat="30.78617859" lon="34.75476837"><ele>537.7</ele><time>2013-11-21T12:37:44.0000000+00:00</time></trkpt><trkpt lat="30.78574181" lon="34.75442886"><ele>538.5</ele><time>2013-11-21T12:37:59.0000000+00:00</time></trkpt><trkpt lat="30.7835331" lon="34.75146866"><ele>544.6</ele><time>2013-11-21T12:39:34.0000000+00:00</time></trkpt><trkpt lat="30.78326607" lon="34.75078583"><ele>543.4</ele><time>2013-11-21T12:39:49.0000000+00:00</time></trkpt><trkpt lat="30.78338432" lon="34.74936676"><ele>544.1</ele><time>2013-11-21T12:40:29.0000000+00:00</time></trkpt><trkpt lat="30.78288651" lon="34.74850082"><ele>542.8</ele><time>2013-11-21T12:40:54.0000000+00:00</time></trkpt><trkpt lat="30.78241921" lon="34.74668884"><ele>545.3</ele><time>2013-11-21T12:41:44.0000000+00:00</time></trkpt><trkpt lat="30.78201294" lon="34.74610519"><ele>546.8</ele><time>2013-11-21T12:42:04.0000000+00:00</time></trkpt><trkpt lat="30.78124809" lon="34.74431992"><ele>545.1</ele><time>2013-11-21T12:42:54.0000000+00:00</time></trkpt><trkpt lat="30.78055954" lon="34.74338532"><ele>546.0</ele><time>2013-11-21T12:43:24.0000000+00:00</time></trkpt><trkpt lat="30.77942658" lon="34.7428894"><ele>548.9</ele><time>2013-11-21T12:43:59.0000000+00:00</time></trkpt><trkpt lat="30.7778492" lon="34.74376679"><ele>549.9</ele><time>2013-11-21T12:44:44.0000000+00:00</time></trkpt><trkpt lat="30.77681351" lon="34.74382401"><ele>547.7</ele><time>2013-11-21T12:45:09.0000000+00:00</time></trkpt><trkpt lat="30.77465439" lon="34.74284744"><ele>551.1</ele><time>2013-11-21T12:45:59.0000000+00:00</time></trkpt><trkpt lat="30.77348328" lon="34.74152374"><ele>551.6</ele><time>2013-11-21T12:46:44.0000000+00:00</time></trkpt><trkpt lat="30.7732544" lon="34.74095917"><ele>549.1</ele><time>2013-11-21T12:47:29.0000000+00:00</time></trkpt><trkpt lat="30.7731247" lon="34.7409668"><ele>548.4</ele><time>2013-11-21T12:48:09.0000000+00:00</time></trkpt><trkpt lat="30.77295303" lon="34.73961639"><ele>551.6</ele><time>2013-11-21T12:49:34.0000000+00:00</time></trkpt><trkpt lat="30.7722187" lon="34.73889542"><ele>554.6</ele><time>2013-11-21T12:50:19.0000000+00:00</time></trkpt><trkpt lat="30.77244568" lon="34.73881912"><ele>554.1</ele><time>2013-11-21T12:50:29.0000000+00:00</time></trkpt><trkpt lat="30.7736721" lon="34.73664856"><ele>554.8</ele><time>2013-11-21T12:51:29.0000000+00:00</time></trkpt><trkpt lat="30.77446175" lon="34.7338028"><ele>558.7</ele><time>2013-11-21T12:52:49.0000000+00:00</time></trkpt><trkpt lat="30.77439308" lon="34.7333374"><ele>560.4</ele><time>2013-11-21T12:53:04.0000000+00:00</time></trkpt><trkpt lat="30.77460671" lon="34.73220825"><ele>562.1</ele><time>2013-11-21T12:53:34.0000000+00:00</time></trkpt><trkpt lat="30.77454758" lon="34.73083115"><ele>563.0</ele><time>2013-11-21T12:54:04.0000000+00:00</time></trkpt><trkpt lat="30.77433777" lon="34.72995758"><ele>563.7</ele><time>2013-11-21T12:54:24.0000000+00:00</time></trkpt><trkpt lat="30.77387047" lon="34.72933579"><ele>568.2</ele><time>2013-11-21T12:54:49.0000000+00:00</time></trkpt><trkpt lat="30.77355766" lon="34.72854996"><ele>566.1</ele><time>2013-11-21T12:55:09.0000000+00:00</time></trkpt><trkpt lat="30.77323723" lon="34.72828674"><ele>566.9</ele><time>2013-11-21T12:55:19.0000000+00:00</time></trkpt><trkpt lat="30.77252388" lon="34.72820282"><ele>568.6</ele><time>2013-11-21T12:55:39.0000000+00:00</time></trkpt><trkpt lat="30.77183723" lon="34.72747803"><ele>563.4</ele><time>2013-11-21T12:56:19.0000000+00:00</time></trkpt><trkpt lat="30.77018547" lon="34.72824097"><ele>565.2</ele><time>2013-11-21T12:57:14.0000000+00:00</time></trkpt><trkpt lat="30.7692318" lon="34.72908783"><ele>564.4</ele><time>2013-11-21T12:58:04.0000000+00:00</time></trkpt><trkpt lat="30.76885223" lon="34.72919464"><ele>565.1</ele><time>2013-11-21T12:58:19.0000000+00:00</time></trkpt><trkpt lat="30.76804543" lon="34.72852325"><ele>568.7</ele><time>2013-11-21T12:59:09.0000000+00:00</time></trkpt><trkpt lat="30.76749229" lon="34.72780228"><ele>568.7</ele><time>2013-11-21T12:59:34.0000000+00:00</time></trkpt><trkpt lat="30.76690483" lon="34.72758102"><ele>568.3</ele><time>2013-11-21T12:59:54.0000000+00:00</time></trkpt><trkpt lat="30.76665878" lon="34.72721481"><ele>571.5</ele><time>2013-11-21T13:01:39.0000000+00:00</time></trkpt><trkpt lat="30.7661705" lon="34.72780609"><ele>580.2</ele><time>2013-11-21T13:03:19.0000000+00:00</time></trkpt><trkpt lat="30.76595879" lon="34.72770309"><ele>581.4</ele><time>2013-11-21T13:03:54.0000000+00:00</time></trkpt><trkpt lat="30.76589394" lon="34.72785187"><ele>578.1</ele><time>2013-11-21T13:04:19.0000000+00:00</time></trkpt><trkpt lat="30.76693916" lon="34.72915649"><ele>572.2</ele><time>2013-11-21T13:04:49.0000000+00:00</time></trkpt><trkpt lat="30.76742935" lon="34.7303009"><ele>573.2</ele><time>2013-11-21T13:05:09.0000000+00:00</time></trkpt><trkpt lat="30.76769447" lon="34.73173904"><ele>587.1</ele><time>2013-11-21T13:05:59.0000000+00:00</time></trkpt><trkpt lat="30.76740646" lon="34.73350906"><ele>595.2</ele><time>2013-11-21T13:07:24.0000000+00:00</time></trkpt><trkpt lat="30.76669502" lon="34.73497772"><ele>607.2</ele><time>2013-11-21T13:08:39.0000000+00:00</time></trkpt><trkpt lat="30.76487923" lon="34.73794556"><ele>627.8</ele><time>2013-11-21T13:10:44.0000000+00:00</time></trkpt><trkpt lat="30.76047325" lon="34.74790192"><ele>634.7</ele><time>2013-11-21T13:14:39.0000000+00:00</time></trkpt><trkpt lat="30.75886536" lon="34.74976349"><ele>635.6</ele><time>2013-11-21T13:15:34.0000000+00:00</time></trkpt><trkpt lat="30.75322342" lon="34.75346756"><ele>647.1</ele><time>2013-11-21T13:17:54.0000000+00:00</time></trkpt><trkpt lat="30.75232506" lon="34.75431824"><ele>649.5</ele><time>2013-11-21T13:18:19.0000000+00:00</time></trkpt><trkpt lat="30.74765015" lon="34.76150894"><ele>666.0</ele><time>2013-11-21T13:21:24.0000000+00:00</time></trkpt><trkpt lat="30.74651146" lon="34.76272202"><ele>667.5</ele><time>2013-11-21T13:21:59.0000000+00:00</time></trkpt><trkpt lat="30.73856545" lon="34.76734924"><ele>677.8</ele><time>2013-11-21T13:25:29.0000000+00:00</time></trkpt><trkpt lat="30.73786736" lon="34.76800156"><ele>685.1</ele><time>2013-11-21T13:25:54.0000000+00:00</time></trkpt><trkpt lat="30.73721886" lon="34.76953507"><ele>689.0</ele><time>2013-11-21T13:27:24.0000000+00:00</time></trkpt><trkpt lat="30.73491859" lon="34.76962662"><ele>695.7</ele><time>2013-11-21T13:29:14.0000000+00:00</time></trkpt><trkpt lat="30.73360062" lon="34.76995087"><ele>698.1</ele><time>2013-11-21T13:29:44.0000000+00:00</time></trkpt><trkpt lat="30.73223496" lon="34.77080154"><ele>699.4</ele><time>2013-11-21T13:30:19.0000000+00:00</time></trkpt><trkpt lat="30.72945213" lon="34.77349091"><ele>698.5</ele><time>2013-11-21T13:31:54.0000000+00:00</time></trkpt><trkpt lat="30.72823334" lon="34.77429962"><ele>708.6</ele><time>2013-11-21T13:32:29.0000000+00:00</time></trkpt><trkpt lat="30.72464562" lon="34.77523041"><ele>707.8</ele><time>2013-11-21T13:34:54.0000000+00:00</time></trkpt><trkpt lat="30.72393036" lon="34.77560425"><ele>710.5</ele><time>2013-11-21T13:35:14.0000000+00:00</time></trkpt><trkpt lat="30.72218132" lon="34.77702332"><ele>712.8</ele><time>2013-11-21T13:35:59.0000000+00:00</time></trkpt><trkpt lat="30.72144318" lon="34.77738571"><ele>716.5</ele><time>2013-11-21T13:36:19.0000000+00:00</time></trkpt><trkpt lat="30.72006989" lon="34.77784729"><ele>720.2</ele><time>2013-11-21T13:36:54.0000000+00:00</time></trkpt><trkpt lat="30.71803665" lon="34.77813339"><ele>720.3</ele><time>2013-11-21T13:37:39.0000000+00:00</time></trkpt><trkpt lat="30.71702004" lon="34.77860642"><ele>721.0</ele><time>2013-11-21T13:38:04.0000000+00:00</time></trkpt><trkpt lat="30.71624184" lon="34.77927017"><ele>722.6</ele><time>2013-11-21T13:38:24.0000000+00:00</time></trkpt><trkpt lat="30.71496773" lon="34.78145981"><ele>719.4</ele><time>2013-11-21T13:39:09.0000000+00:00</time></trkpt><trkpt lat="30.71330261" lon="34.78390503"><ele>707.0</ele><time>2013-11-21T13:39:49.0000000+00:00</time></trkpt><trkpt lat="30.71242905" lon="34.78482437"><ele>696.8</ele><time>2013-11-21T13:39:59.0000000+00:00</time></trkpt><trkpt lat="30.71175957" lon="34.78506851"><ele>690.9</ele><time>2013-11-21T13:40:04.0000000+00:00</time></trkpt><trkpt lat="30.71098709" lon="34.78507233"><ele>686.2</ele><time>2013-11-21T13:40:09.0000000+00:00</time></trkpt><trkpt lat="30.70383644" lon="34.78359604"><ele>700.2</ele><time>2013-11-21T13:43:04.0000000+00:00</time></trkpt><trkpt lat="30.70012665" lon="34.78358078"><ele>713.3</ele><time>2013-11-21T13:45:19.0000000+00:00</time></trkpt><trkpt lat="30.69870567" lon="34.78372192"><ele>717.4</ele><time>2013-11-21T13:46:14.0000000+00:00</time></trkpt><trkpt lat="30.69658089" lon="34.78482056"><ele>711.1</ele><time>2013-11-21T13:47:04.0000000+00:00</time></trkpt><trkpt lat="30.69236183" lon="34.78484726"><ele>750.7</ele><time>2013-11-21T13:51:14.0000000+00:00</time></trkpt><trkpt lat="30.69172478" lon="34.78509522"><ele>757.4</ele><time>2013-11-21T13:51:54.0000000+00:00</time></trkpt><trkpt lat="30.69087982" lon="34.78604126"><ele>765.2</ele><time>2013-11-21T13:52:54.0000000+00:00</time></trkpt><trkpt lat="30.68850899" lon="34.79104614"><ele>776.4</ele><time>2013-11-21T13:56:49.0000000+00:00</time></trkpt><trkpt lat="30.6873169" lon="34.79232407"><ele>773.8</ele><time>2013-11-21T13:57:29.0000000+00:00</time></trkpt><trkpt lat="30.68408394" lon="34.79525375"><ele>777.8</ele><time>2013-11-21T13:59:09.0000000+00:00</time></trkpt><trkpt lat="30.6811409" lon="34.80036926"><ele>794.2</ele><time>2013-11-21T14:02:19.0000000+00:00</time></trkpt><trkpt lat="30.68050957" lon="34.80089188"><ele>796.6</ele><time>2013-11-21T14:02:44.0000000+00:00</time></trkpt><trkpt lat="30.6761322" lon="34.80340195"><ele>796.1</ele><time>2013-11-21T14:05:04.0000000+00:00</time></trkpt><trkpt lat="30.67455864" lon="34.80382919"><ele>781.8</ele><time>2013-11-21T14:05:19.0000000+00:00</time></trkpt><trkpt lat="30.66727448" lon="34.80460358"><ele>788.2</ele><time>2013-11-21T14:07:34.0000000+00:00</time></trkpt><trkpt lat="30.6664753" lon="34.80520248"><ele>790.4</ele><time>2013-11-21T14:08:14.0000000+00:00</time></trkpt><trkpt lat="30.66428947" lon="34.80820084"><ele>769.2</ele><time>2013-11-21T14:09:24.0000000+00:00</time></trkpt><trkpt lat="30.66376495" lon="34.80853272"><ele>767.0</ele><time>2013-11-21T14:09:29.0000000+00:00</time></trkpt><trkpt lat="30.65924072" lon="34.81005478"><ele>764.1</ele><time>2013-11-21T14:10:44.0000000+00:00</time></trkpt><trkpt lat="30.65882301" lon="34.8098793"><ele>764.0</ele><time>2013-11-21T14:11:04.0000000+00:00</time></trkpt><trkpt lat="30.65820122" lon="34.81023407"><ele>764.5</ele><time>2013-11-21T14:11:39.0000000+00:00</time></trkpt><trkpt lat="30.65308952" lon="34.80976486"><ele>771.2</ele><time>2013-11-21T14:14:19.0000000+00:00</time></trkpt><trkpt lat="30.65286636" lon="34.8098526"><ele>772.5</ele><time>2013-11-21T14:14:29.0000000+00:00</time></trkpt><trkpt lat="30.65272713" lon="34.81030273"><ele>773.6</ele><time>2013-11-21T14:14:49.0000000+00:00</time></trkpt><trkpt lat="30.64957809" lon="34.80924606"><ele>781.8</ele><time>2013-11-21T14:16:39.0000000+00:00</time></trkpt><trkpt lat="30.64608383" lon="34.80749893"><ele>782.8</ele><time>2013-11-21T14:18:19.0000000+00:00</time></trkpt><trkpt lat="30.64119148" lon="34.80662155"><ele>780.5</ele><time>2013-11-21T14:20:09.0000000+00:00</time></trkpt><trkpt lat="30.64100075" lon="34.80645752"><ele>780.6</ele><time>2013-11-21T14:20:49.0000000+00:00</time></trkpt><trkpt lat="30.64029121" lon="34.80643082"><ele>782.5</ele><time>2013-11-21T14:21:14.0000000+00:00</time></trkpt><trkpt lat="30.63446045" lon="34.805233"><ele>810.6</ele><time>2013-11-21T14:24:54.0000000+00:00</time></trkpt><trkpt lat="30.62837791" lon="34.80488205"><ele>821.3</ele><time>2013-11-21T14:28:24.0000000+00:00</time></trkpt><trkpt lat="30.62391853" lon="34.80373383"><ele>822.8</ele><time>2013-11-21T14:30:44.0000000+00:00</time></trkpt><trkpt lat="30.61995125" lon="34.80368042"><ele>829.6</ele><time>2013-11-21T14:32:59.0000000+00:00</time></trkpt><trkpt lat="30.61645126" lon="34.80337906"><ele>839.9</ele><time>2013-11-21T14:36:44.0000000+00:00</time></trkpt><trkpt lat="30.61650658" lon="34.80207825"><ele>840.6</ele><time>2013-11-21T14:38:34.0000000+00:00</time></trkpt><trkpt lat="30.61677742" lon="34.8007164"><ele>836.5</ele><time>2013-11-21T14:38:59.0000000+00:00</time></trkpt><trkpt lat="30.61657333" lon="34.8001976"><ele>836.2</ele><time>2013-11-21T14:39:14.0000000+00:00</time></trkpt><trkpt lat="30.6166935" lon="34.80044174"><ele>835.5</ele><time>2013-11-21T14:39:29.0000000+00:00</time></trkpt><trkpt lat="30.61727905" lon="34.80053711"><ele>835.4</ele><time>2013-11-21T14:39:49.0000000+00:00</time></trkpt><trkpt lat="30.61837959" lon="34.80039215"><ele>831.9</ele><time>2013-11-21T14:40:19.0000000+00:00</time></trkpt><trkpt lat="30.6187439" lon="34.80119324"><ele>835.3</ele><time>2013-11-21T14:40:49.0000000+00:00</time></trkpt><trkpt lat="30.61879349" lon="34.80176926"><ele>836.9</ele><time>2013-11-21T14:41:34.0000000+00:00</time></trkpt><trkpt lat="30.61871338" lon="34.80170822"><ele>836.8</ele><time>2013-11-21T14:41:59.0000000+00:00</time></trkpt><trkpt lat="30.61886215" lon="34.80177307"><ele>837.0</ele><time>2013-11-21T14:42:49.0000000+00:00</time></trkpt><trkpt lat="30.61873627" lon="34.80160523"><ele>836.5</ele><time>2013-11-21T14:45:59.0000000+00:00</time></trkpt><trkpt lat="30.61868668" lon="34.80179977"><ele>836.8</ele><time>2013-11-21T14:48:29.0000000+00:00</time></trkpt><trkpt lat="30.61852264" lon="34.80181885"><ele>837.1</ele><time>2013-11-21T14:52:49.0000000+00:00</time></trkpt><trkpt lat="30.61862755" lon="34.80161285"><ele>836.6</ele><time>2013-11-21T15:22:29.0000000+00:00</time></trkpt></trkseg><trkseg><trkpt lat="30.61866951" lon="34.80161667"><ele>836.6</ele><time>2013-11-22T06:06:28.0000000+00:00</time></trkpt><trkpt lat="30.61845589" lon="34.80159378"><ele>836.6</ele><time>2013-11-22T06:11:08.0000000+00:00</time></trkpt><trkpt lat="30.6186161" lon="34.80162048"><ele>836.6</ele><time>2013-11-22T06:15:18.0000000+00:00</time></trkpt><trkpt lat="30.61857796" lon="34.801754"><ele>836.9</ele><time>2013-11-22T06:15:38.0000000+00:00</time></trkpt><trkpt lat="30.61846161" lon="34.80046463"><ele>832.1</ele><time>2013-11-22T06:16:18.0000000+00:00</time></trkpt><trkpt lat="30.6174984" lon="34.8006134"><ele>835.3</ele><time>2013-11-22T06:16:58.0000000+00:00</time></trkpt><trkpt lat="30.61672974" lon="34.80046463"><ele>835.5</ele><time>2013-11-22T06:17:28.0000000+00:00</time></trkpt><trkpt lat="30.6164856" lon="34.80075073"><ele>836.6</ele><time>2013-11-22T06:17:43.0000000+00:00</time></trkpt><trkpt lat="30.61611939" lon="34.80344009"><ele>839.9</ele><time>2013-11-22T06:18:58.0000000+00:00</time></trkpt><trkpt lat="30.61430931" lon="34.80345917"><ele>835.4</ele><time>2013-11-22T06:19:53.0000000+00:00</time></trkpt><trkpt lat="30.61327553" lon="34.80378342"><ele>835.3</ele><time>2013-11-22T06:20:23.0000000+00:00</time></trkpt><trkpt lat="30.61282349" lon="34.8036232"><ele>836.4</ele><time>2013-11-22T06:20:48.0000000+00:00</time></trkpt><trkpt lat="30.61262894" lon="34.80382156"><ele>837.4</ele><time>2013-11-22T06:20:58.0000000+00:00</time></trkpt><trkpt lat="30.61257362" lon="34.80423355"><ele>838.3</ele><time>2013-11-22T06:21:13.0000000+00:00</time></trkpt><trkpt lat="30.61226654" lon="34.80444717"><ele>839.5</ele><time>2013-11-22T06:21:38.0000000+00:00</time></trkpt><trkpt lat="30.61243439" lon="34.80475617"><ele>838.6</ele><time>2013-11-22T06:22:43.0000000+00:00</time></trkpt><trkpt lat="30.61228943" lon="34.80461121"><ele>839.2</ele><time>2013-11-22T06:30:08.0000000+00:00</time></trkpt><trkpt lat="30.61257935" lon="34.8045044"><ele>838.5</ele><time>2013-11-22T06:31:03.0000000+00:00</time></trkpt><trkpt lat="30.61226845" lon="34.80444336"><ele>839.5</ele><time>2013-11-22T06:31:18.0000000+00:00</time></trkpt><trkpt lat="30.61231232" lon="34.80433655"><ele>839.1</ele><time>2013-11-22T06:31:23.0000000+00:00</time></trkpt><trkpt lat="30.61298752" lon="34.80439377"><ele>835.7</ele><time>2013-11-22T06:32:48.0000000+00:00</time></trkpt><trkpt lat="30.61462593" lon="34.80564117"><ele>830.6</ele><time>2013-11-22T06:34:58.0000000+00:00</time></trkpt><trkpt lat="30.61445046" lon="34.80699539"><ele>827.7</ele><time>2013-11-22T06:40:13.0000000+00:00</time></trkpt><trkpt lat="30.61409187" lon="34.80747604"><ele>830.8</ele><time>2013-11-22T06:40:33.0000000+00:00</time></trkpt><trkpt lat="30.61428642" lon="34.80810928"><ele>832.0</ele><time>2013-11-22T06:41:08.0000000+00:00</time></trkpt><trkpt lat="30.61465454" lon="34.80834961"><ele>820.2</ele><time>2013-11-22T06:41:58.0000000+00:00</time></trkpt><trkpt lat="30.61520577" lon="34.80810928"><ele>826.3</ele><time>2013-11-22T06:42:43.0000000+00:00</time></trkpt><trkpt lat="30.61524773" lon="34.80784226"><ele>825.7</ele><time>2013-11-22T06:42:58.0000000+00:00</time></trkpt><trkpt lat="30.61647797" lon="34.80755615"><ele>822.5</ele><time>2013-11-22T06:43:43.0000000+00:00</time></trkpt><trkpt lat="30.6170063" lon="34.80819321"><ele>821.5</ele><time>2013-11-22T06:44:08.0000000+00:00</time></trkpt><trkpt lat="30.61697769" lon="34.80898285"><ele>814.6</ele><time>2013-11-22T06:44:33.0000000+00:00</time></trkpt><trkpt lat="30.61724663" lon="34.80955124"><ele>803.0</ele><time>2013-11-22T06:44:53.0000000+00:00</time></trkpt><trkpt lat="30.6179142" lon="34.81003571"><ele>817.6</ele><time>2013-11-22T06:45:23.0000000+00:00</time></trkpt><trkpt lat="30.61830711" lon="34.81056976"><ele>794.7</ele><time>2013-11-22T06:45:48.0000000+00:00</time></trkpt><trkpt lat="30.61893654" lon="34.81096268"><ele>813.6</ele><time>2013-11-22T06:46:13.0000000+00:00</time></trkpt><trkpt lat="30.61916733" lon="34.81138229"><ele>813.4</ele><time>2013-11-22T06:46:28.0000000+00:00</time></trkpt><trkpt lat="30.61989403" lon="34.81188965"><ele>813.8</ele><time>2013-11-22T06:46:48.0000000+00:00</time></trkpt><trkpt lat="30.61979294" lon="34.81275177"><ele>806.6</ele><time>2013-11-22T06:47:08.0000000+00:00</time></trkpt><trkpt lat="30.61989212" lon="34.81358719"><ele>789.9</ele><time>2013-11-22T06:47:58.0000000+00:00</time></trkpt><trkpt lat="30.62068749" lon="34.81430054"><ele>795.1</ele><time>2013-11-22T06:49:03.0000000+00:00</time></trkpt><trkpt lat="30.62128449" lon="34.81454849"><ele>811.8</ele><time>2013-11-22T06:49:33.0000000+00:00</time></trkpt><trkpt lat="30.62188911" lon="34.81520844"><ele>802.8</ele><time>2013-11-22T06:50:13.0000000+00:00</time></trkpt><trkpt lat="30.62318039" lon="34.81571579"><ele>799.2</ele><time>2013-11-22T06:51:43.0000000+00:00</time></trkpt><trkpt lat="30.62347794" lon="34.81620407"><ele>789.4</ele><time>2013-11-22T06:51:58.0000000+00:00</time></trkpt><trkpt lat="30.62483406" lon="34.81690216"><ele>804.0</ele><time>2013-11-22T06:52:43.0000000+00:00</time></trkpt><trkpt lat="30.6254673" lon="34.81764603"><ele>799.3</ele><time>2013-11-22T06:53:08.0000000+00:00</time></trkpt><trkpt lat="30.62569046" lon="34.81814957"><ele>792.0</ele><time>2013-11-22T06:53:23.0000000+00:00</time></trkpt><trkpt lat="30.62759781" lon="34.81980133"><ele>783.4</ele><time>2013-11-22T06:54:38.0000000+00:00</time></trkpt><trkpt lat="30.62801743" lon="34.81986237"><ele>793.6</ele><time>2013-11-22T06:54:53.0000000+00:00</time></trkpt><trkpt lat="30.6286068" lon="34.8204155"><ele>787.7</ele><time>2013-11-22T06:55:23.0000000+00:00</time></trkpt><trkpt lat="30.6293087" lon="34.82064438"><ele>787.3</ele><time>2013-11-22T06:56:13.0000000+00:00</time></trkpt><trkpt lat="30.62935829" lon="34.81956863"><ele>787.8</ele><time>2013-11-22T06:56:43.0000000+00:00</time></trkpt><trkpt lat="30.62881661" lon="34.81878281"><ele>789.6</ele><time>2013-11-22T06:57:28.0000000+00:00</time></trkpt><trkpt lat="30.62966728" lon="34.81873322"><ele>792.8</ele><time>2013-11-22T06:58:18.0000000+00:00</time></trkpt><trkpt lat="30.6301899" lon="34.81936646"><ele>797.2</ele><time>2013-11-22T06:59:08.0000000+00:00</time></trkpt><trkpt lat="30.63024712" lon="34.81982803"><ele>796.9</ele><time>2013-11-22T06:59:28.0000000+00:00</time></trkpt><trkpt lat="30.63075066" lon="34.81987"><ele>796.4</ele><time>2013-11-22T06:59:48.0000000+00:00</time></trkpt><trkpt lat="30.63148499" lon="34.82021332"><ele>796.4</ele><time>2013-11-22T07:00:23.0000000+00:00</time></trkpt><trkpt lat="30.63221932" lon="34.82075501"><ele>795.3</ele><time>2013-11-22T07:01:03.0000000+00:00</time></trkpt><trkpt lat="30.63337326" lon="34.82097244"><ele>795.1</ele><time>2013-11-22T07:01:43.0000000+00:00</time></trkpt><trkpt lat="30.63484383" lon="34.82060623"><ele>794.4</ele><time>2013-11-22T07:02:28.0000000+00:00</time></trkpt><trkpt lat="30.63550568" lon="34.82100678"><ele>793.1</ele><time>2013-11-22T07:02:48.0000000+00:00</time></trkpt><trkpt lat="30.63618851" lon="34.82173538"><ele>791.3</ele><time>2013-11-22T07:03:08.0000000+00:00</time></trkpt><trkpt lat="30.63797379" lon="34.82255173"><ele>788.1</ele><time>2013-11-22T07:03:53.0000000+00:00</time></trkpt><trkpt lat="30.63838768" lon="34.82317352"><ele>789.6</ele><time>2013-11-22T07:04:13.0000000+00:00</time></trkpt><trkpt lat="30.64038467" lon="34.82501602"><ele>778.8</ele><time>2013-11-22T07:04:58.0000000+00:00</time></trkpt><trkpt lat="30.64100647" lon="34.82601929"><ele>779.5</ele><time>2013-11-22T07:12:38.0000000+00:00</time></trkpt><trkpt lat="30.64159012" lon="34.82629395"><ele>782.8</ele><time>2013-11-22T07:13:13.0000000+00:00</time></trkpt><trkpt lat="30.64266968" lon="34.82740021"><ele>779.9</ele><time>2013-11-22T07:14:23.0000000+00:00</time></trkpt><trkpt lat="30.64301491" lon="34.82833862"><ele>779.0</ele><time>2013-11-22T07:14:48.0000000+00:00</time></trkpt><trkpt lat="30.64340973" lon="34.82890701"><ele>779.1</ele><time>2013-11-22T07:15:13.0000000+00:00</time></trkpt><trkpt lat="30.64381027" lon="34.83049774"><ele>772.8</ele><time>2013-11-22T07:15:58.0000000+00:00</time></trkpt><trkpt lat="30.64522362" lon="34.83221436"><ele>768.6</ele><time>2013-11-22T07:16:43.0000000+00:00</time></trkpt><trkpt lat="30.6456852" lon="34.83454895"><ele>774.0</ele><time>2013-11-22T07:18:03.0000000+00:00</time></trkpt><trkpt lat="30.64618301" lon="34.83579636"><ele>778.0</ele><time>2013-11-22T07:19:38.0000000+00:00</time></trkpt><trkpt lat="30.64676285" lon="34.83879471"><ele>765.9</ele><time>2013-11-22T07:22:03.0000000+00:00</time></trkpt><trkpt lat="30.6479702" lon="34.84070587"><ele>760.6</ele><time>2013-11-22T07:23:03.0000000+00:00</time></trkpt><trkpt lat="30.64910317" lon="34.84181595"><ele>757.6</ele><time>2013-11-22T07:28:13.0000000+00:00</time></trkpt><trkpt lat="30.6523037" lon="34.84283829"><ele>766.6</ele><time>2013-11-22T07:30:18.0000000+00:00</time></trkpt><trkpt lat="30.65379524" lon="34.84288788"><ele>767.6</ele><time>2013-11-22T07:31:18.0000000+00:00</time></trkpt><trkpt lat="30.65431976" lon="34.84315872"><ele>763.7</ele><time>2013-11-22T07:31:38.0000000+00:00</time></trkpt><trkpt lat="30.65452385" lon="34.84357071"><ele>761.7</ele><time>2013-11-22T07:31:53.0000000+00:00</time></trkpt><trkpt lat="30.65488052" lon="34.84372711"><ele>756.8</ele><time>2013-11-22T07:32:18.0000000+00:00</time></trkpt><trkpt lat="30.65612793" lon="34.84377289"><ele>754.8</ele><time>2013-11-22T07:32:53.0000000+00:00</time></trkpt><trkpt lat="30.65672112" lon="34.84423447"><ele>750.3</ele><time>2013-11-22T07:33:08.0000000+00:00</time></trkpt><trkpt lat="30.65730858" lon="34.84517288"><ele>745.8</ele><time>2013-11-22T07:35:08.0000000+00:00</time></trkpt><trkpt lat="30.65877152" lon="34.84621811"><ele>742.8</ele><time>2013-11-22T07:35:53.0000000+00:00</time></trkpt><trkpt lat="30.65942192" lon="34.84693909"><ele>739.5</ele><time>2013-11-22T07:36:18.0000000+00:00</time></trkpt><trkpt lat="30.66090775" lon="34.84733963"><ele>738.6</ele><time>2013-11-22T07:36:53.0000000+00:00</time></trkpt><trkpt lat="30.66184425" lon="34.84707642"><ele>734.6</ele><time>2013-11-22T07:37:18.0000000+00:00</time></trkpt><trkpt lat="30.66255379" lon="34.84737396"><ele>735.7</ele><time>2013-11-22T07:37:53.0000000+00:00</time></trkpt><trkpt lat="30.66218948" lon="34.84919357"><ele>733.1</ele><time>2013-11-22T07:39:38.0000000+00:00</time></trkpt><trkpt lat="30.66198158" lon="34.84939957"><ele>735.6</ele><time>2013-11-22T07:39:48.0000000+00:00</time></trkpt><trkpt lat="30.66206169" lon="34.84966278"><ele>733.4</ele><time>2013-11-22T07:39:58.0000000+00:00</time></trkpt><trkpt lat="30.66183853" lon="34.85018539"><ele>733.2</ele><time>2013-11-22T07:40:18.0000000+00:00</time></trkpt><trkpt lat="30.66143608" lon="34.85058975"><ele>733.4</ele><time>2013-11-22T07:40:43.0000000+00:00</time></trkpt><trkpt lat="30.66144371" lon="34.8509903"><ele>731.9</ele><time>2013-11-22T07:41:28.0000000+00:00</time></trkpt><trkpt lat="30.66023064" lon="34.85490418"><ele>724.1</ele><time>2013-11-22T07:42:58.0000000+00:00</time></trkpt><trkpt lat="30.65964127" lon="34.85554504"><ele>724.3</ele><time>2013-11-22T07:43:23.0000000+00:00</time></trkpt><trkpt lat="30.65855217" lon="34.85575867"><ele>725.0</ele><time>2013-11-22T07:44:23.0000000+00:00</time></trkpt><trkpt lat="30.6584816" lon="34.85792542"><ele>728.4</ele><time>2013-11-22T07:45:18.0000000+00:00</time></trkpt><trkpt lat="30.6598835" lon="34.86056137"><ele>739.5</ele><time>2013-11-22T07:47:13.0000000+00:00</time></trkpt><trkpt lat="30.66075325" lon="34.86071396"><ele>736.5</ele><time>2013-11-22T07:47:43.0000000+00:00</time></trkpt><trkpt lat="30.66124153" lon="34.8612175"><ele>733.5</ele><time>2013-11-22T07:48:03.0000000+00:00</time></trkpt><trkpt lat="30.66112328" lon="34.86181641"><ele>732.0</ele><time>2013-11-22T07:48:38.0000000+00:00</time></trkpt><trkpt lat="30.6612072" lon="34.86253738"><ele>729.9</ele><time>2013-11-22T07:48:53.0000000+00:00</time></trkpt><trkpt lat="30.66167259" lon="34.86448669"><ele>729.1</ele><time>2013-11-22T07:49:43.0000000+00:00</time></trkpt><trkpt lat="30.66296196" lon="34.86644745"><ele>737.5</ele><time>2013-11-22T07:51:18.0000000+00:00</time></trkpt><trkpt lat="30.66373253" lon="34.86898041"><ele>746.3</ele><time>2013-11-22T07:53:28.0000000+00:00</time></trkpt><trkpt lat="30.66353989" lon="34.87041473"><ele>746.7</ele><time>2013-11-22T07:54:33.0000000+00:00</time></trkpt><trkpt lat="30.66386414" lon="34.87121201"><ele>746.8</ele><time>2013-11-22T07:55:13.0000000+00:00</time></trkpt><trkpt lat="30.66400719" lon="34.87239075"><ele>745.8</ele><time>2013-11-22T07:55:53.0000000+00:00</time></trkpt><trkpt lat="30.66432953" lon="34.87309265"><ele>743.8</ele><time>2013-11-22T07:56:18.0000000+00:00</time></trkpt><trkpt lat="30.66378593" lon="34.87363815"><ele>701.5</ele><time>2013-11-22T07:57:33.0000000+00:00</time></trkpt><trkpt lat="30.66438294" lon="34.87310791"><ele>743.5</ele><time>2013-11-22T08:18:13.0000000+00:00</time></trkpt><trkpt lat="30.66463471" lon="34.87376785"><ele>740.0</ele><time>2013-11-22T08:19:03.0000000+00:00</time></trkpt><trkpt lat="30.6652832" lon="34.87468338"><ele>735.3</ele><time>2013-11-22T08:19:28.0000000+00:00</time></trkpt><trkpt lat="30.6656208" lon="34.87613678"><ele>730.3</ele><time>2013-11-22T08:20:13.0000000+00:00</time></trkpt><trkpt lat="30.66558838" lon="34.87696838"><ele>729.4</ele><time>2013-11-22T08:20:43.0000000+00:00</time></trkpt><trkpt lat="30.66586304" lon="34.87729645"><ele>727.8</ele><time>2013-11-22T08:20:58.0000000+00:00</time></trkpt><trkpt lat="30.66596985" lon="34.87770844"><ele>728.0</ele><time>2013-11-22T08:21:18.0000000+00:00</time></trkpt><trkpt lat="30.66567612" lon="34.8780365"><ele>725.4</ele><time>2013-11-22T08:21:58.0000000+00:00</time></trkpt><trkpt lat="30.66597366" lon="34.87816238"><ele>731.2</ele><time>2013-11-22T08:22:33.0000000+00:00</time></trkpt><trkpt lat="30.66654778" lon="34.87898636"><ele>734.8</ele><time>2013-11-22T08:23:18.0000000+00:00</time></trkpt><trkpt lat="30.6666069" lon="34.88011551"><ele>733.8</ele><time>2013-11-22T08:24:03.0000000+00:00</time></trkpt><trkpt lat="30.66678429" lon="34.88061905"><ele>731.0</ele><time>2013-11-22T08:24:43.0000000+00:00</time></trkpt><trkpt lat="30.66849518" lon="34.88214874"><ele>738.0</ele><time>2013-11-22T08:26:18.0000000+00:00</time></trkpt><trkpt lat="30.6690197" lon="34.88472366"><ele>732.6</ele><time>2013-11-22T08:27:48.0000000+00:00</time></trkpt><trkpt lat="30.66945458" lon="34.8861351"><ele>730.5</ele><time>2013-11-22T08:28:33.0000000+00:00</time></trkpt><trkpt lat="30.67071152" lon="34.88798904"><ele>703.4</ele><time>2013-11-22T08:30:13.0000000+00:00</time></trkpt><trkpt lat="30.67213631" lon="34.88842392"><ele>731.5</ele><time>2013-11-22T08:30:58.0000000+00:00</time></trkpt><trkpt lat="30.67287254" lon="34.88903427"><ele>730.7</ele><time>2013-11-22T08:31:23.0000000+00:00</time></trkpt><trkpt lat="30.67278862" lon="34.89093781"><ele>725.8</ele><time>2013-11-22T08:32:13.0000000+00:00</time></trkpt><trkpt lat="30.67324448" lon="34.89197922"><ele>726.6</ele><time>2013-11-22T08:32:43.0000000+00:00</time></trkpt><trkpt lat="30.67324448" lon="34.89239883"><ele>713.0</ele><time>2013-11-22T08:33:08.0000000+00:00</time></trkpt><trkpt lat="30.67383194" lon="34.89450073"><ele>723.4</ele><time>2013-11-22T08:34:23.0000000+00:00</time></trkpt><trkpt lat="30.67448998" lon="34.89447784"><ele>719.7</ele><time>2013-11-22T08:34:33.0000000+00:00</time></trkpt><trkpt lat="30.67608261" lon="34.89506149"><ele>709.6</ele><time>2013-11-22T08:34:53.0000000+00:00</time></trkpt><trkpt lat="30.67833901" lon="34.89732361"><ele>698.3</ele><time>2013-11-22T08:36:03.0000000+00:00</time></trkpt><trkpt lat="30.67982101" lon="34.89918137"><ele>692.0</ele><time>2013-11-22T08:36:58.0000000+00:00</time></trkpt><trkpt lat="30.68120384" lon="34.90016556"><ele>690.4</ele><time>2013-11-22T08:37:38.0000000+00:00</time></trkpt><trkpt lat="30.6819725" lon="34.90025711"><ele>686.4</ele><time>2013-11-22T08:40:08.0000000+00:00</time></trkpt><trkpt lat="30.68287277" lon="34.90126038"><ele>687.9</ele><time>2013-11-22T08:40:53.0000000+00:00</time></trkpt><trkpt lat="30.6831913" lon="34.90115356"><ele>687.5</ele><time>2013-11-22T08:41:03.0000000+00:00</time></trkpt><trkpt lat="30.68392754" lon="34.90155411"><ele>682.3</ele><time>2013-11-22T08:41:28.0000000+00:00</time></trkpt><trkpt lat="30.68424225" lon="34.90270233"><ele>676.2</ele><time>2013-11-22T08:41:48.0000000+00:00</time></trkpt><trkpt lat="30.68470383" lon="34.90342331"><ele>673.5</ele><time>2013-11-22T08:42:03.0000000+00:00</time></trkpt><trkpt lat="30.68467522" lon="34.90497971"><ele>672.3</ele><time>2013-11-22T08:42:38.0000000+00:00</time></trkpt><trkpt lat="30.68598747" lon="34.9067421"><ele>661.1</ele><time>2013-11-22T08:43:33.0000000+00:00</time></trkpt><trkpt lat="30.68669319" lon="34.90868759"><ele>659.3</ele><time>2013-11-22T08:44:33.0000000+00:00</time></trkpt><trkpt lat="30.68759918" lon="34.90930557"><ele>663.0</ele><time>2013-11-22T08:45:03.0000000+00:00</time></trkpt><trkpt lat="30.68833733" lon="34.90930176"><ele>655.2</ele><time>2013-11-22T08:45:18.0000000+00:00</time></trkpt><trkpt lat="30.68881798" lon="34.90907669"><ele>652.7</ele><time>2013-11-22T08:45:33.0000000+00:00</time></trkpt><trkpt lat="30.68985367" lon="34.90777969"><ele>650.1</ele><time>2013-11-22T08:49:28.0000000+00:00</time></trkpt><trkpt lat="30.6906395" lon="34.90809631"><ele>651.6</ele><time>2013-11-22T08:49:53.0000000+00:00</time></trkpt><trkpt lat="30.69094658" lon="34.90797043"><ele>647.8</ele><time>2013-11-22T08:50:13.0000000+00:00</time></trkpt><trkpt lat="30.69152641" lon="34.90860367"><ele>651.3</ele><time>2013-11-22T08:50:48.0000000+00:00</time></trkpt><trkpt lat="30.6919632" lon="34.90879059"><ele>653.6</ele><time>2013-11-22T08:51:03.0000000+00:00</time></trkpt><trkpt lat="30.6927166" lon="34.9086647"><ele>647.6</ele><time>2013-11-22T08:51:28.0000000+00:00</time></trkpt><trkpt lat="30.69413567" lon="34.90902329"><ele>647.2</ele><time>2013-11-22T08:52:13.0000000+00:00</time></trkpt><trkpt lat="30.69457436" lon="34.90935516"><ele>642.6</ele><time>2013-11-22T08:52:33.0000000+00:00</time></trkpt><trkpt lat="30.69453812" lon="34.91099548"><ele>638.0</ele><time>2013-11-22T08:53:18.0000000+00:00</time></trkpt><trkpt lat="30.69403076" lon="34.91252136"><ele>634.6</ele><time>2013-11-22T08:53:58.0000000+00:00</time></trkpt><trkpt lat="30.69392395" lon="34.91376495"><ele>633.6</ele><time>2013-11-22T08:54:33.0000000+00:00</time></trkpt><trkpt lat="30.69351578" lon="34.91423035"><ele>639.6</ele><time>2013-11-22T08:55:13.0000000+00:00</time></trkpt><trkpt lat="30.69261169" lon="34.91427612"><ele>653.3</ele><time>2013-11-22T08:56:33.0000000+00:00</time></trkpt><trkpt lat="30.69195557" lon="34.91462326"><ele>652.0</ele><time>2013-11-22T08:57:33.0000000+00:00</time></trkpt><trkpt lat="30.69178009" lon="34.91534424"><ele>657.4</ele><time>2013-11-22T08:58:28.0000000+00:00</time></trkpt><trkpt lat="30.69186211" lon="34.91603088"><ele>666.2</ele><time>2013-11-22T08:59:13.0000000+00:00</time></trkpt><trkpt lat="30.69137573" lon="34.91688919"><ele>670.2</ele><time>2013-11-22T09:01:38.0000000+00:00</time></trkpt><trkpt lat="30.6907444" lon="34.91662598"><ele>675.3</ele><time>2013-11-22T09:02:23.0000000+00:00</time></trkpt><trkpt lat="30.69024849" lon="34.91688538"><ele>676.3</ele><time>2013-11-22T09:02:53.0000000+00:00</time></trkpt><trkpt lat="30.68992806" lon="34.91726685"><ele>677.7</ele><time>2013-11-22T09:03:18.0000000+00:00</time></trkpt><trkpt lat="30.68984413" lon="34.91793823"><ele>669.3</ele><time>2013-11-22T09:03:48.0000000+00:00</time></trkpt><trkpt lat="30.69053078" lon="34.91825104"><ele>678.4</ele><time>2013-11-22T09:04:13.0000000+00:00</time></trkpt><trkpt lat="30.69049645" lon="34.91908646"><ele>681.9</ele><time>2013-11-22T09:04:53.0000000+00:00</time></trkpt><trkpt lat="30.6901989" lon="34.91963196"><ele>688.1</ele><time>2013-11-22T09:05:18.0000000+00:00</time></trkpt><trkpt lat="30.68956375" lon="34.91997528"><ele>690.6</ele><time>2013-11-22T09:05:53.0000000+00:00</time></trkpt><trkpt lat="30.6892643" lon="34.92047119"><ele>689.5</ele><time>2013-11-22T09:06:23.0000000+00:00</time></trkpt><trkpt lat="30.68925858" lon="34.92069626"><ele>688.1</ele><time>2013-11-22T09:06:33.0000000+00:00</time></trkpt><trkpt lat="30.68964577" lon="34.92118073"><ele>682.0</ele><time>2013-11-22T09:07:03.0000000+00:00</time></trkpt><trkpt lat="30.68984222" lon="34.92204285"><ele>678.0</ele><time>2013-11-22T09:10:48.0000000+00:00</time></trkpt><trkpt lat="30.68982315" lon="34.92230225"><ele>679.2</ele><time>2013-11-22T09:10:58.0000000+00:00</time></trkpt><trkpt lat="30.68948364" lon="34.92242432"><ele>675.5</ele><time>2013-11-22T09:11:08.0000000+00:00</time></trkpt><trkpt lat="30.6893158" lon="34.9228859"><ele>672.8</ele><time>2013-11-22T09:11:23.0000000+00:00</time></trkpt><trkpt lat="30.6896801" lon="34.92385483"><ele>673.1</ele><time>2013-11-22T09:11:53.0000000+00:00</time></trkpt><trkpt lat="30.69007874" lon="34.92401505"><ele>672.4</ele><time>2013-11-22T09:12:08.0000000+00:00</time></trkpt><trkpt lat="30.69033241" lon="34.92438507"><ele>667.4</ele><time>2013-11-22T09:12:28.0000000+00:00</time></trkpt><trkpt lat="30.69120598" lon="34.92396164"><ele>663.2</ele><time>2013-11-22T09:13:08.0000000+00:00</time></trkpt><trkpt lat="30.69083595" lon="34.9248085"><ele>656.7</ele><time>2013-11-22T09:15:43.0000000+00:00</time></trkpt><trkpt lat="30.6904316" lon="34.92491913"><ele>657.6</ele><time>2013-11-22T09:16:03.0000000+00:00</time></trkpt><trkpt lat="30.69046974" lon="34.92524719"><ele>660.9</ele><time>2013-11-22T09:16:18.0000000+00:00</time></trkpt><trkpt lat="30.69227028" lon="34.92568207"><ele>652.6</ele><time>2013-11-22T09:20:08.0000000+00:00</time></trkpt><trkpt lat="30.69120598" lon="34.92668152"><ele>662.9</ele><time>2013-11-22T09:22:13.0000000+00:00</time></trkpt><trkpt lat="30.68985748" lon="34.92738342"><ele>672.6</ele><time>2013-11-22T09:24:13.0000000+00:00</time></trkpt><trkpt lat="30.68945885" lon="34.92804337"><ele>674.3</ele><time>2013-11-22T09:24:48.0000000+00:00</time></trkpt><trkpt lat="30.68854523" lon="34.92865372"><ele>652.3</ele><time>2013-11-22T09:26:13.0000000+00:00</time></trkpt><trkpt lat="30.68945313" lon="34.92809296"><ele>674.6</ele><time>2013-11-22T09:28:28.0000000+00:00</time></trkpt><trkpt lat="30.68992996" lon="34.92737198"><ele>672.2</ele><time>2013-11-22T09:29:18.0000000+00:00</time></trkpt><trkpt lat="30.69119644" lon="34.9267273"><ele>662.5</ele><time>2013-11-22T09:30:13.0000000+00:00</time></trkpt><trkpt lat="30.69241142" lon="34.92566681"><ele>652.0</ele><time>2013-11-22T09:30:48.0000000+00:00</time></trkpt><trkpt lat="30.69456673" lon="34.92633057"><ele>648.4</ele><time>2013-11-22T09:32:03.0000000+00:00</time></trkpt><trkpt lat="30.69663048" lon="34.92718887"><ele>644.2</ele><time>2013-11-22T09:32:43.0000000+00:00</time></trkpt><trkpt lat="30.69809151" lon="34.92711258"><ele>639.7</ele><time>2013-11-22T09:33:23.0000000+00:00</time></trkpt><trkpt lat="30.698843" lon="34.92809296"><ele>639.8</ele><time>2013-11-22T09:34:23.0000000+00:00</time></trkpt><trkpt lat="30.69935036" lon="34.92831039"><ele>640.5</ele><time>2013-11-22T09:34:38.0000000+00:00</time></trkpt><trkpt lat="30.69969559" lon="34.92887878"><ele>641.1</ele><time>2013-11-22T09:35:08.0000000+00:00</time></trkpt><trkpt lat="30.69950676" lon="34.92974472"><ele>641.0</ele><time>2013-11-22T09:35:38.0000000+00:00</time></trkpt><trkpt lat="30.7006855" lon="34.92968369"><ele>641.4</ele><time>2013-11-22T09:36:33.0000000+00:00</time></trkpt><trkpt lat="30.70132828" lon="34.92943192"><ele>643.5</ele><time>2013-11-22T09:37:03.0000000+00:00</time></trkpt><trkpt lat="30.7016449" lon="34.92887878"><ele>644.5</ele><time>2013-11-22T09:37:28.0000000+00:00</time></trkpt><trkpt lat="30.7022171" lon="34.92848206"><ele>647.3</ele><time>2013-11-22T09:37:58.0000000+00:00</time></trkpt><trkpt lat="30.70247269" lon="34.92855072"><ele>648.8</ele><time>2013-11-22T09:38:13.0000000+00:00</time></trkpt><trkpt lat="30.70280075" lon="34.92899704"><ele>651.1</ele><time>2013-11-22T09:38:43.0000000+00:00</time></trkpt><trkpt lat="30.70308304" lon="34.92903137"><ele>653.7</ele><time>2013-11-22T09:39:03.0000000+00:00</time></trkpt><trkpt lat="30.70294762" lon="34.92947769"><ele>653.4</ele><time>2013-11-22T09:39:18.0000000+00:00</time></trkpt><trkpt lat="30.70335007" lon="34.92990112"><ele>661.0</ele><time>2013-11-22T09:39:43.0000000+00:00</time></trkpt><trkpt lat="30.7034111" lon="34.93091202"><ele>670.9</ele><time>2013-11-22T09:41:03.0000000+00:00</time></trkpt><trkpt lat="30.70357704" lon="34.93135071"><ele>674.7</ele><time>2013-11-22T09:41:28.0000000+00:00</time></trkpt><trkpt lat="30.70294952" lon="34.93179321"><ele>680.5</ele><time>2013-11-22T09:42:23.0000000+00:00</time></trkpt><trkpt lat="30.70203972" lon="34.93180084"><ele>685.1</ele><time>2013-11-22T09:43:48.0000000+00:00</time></trkpt><trkpt lat="30.70093155" lon="34.93241882"><ele>694.0</ele><time>2013-11-22T09:45:48.0000000+00:00</time></trkpt><trkpt lat="30.70054436" lon="34.93291473"><ele>696.4</ele><time>2013-11-22T09:46:48.0000000+00:00</time></trkpt><trkpt lat="30.69960976" lon="34.93335342"><ele>699.9</ele><time>2013-11-22T09:49:13.0000000+00:00</time></trkpt><trkpt lat="30.69928169" lon="34.93407059"><ele>702.2</ele><time>2013-11-22T09:50:08.0000000+00:00</time></trkpt><trkpt lat="30.69856644" lon="34.93489456"><ele>704.6</ele><time>2013-11-22T09:50:58.0000000+00:00</time></trkpt><trkpt lat="30.69730949" lon="34.93587494"><ele>708.6</ele><time>2013-11-22T09:52:13.0000000+00:00</time></trkpt><trkpt lat="30.69717407" lon="34.93656921"><ele>710.4</ele><time>2013-11-22T09:52:43.0000000+00:00</time></trkpt><trkpt lat="30.69658279" lon="34.93706513"><ele>714.2</ele><time>2013-11-22T09:53:28.0000000+00:00</time></trkpt><trkpt lat="30.69602966" lon="34.93784714"><ele>717.1</ele><time>2013-11-22T09:54:18.0000000+00:00</time></trkpt><trkpt lat="30.69463539" lon="34.93901062"><ele>719.5</ele><time>2013-11-22T09:57:33.0000000+00:00</time></trkpt><trkpt lat="30.69444656" lon="34.94091034"><ele>709.1</ele><time>2013-11-22T09:58:03.0000000+00:00</time></trkpt><trkpt lat="30.69391251" lon="34.94143677"><ele>708.3</ele><time>2013-11-22T09:58:38.0000000+00:00</time></trkpt><trkpt lat="30.69383812" lon="34.94318008"><ele>696.3</ele><time>2013-11-22T10:00:23.0000000+00:00</time></trkpt><trkpt lat="30.69345665" lon="34.94395828"><ele>685.0</ele><time>2013-11-22T10:01:48.0000000+00:00</time></trkpt><trkpt lat="30.69345665" lon="34.94437027"><ele>685.0</ele><time>2013-11-22T10:01:58.0000000+00:00</time></trkpt><trkpt lat="30.69326401" lon="34.94431686"><ele>672.8</ele><time>2013-11-22T10:02:18.0000000+00:00</time></trkpt><trkpt lat="30.69382858" lon="34.94448853"><ele>686.0</ele><time>2013-11-22T10:03:18.0000000+00:00</time></trkpt><trkpt lat="30.69447327" lon="34.9457283"><ele>690.3</ele><time>2013-11-22T10:04:13.0000000+00:00</time></trkpt><trkpt lat="30.6952877" lon="34.94643021"><ele>682.6</ele><time>2013-11-22T10:04:38.0000000+00:00</time></trkpt><trkpt lat="30.69566917" lon="34.94768524"><ele>676.2</ele><time>2013-11-22T10:05:08.0000000+00:00</time></trkpt><trkpt lat="30.69543839" lon="34.94836426"><ele>681.3</ele><time>2013-11-22T10:06:08.0000000+00:00</time></trkpt><trkpt lat="30.69633865" lon="34.94880676"><ele>681.9</ele><time>2013-11-22T10:07:23.0000000+00:00</time></trkpt><trkpt lat="30.69667053" lon="34.94937897"><ele>681.3</ele><time>2013-11-22T10:07:43.0000000+00:00</time></trkpt><trkpt lat="30.69689369" lon="34.95063782"><ele>674.4</ele><time>2013-11-22T10:08:38.0000000+00:00</time></trkpt><trkpt lat="30.69768524" lon="34.95069122"><ele>673.2</ele><time>2013-11-22T10:08:58.0000000+00:00</time></trkpt><trkpt lat="30.69794846" lon="34.95087814"><ele>670.8</ele><time>2013-11-22T10:09:08.0000000+00:00</time></trkpt><trkpt lat="30.69882202" lon="34.95079422"><ele>662.8</ele><time>2013-11-22T10:09:23.0000000+00:00</time></trkpt><trkpt lat="30.69962311" lon="34.95126724"><ele>652.8</ele><time>2013-11-22T10:09:44.0000000+00:00</time></trkpt><trkpt lat="30.69942665" lon="34.95220947"><ele>647.4</ele><time>2013-11-22T10:55:09.0000000+00:00</time></trkpt><trkpt lat="30.69893837" lon="34.95283508"><ele>640.1</ele><time>2013-11-22T10:55:44.0000000+00:00</time></trkpt><trkpt lat="30.69888306" lon="34.9532547"><ele>637.1</ele><time>2013-11-22T10:55:54.0000000+00:00</time></trkpt><trkpt lat="30.69849396" lon="34.95362854"><ele>634.0</ele><time>2013-11-22T10:56:09.0000000+00:00</time></trkpt><trkpt lat="30.6973114" lon="34.95419312"><ele>628.6</ele><time>2013-11-22T10:56:54.0000000+00:00</time></trkpt><trkpt lat="30.69606972" lon="34.95411301"><ele>630.4</ele><time>2013-11-22T10:57:34.0000000+00:00</time></trkpt><trkpt lat="30.69560051" lon="34.95391464"><ele>632.6</ele><time>2013-11-22T10:58:04.0000000+00:00</time></trkpt><trkpt lat="30.69533157" lon="34.9536705"><ele>628.8</ele><time>2013-11-22T10:58:44.0000000+00:00</time></trkpt><trkpt lat="30.69511414" lon="34.95222855"><ele>598.8</ele><time>2013-11-22T10:59:44.0000000+00:00</time></trkpt><trkpt lat="30.69458389" lon="34.95211792"><ele>584.9</ele><time>2013-11-22T11:00:14.0000000+00:00</time></trkpt><trkpt lat="30.69437981" lon="34.95174027"><ele>579.7</ele><time>2013-11-22T11:00:34.0000000+00:00</time></trkpt><trkpt lat="30.6938839" lon="34.95146942"><ele>569.8</ele><time>2013-11-22T11:01:04.0000000+00:00</time></trkpt><trkpt lat="30.6935482" lon="34.95152283"><ele>565.3</ele><time>2013-11-22T11:02:29.0000000+00:00</time></trkpt><trkpt lat="30.69306946" lon="34.95132065"><ele>560.8</ele><time>2013-11-22T11:02:44.0000000+00:00</time></trkpt><trkpt lat="30.69303131" lon="34.95070267"><ele>563.4</ele><time>2013-11-22T11:03:04.0000000+00:00</time></trkpt><trkpt lat="30.69264031" lon="34.9503212"><ele>562.8</ele><time>2013-11-22T11:03:24.0000000+00:00</time></trkpt><trkpt lat="30.69062614" lon="34.95095444"><ele>548.8</ele><time>2013-11-22T11:03:59.0000000+00:00</time></trkpt><trkpt lat="30.68908882" lon="34.95050812"><ele>540.1</ele><time>2013-11-22T11:04:24.0000000+00:00</time></trkpt><trkpt lat="30.68776703" lon="34.95037079"><ele>534.0</ele><time>2013-11-22T11:04:44.0000000+00:00</time></trkpt><trkpt lat="30.68675423" lon="34.94985199"><ele>530.8</ele><time>2013-11-22T11:05:09.0000000+00:00</time></trkpt><trkpt lat="30.68611336" lon="34.9498024"><ele>528.6</ele><time>2013-11-22T11:05:24.0000000+00:00</time></trkpt><trkpt lat="30.68577576" lon="34.94934082"><ele>527.6</ele><time>2013-11-22T11:05:39.0000000+00:00</time></trkpt><trkpt lat="30.68512917" lon="34.94653702"><ele>529.4</ele><time>2013-11-22T11:08:14.0000000+00:00</time></trkpt><trkpt lat="30.68492317" lon="34.94613648"><ele>525.2</ele><time>2013-11-22T11:11:39.0000000+00:00</time></trkpt><trkpt lat="30.68424225" lon="34.94525909"><ele>520.2</ele><time>2013-11-22T11:12:04.0000000+00:00</time></trkpt><trkpt lat="30.68354797" lon="34.9449997"><ele>518.3</ele><time>2013-11-22T11:12:24.0000000+00:00</time></trkpt><trkpt lat="30.68216515" lon="34.9439888"><ele>515.1</ele><time>2013-11-22T11:13:09.0000000+00:00</time></trkpt><trkpt lat="30.68101502" lon="34.94253922"><ele>518.1</ele><time>2013-11-22T11:14:54.0000000+00:00</time></trkpt><trkpt lat="30.68009567" lon="34.94172669"><ele>511.4</ele><time>2013-11-22T11:15:14.0000000+00:00</time></trkpt><trkpt lat="30.68037605" lon="34.94067383"><ele>511.9</ele><time>2013-11-22T11:16:39.0000000+00:00</time></trkpt><trkpt lat="30.68126297" lon="34.93944168"><ele>514.0</ele><time>2013-11-22T11:17:44.0000000+00:00</time></trkpt><trkpt lat="30.68104363" lon="34.93862534"><ele>515.8</ele><time>2013-11-22T11:18:14.0000000+00:00</time></trkpt><trkpt lat="30.68063164" lon="34.93812561"><ele>515.2</ele><time>2013-11-22T11:18:54.0000000+00:00</time></trkpt><trkpt lat="30.68091965" lon="34.9377594"><ele>516.6</ele><time>2013-11-22T11:19:09.0000000+00:00</time></trkpt><trkpt lat="30.6814251" lon="34.93629837"><ele>515.3</ele><time>2013-11-22T11:20:09.0000000+00:00</time></trkpt><trkpt lat="30.68060494" lon="34.93502426"><ele>515.8</ele><time>2013-11-22T11:20:54.0000000+00:00</time></trkpt><trkpt lat="30.6800251" lon="34.9336853"><ele>514.4</ele><time>2013-11-22T11:21:44.0000000+00:00</time></trkpt><trkpt lat="30.67959213" lon="34.93361282"><ele>513.2</ele><time>2013-11-22T11:22:09.0000000+00:00</time></trkpt><trkpt lat="30.67873955" lon="34.93304825"><ele>509.7</ele><time>2013-11-22T11:22:49.0000000+00:00</time></trkpt><trkpt lat="30.67922592" lon="34.93219757"><ele>518.0</ele><time>2013-11-22T11:23:49.0000000+00:00</time></trkpt><trkpt lat="30.67925072" lon="34.93188858"><ele>520.2</ele><time>2013-11-22T11:24:04.0000000+00:00</time></trkpt><trkpt lat="30.67855263" lon="34.93180847"><ele>518.0</ele><time>2013-11-22T11:24:49.0000000+00:00</time></trkpt><trkpt lat="30.67814255" lon="34.93110657"><ele>512.6</ele><time>2013-11-22T11:25:09.0000000+00:00</time></trkpt><trkpt lat="30.67856789" lon="34.93026352"><ele>512.9</ele><time>2013-11-22T11:25:34.0000000+00:00</time></trkpt><trkpt lat="30.67877579" lon="34.92921829"><ele>516.7</ele><time>2013-11-22T11:26:09.0000000+00:00</time></trkpt><trkpt lat="30.67860222" lon="34.92895126"><ele>518.7</ele><time>2013-11-22T11:26:24.0000000+00:00</time></trkpt><trkpt lat="30.67773247" lon="34.92875671"><ele>515.0</ele><time>2013-11-22T11:26:49.0000000+00:00</time></trkpt><trkpt lat="30.67763329" lon="34.92848206"><ele>512.3</ele><time>2013-11-22T11:26:54.0000000+00:00</time></trkpt><trkpt lat="30.67830849" lon="34.92795944"><ele>514.1</ele><time>2013-11-22T11:27:39.0000000+00:00</time></trkpt><trkpt lat="30.6784668" lon="34.92764282"><ele>515.9</ele><time>2013-11-22T11:27:54.0000000+00:00</time></trkpt><trkpt lat="30.67829132" lon="34.92695618"><ele>516.4</ele><time>2013-11-22T11:28:24.0000000+00:00</time></trkpt><trkpt lat="30.67866516" lon="34.9261322"><ele>520.9</ele><time>2013-11-22T11:28:59.0000000+00:00</time></trkpt><trkpt lat="30.67875862" lon="34.92537689"><ele>522.9</ele><time>2013-11-22T11:29:44.0000000+00:00</time></trkpt><trkpt lat="30.67915916" lon="34.9246521"><ele>526.3</ele><time>2013-11-22T11:32:49.0000000+00:00</time></trkpt><trkpt lat="30.67615509" lon="34.92457581"><ele>511.6</ele><time>2013-11-22T11:34:04.0000000+00:00</time></trkpt><trkpt lat="30.6658001" lon="34.92568207"><ele>483.6</ele><time>2013-11-22T11:38:44.0000000+00:00</time></trkpt><trkpt lat="30.66090775" lon="34.92560959"><ele>475.3</ele><time>2013-11-22T11:40:34.0000000+00:00</time></trkpt><trkpt lat="30.64367485" lon="34.92114258"><ele>455.7</ele><time>2013-11-22T11:47:49.0000000+00:00</time></trkpt><trkpt lat="30.63955307" lon="34.92082977"><ele>449.8</ele><time>2013-11-22T11:49:24.0000000+00:00</time></trkpt><trkpt lat="30.63800812" lon="34.92054367"><ele>447.8</ele><time>2013-11-22T11:50:04.0000000+00:00</time></trkpt><trkpt lat="30.63731575" lon="34.92066956"><ele>448.2</ele><time>2013-11-22T11:50:24.0000000+00:00</time></trkpt><trkpt lat="30.63600731" lon="34.92053986"><ele>447.4</ele><time>2013-11-22T11:51:14.0000000+00:00</time></trkpt><trkpt lat="30.62221718" lon="34.92115021"><ele>432.7</ele><time>2013-11-22T11:59:24.0000000+00:00</time></trkpt><trkpt lat="30.62088394" lon="34.92072296"><ele>431.3</ele><time>2013-11-22T12:00:04.0000000+00:00</time></trkpt><trkpt lat="30.62080574" lon="34.92059708"><ele>431.4</ele><time>2013-11-22T12:00:09.0000000+00:00</time></trkpt><trkpt lat="30.62100601" lon="34.92002106"><ele>432.3</ele><time>2013-11-22T12:00:34.0000000+00:00</time></trkpt><trkpt lat="30.6205864" lon="34.91981888"><ele>432.5</ele><time>2013-11-22T12:00:54.0000000+00:00</time></trkpt><trkpt lat="30.61990738" lon="34.91978455"><ele>432.8</ele><time>2013-11-22T12:01:24.0000000+00:00</time></trkpt><trkpt lat="30.61977005" lon="34.92012024"><ele>434.2</ele><time>2013-11-22T12:45:29.0000000+00:00</time></trkpt><trkpt lat="30.61995888" lon="34.92045593"><ele>432.6</ele><time>2013-11-22T12:48:04.0000000+00:00</time></trkpt><trkpt lat="30.6193161" lon="34.92018509"><ele>439.2</ele><time>2013-11-22T12:50:09.0000000+00:00</time></trkpt><trkpt lat="30.61845779" lon="34.92014313"><ele>427.3</ele><time>2013-11-22T12:50:44.0000000+00:00</time></trkpt><trkpt lat="30.61835671" lon="34.91996384"><ele>426.2</ele><time>2013-11-22T12:50:49.0000000+00:00</time></trkpt><trkpt lat="30.61803627" lon="34.9187088"><ele>425.1</ele><time>2013-11-22T12:51:24.0000000+00:00</time></trkpt><trkpt lat="30.61832809" lon="34.9174118"><ele>427.6</ele><time>2013-11-22T12:52:24.0000000+00:00</time></trkpt><trkpt lat="30.61858368" lon="34.91700745"><ele>428.1</ele><time>2013-11-22T12:54:44.0000000+00:00</time></trkpt><trkpt lat="30.61901665" lon="34.91667175"><ele>429.2</ele><time>2013-11-22T12:54:59.0000000+00:00</time></trkpt><trkpt lat="30.61997795" lon="34.91692352"><ele>432.7</ele><time>2013-11-22T12:55:24.0000000+00:00</time></trkpt><trkpt lat="30.6207962" lon="34.91675949"><ele>433.7</ele><time>2013-11-22T12:55:54.0000000+00:00</time></trkpt><trkpt lat="30.62273979" lon="34.91546631"><ele>445.1</ele><time>2013-11-22T12:57:04.0000000+00:00</time></trkpt><trkpt lat="30.62355804" lon="34.91531372"><ele>436.7</ele><time>2013-11-22T12:57:29.0000000+00:00</time></trkpt><trkpt lat="30.62392235" lon="34.91487122"><ele>434.9</ele><time>2013-11-22T12:57:39.0000000+00:00</time></trkpt><trkpt lat="30.62402153" lon="34.91383362"><ele>432.9</ele><time>2013-11-22T12:57:54.0000000+00:00</time></trkpt><trkpt lat="30.62389374" lon="34.91337967"><ele>437.7</ele><time>2013-11-22T12:58:14.0000000+00:00</time></trkpt><trkpt lat="30.62316322" lon="34.91223908"><ele>446.3</ele><time>2013-11-22T12:59:14.0000000+00:00</time></trkpt><trkpt lat="30.62145233" lon="34.91077805"><ele>451.5</ele><time>2013-11-22T13:00:19.0000000+00:00</time></trkpt><trkpt lat="30.62119484" lon="34.91029739"><ele>452.0</ele><time>2013-11-22T13:01:19.0000000+00:00</time></trkpt><trkpt lat="30.62141419" lon="34.90988159"><ele>453.8</ele><time>2013-11-22T13:01:39.0000000+00:00</time></trkpt><trkpt lat="30.62119293" lon="34.90952683"><ele>455.5</ele><time>2013-11-22T13:01:59.0000000+00:00</time></trkpt><trkpt lat="30.62133217" lon="34.90921402"><ele>456.1</ele><time>2013-11-22T13:08:29.0000000+00:00</time></trkpt><trkpt lat="30.6211834" lon="34.90951538"><ele>455.4</ele><time>2013-11-22T13:10:29.0000000+00:00</time></trkpt><trkpt lat="30.62141991" lon="34.90981674"><ele>454.1</ele><time>2013-11-22T13:10:49.0000000+00:00</time></trkpt><trkpt lat="30.62120819" lon="34.91019058"><ele>452.0</ele><time>2013-11-22T13:10:59.0000000+00:00</time></trkpt><trkpt lat="30.62105179" lon="34.91020203"><ele>451.6</ele><time>2013-11-22T13:11:04.0000000+00:00</time></trkpt><trkpt lat="30.61992645" lon="34.90864945"><ele>453.5</ele><time>2013-11-22T13:11:59.0000000+00:00</time></trkpt><trkpt lat="30.6188755" lon="34.90491486"><ele>460.5</ele><time>2013-11-22T13:13:39.0000000+00:00</time></trkpt><trkpt lat="30.61797142" lon="34.90316773"><ele>453.6</ele><time>2013-11-22T13:14:09.0000000+00:00</time></trkpt><trkpt lat="30.61746979" lon="34.90274048"><ele>455.8</ele><time>2013-11-22T13:14:19.0000000+00:00</time></trkpt><trkpt lat="30.61743546" lon="34.9021759"><ele>454.3</ele><time>2013-11-22T13:14:29.0000000+00:00</time></trkpt><trkpt lat="30.61813927" lon="34.89770508"><ele>460.8</ele><time>2013-11-22T13:16:14.0000000+00:00</time></trkpt><trkpt lat="30.61795616" lon="34.89698792"><ele>465.4</ele><time>2013-11-22T13:16:44.0000000+00:00</time></trkpt><trkpt lat="30.61717606" lon="34.89613724"><ele>476.0</ele><time>2013-11-22T13:17:49.0000000+00:00</time></trkpt><trkpt lat="30.61703491" lon="34.89530945"><ele>478.7</ele><time>2013-11-22T13:18:19.0000000+00:00</time></trkpt><trkpt lat="30.61725998" lon="34.89217758"><ele>476.1</ele><time>2013-11-22T13:19:19.0000000+00:00</time></trkpt><trkpt lat="30.61702919" lon="34.89121628"><ele>480.5</ele><time>2013-11-22T13:19:59.0000000+00:00</time></trkpt><trkpt lat="30.61738777" lon="34.89043045"><ele>482.1</ele><time>2013-11-22T13:20:24.0000000+00:00</time></trkpt><trkpt lat="30.6176281" lon="34.89047623"><ele>480.9</ele><time>2013-11-22T13:20:39.0000000+00:00</time></trkpt><trkpt lat="30.61742973" lon="34.89036179"><ele>482.3</ele><time>2013-11-22T13:21:14.0000000+00:00</time></trkpt><trkpt lat="30.61761475" lon="34.88943481"><ele>483.5</ele><time>2013-11-22T13:21:39.0000000+00:00</time></trkpt><trkpt lat="30.6175251" lon="34.88892365"><ele>482.9</ele><time>2013-11-22T13:21:49.0000000+00:00</time></trkpt><trkpt lat="30.61723328" lon="34.88829804"><ele>481.4</ele><time>2013-11-22T13:21:59.0000000+00:00</time></trkpt><trkpt lat="30.61553955" lon="34.88594818"><ele>478.9</ele><time>2013-11-22T13:23:14.0000000+00:00</time></trkpt><trkpt lat="30.61413956" lon="34.88469696"><ele>477.1</ele><time>2013-11-22T13:23:59.0000000+00:00</time></trkpt><trkpt lat="30.61400986" lon="34.88349915"><ele>481.4</ele><time>2013-11-22T13:24:39.0000000+00:00</time></trkpt><trkpt lat="30.61310387" lon="34.8813591"><ele>481.8</ele><time>2013-11-22T13:25:34.0000000+00:00</time></trkpt><trkpt lat="30.61193276" lon="34.87956238"><ele>483.0</ele><time>2013-11-22T13:26:24.0000000+00:00</time></trkpt><trkpt lat="30.61047554" lon="34.87789536"><ele>487.4</ele><time>2013-11-22T13:27:34.0000000+00:00</time></trkpt><trkpt lat="30.61021423" lon="34.87653351"><ele>485.0</ele><time>2013-11-22T13:28:04.0000000+00:00</time></trkpt><trkpt lat="30.6096096" lon="34.87562561"><ele>486.1</ele><time>2013-11-22T13:28:29.0000000+00:00</time></trkpt><trkpt lat="30.60730553" lon="34.87429047"><ele>492.1</ele><time>2013-11-22T13:29:49.0000000+00:00</time></trkpt><trkpt lat="30.6044426" lon="34.87418747"><ele>506.1</ele><time>2013-11-22T13:32:24.0000000+00:00</time></trkpt><trkpt lat="30.60378647" lon="34.87355804"><ele>504.8</ele><time>2013-11-22T13:32:49.0000000+00:00</time></trkpt><trkpt lat="30.60308456" lon="34.87211227"><ele>501.7</ele><time>2013-11-22T13:33:24.0000000+00:00</time></trkpt><trkpt lat="30.60215187" lon="34.87134552"><ele>510.0</ele><time>2013-11-22T13:34:34.0000000+00:00</time></trkpt><trkpt lat="30.60209084" lon="34.87100601"><ele>510.1</ele><time>2013-11-22T13:35:29.0000000+00:00</time></trkpt><trkpt lat="30.60292053" lon="34.87004471"><ele>509.7</ele><time>2013-11-22T13:37:04.0000000+00:00</time></trkpt><trkpt lat="30.60496712" lon="34.86628342"><ele>491.8</ele><time>2013-11-22T13:37:39.0000000+00:00</time></trkpt><trkpt lat="30.60563088" lon="34.86539459"><ele>493.6</ele><time>2013-11-22T13:37:49.0000000+00:00</time></trkpt><trkpt lat="30.60653687" lon="34.86465836"><ele>495.1</ele><time>2013-11-22T13:38:04.0000000+00:00</time></trkpt><trkpt lat="30.60881233" lon="34.86342621"><ele>498.0</ele><time>2013-11-22T13:39:04.0000000+00:00</time></trkpt><trkpt lat="30.61224175" lon="34.86011124"><ele>485.9</ele><time>2013-11-22T13:40:04.0000000+00:00</time></trkpt><trkpt lat="30.6128006" lon="34.85874176"><ele>485.7</ele><time>2013-11-22T13:40:34.0000000+00:00</time></trkpt><trkpt lat="30.61314011" lon="34.85649109"><ele>487.1</ele><time>2013-11-22T13:41:19.0000000+00:00</time></trkpt><trkpt lat="30.61423492" lon="34.8537674"><ele>496.5</ele><time>2013-11-22T13:42:39.0000000+00:00</time></trkpt><trkpt lat="30.61489105" lon="34.85120773"><ele>500.6</ele><time>2013-11-22T13:43:49.0000000+00:00</time></trkpt><trkpt lat="30.61521339" lon="34.85045242"><ele>502.1</ele><time>2013-11-22T13:44:09.0000000+00:00</time></trkpt><trkpt lat="30.62102699" lon="34.84370041"><ele>515.3</ele><time>2013-11-22T13:47:54.0000000+00:00</time></trkpt><trkpt lat="30.62111855" lon="34.84358215"><ele>515.7</ele><time>2013-11-22T13:47:59.0000000+00:00</time></trkpt><trkpt lat="30.6210289" lon="34.84345245"><ele>515.7</ele><time>2013-11-22T13:53:49.0000000+00:00</time></trkpt><trkpt lat="30.6213398" lon="34.84343338"><ele>515.7</ele><time>2013-11-22T13:54:19.0000000+00:00</time></trkpt><trkpt lat="30.62348557" lon="34.84141541"><ele>518.8</ele><time>2013-11-22T13:55:29.0000000+00:00</time></trkpt><trkpt lat="30.62398148" lon="34.84069824"><ele>518.6</ele><time>2013-11-22T13:55:44.0000000+00:00</time></trkpt><trkpt lat="30.62417984" lon="34.84013367"><ele>519.3</ele><time>2013-11-22T13:55:54.0000000+00:00</time></trkpt><trkpt lat="30.62503433" lon="34.82495499"><ele>580.1</ele><time>2013-11-22T14:02:59.0000000+00:00</time></trkpt><trkpt lat="30.62454033" lon="34.82339096"><ele>588.3</ele><time>2013-11-22T14:04:19.0000000+00:00</time></trkpt><trkpt lat="30.62252426" lon="34.82027817"><ele>614.1</ele><time>2013-11-22T14:07:19.0000000+00:00</time></trkpt><trkpt lat="30.62190437" lon="34.81963348"><ele>616.7</ele><time>2013-11-22T14:07:59.0000000+00:00</time></trkpt><trkpt lat="30.62055016" lon="34.81905747"><ele>620.0</ele><time>2013-11-22T14:09:14.0000000+00:00</time></trkpt><trkpt lat="30.62034607" lon="34.81873703"><ele>630.1</ele><time>2013-11-22T14:09:34.0000000+00:00</time></trkpt><trkpt lat="30.62037468" lon="34.81852722"><ele>630.6</ele><time>2013-11-22T14:09:44.0000000+00:00</time></trkpt><trkpt lat="30.62063408" lon="34.81833649"><ele>634.5</ele><time>2013-11-22T14:10:04.0000000+00:00</time></trkpt><trkpt lat="30.6226635" lon="34.81892395"><ele>643.9</ele><time>2013-11-22T14:13:14.0000000+00:00</time></trkpt><trkpt lat="30.62312126" lon="34.81880188"><ele>655.4</ele><time>2013-11-22T14:13:39.0000000+00:00</time></trkpt><trkpt lat="30.62291718" lon="34.81843567"><ele>659.5</ele><time>2013-11-22T14:13:54.0000000+00:00</time></trkpt><trkpt lat="30.62128449" lon="34.81770325"><ele>661.7</ele><time>2013-11-22T14:15:34.0000000+00:00</time></trkpt><trkpt lat="30.62129021" lon="34.81744385"><ele>670.6</ele><time>2013-11-22T14:15:49.0000000+00:00</time></trkpt><trkpt lat="30.62332726" lon="34.8180809"><ele>679.9</ele><time>2013-11-22T14:18:54.0000000+00:00</time></trkpt><trkpt lat="30.62352943" lon="34.81781387"><ele>696.5</ele><time>2013-11-22T14:19:19.0000000+00:00</time></trkpt><trkpt lat="30.62209892" lon="34.81707001"><ele>706.2</ele><time>2013-11-22T14:21:09.0000000+00:00</time></trkpt><trkpt lat="30.62101173" lon="34.81578064"><ele>701.4</ele><time>2013-11-22T14:22:34.0000000+00:00</time></trkpt><trkpt lat="30.61970711" lon="34.81495285"><ele>718.2</ele><time>2013-11-22T14:23:39.0000000+00:00</time></trkpt><trkpt lat="30.61783028" lon="34.81074524"><ele>751.7</ele><time>2013-11-22T14:27:44.0000000+00:00</time></trkpt><trkpt lat="30.61662865" lon="34.8094101"><ele>769.9</ele><time>2013-11-22T14:29:59.0000000+00:00</time></trkpt><trkpt lat="30.61615562" lon="34.80917358"><ele>766.9</ele><time>2013-11-22T14:31:29.0000000+00:00</time></trkpt><trkpt lat="30.61532021" lon="34.80921936"><ele>772.4</ele><time>2013-11-22T14:32:19.0000000+00:00</time></trkpt><trkpt lat="30.61205292" lon="34.80869675"><ele>798.6</ele><time>2013-11-22T14:35:39.0000000+00:00</time></trkpt><trkpt lat="30.60997009" lon="34.80810547"><ele>822.4</ele><time>2013-11-22T14:37:54.0000000+00:00</time></trkpt><trkpt lat="30.60963631" lon="34.80754852"><ele>832.1</ele><time>2013-11-22T14:38:24.0000000+00:00</time></trkpt><trkpt lat="30.6096859" lon="34.80709457"><ele>841.3</ele><time>2013-11-22T14:38:44.0000000+00:00</time></trkpt><trkpt lat="30.61084366" lon="34.80540848"><ele>841.2</ele><time>2013-11-22T14:40:29.0000000+00:00</time></trkpt><trkpt lat="30.61084747" lon="34.80474854"><ele>843.6</ele><time>2013-11-22T14:40:59.0000000+00:00</time></trkpt><trkpt lat="30.61086083" lon="34.80490494"><ele>843.3</ele><time>2013-11-22T14:41:09.0000000+00:00</time></trkpt><trkpt lat="30.60934639" lon="34.80602646"><ele>853.9</ele><time>2013-11-22T14:42:29.0000000+00:00</time></trkpt><trkpt lat="30.608778" lon="34.80574417"><ele>855.7</ele><time>2013-11-22T14:42:54.0000000+00:00</time></trkpt><trkpt lat="30.60834885" lon="34.80585861"><ele>858.2</ele><time>2013-11-22T14:43:24.0000000+00:00</time></trkpt><trkpt lat="30.60848618" lon="34.80633926"><ele>861.3</ele><time>2013-11-22T14:44:29.0000000+00:00</time></trkpt><trkpt lat="30.60836411" lon="34.80648041"><ele>858.0</ele><time>2013-11-22T14:44:44.0000000+00:00</time></trkpt><trkpt lat="30.60810089" lon="34.80628586"><ele>856.5</ele><time>2013-11-22T14:45:09.0000000+00:00</time></trkpt><trkpt lat="30.60791206" lon="34.80636215"><ele>840.5</ele><time>2013-11-22T14:45:49.0000000+00:00</time></trkpt><trkpt lat="30.60791397" lon="34.80614853"><ele>851.0</ele><time>2013-11-22T14:50:54.0000000+00:00</time></trkpt><trkpt lat="30.60768318" lon="34.80605698"><ele>831.9</ele><time>2013-11-22T14:51:39.0000000+00:00</time></trkpt><trkpt lat="30.607584" lon="34.80578613"><ele>834.3</ele><time>2013-11-22T14:52:14.0000000+00:00</time></trkpt><trkpt lat="30.60771751" lon="34.80521011"><ele>848.0</ele><time>2013-11-22T14:52:44.0000000+00:00</time></trkpt><trkpt lat="30.60837364" lon="34.80463791"><ele>848.9</ele><time>2013-11-22T14:53:14.0000000+00:00</time></trkpt><trkpt lat="30.60888863" lon="34.80448532"><ele>847.7</ele><time>2013-11-22T14:53:34.0000000+00:00</time></trkpt><trkpt lat="30.60934258" lon="34.80413437"><ele>848.0</ele><time>2013-11-22T14:53:49.0000000+00:00</time></trkpt><trkpt lat="30.61082649" lon="34.80474472"><ele>843.6</ele><time>2013-11-22T14:54:24.0000000+00:00</time></trkpt><trkpt lat="30.61213684" lon="34.80397034"><ele>841.2</ele><time>2013-11-22T14:56:39.0000000+00:00</time></trkpt><trkpt lat="30.61248779" lon="34.8038826"><ele>838.6</ele><time>2013-11-22T14:56:49.0000000+00:00</time></trkpt><trkpt lat="30.61265564" lon="34.80425644"><ele>838.1</ele><time>2013-11-22T14:57:04.0000000+00:00</time></trkpt><trkpt lat="30.61295128" lon="34.80435181"><ele>835.9</ele><time>2013-11-22T14:57:14.0000000+00:00</time></trkpt><trkpt lat="30.61341286" lon="34.80384064"><ele>833.9</ele><time>2013-11-22T14:57:29.0000000+00:00</time></trkpt><trkpt lat="30.61453056" lon="34.80356598"><ele>834.5</ele><time>2013-11-22T14:57:54.0000000+00:00</time></trkpt><trkpt lat="30.62196159" lon="34.80384445"><ele>824.8</ele><time>2013-11-22T15:00:24.0000000+00:00</time></trkpt><trkpt lat="30.62212563" lon="34.80362701"><ele>825.6</ele><time>2013-11-22T15:00:29.0000000+00:00</time></trkpt><trkpt lat="30.62192535" lon="34.80171967"><ele>833.8</ele><time>2013-11-22T15:01:29.0000000+00:00</time></trkpt><trkpt lat="30.62171173" lon="34.80111694"><ele>830.8</ele><time>2013-11-22T15:01:54.0000000+00:00</time></trkpt><trkpt lat="30.6212635" lon="34.80126953"><ele>830.3</ele><time>2013-11-22T15:02:09.0000000+00:00</time></trkpt><trkpt lat="30.62122154" lon="34.80117035"><ele>830.0</ele><time>2013-11-22T15:02:14.0000000+00:00</time></trkpt><trkpt lat="30.62135124" lon="34.80124664"><ele>830.6</ele><time>2013-11-22T15:02:24.0000000+00:00</time></trkpt><trkpt lat="30.62167358" lon="34.80104828"><ele>830.5</ele><time>2013-11-22T15:02:39.0000000+00:00</time></trkpt><trkpt lat="30.62128449" lon="34.80030441"><ele>828.1</ele><time>2013-11-22T15:03:04.0000000+00:00</time></trkpt><trkpt lat="30.61971855" lon="34.80118561"><ele>834.3</ele><time>2013-11-22T15:04:19.0000000+00:00</time></trkpt><trkpt lat="30.61952591" lon="34.80225754"><ele>835.7</ele><time>2013-11-22T15:05:24.0000000+00:00</time></trkpt><trkpt lat="30.61870384" lon="34.80230331"><ele>835.9</ele><time>2013-11-22T15:06:39.0000000+00:00</time></trkpt><trkpt lat="30.6185379" lon="34.80205154"><ele>837.1</ele><time>2013-11-22T15:06:49.0000000+00:00</time></trkpt><trkpt lat="30.61860466" lon="34.80169678"><ele>836.8</ele><time>2013-11-22T15:08:49.0000000+00:00</time></trkpt></trkseg><trkseg><trkpt lat="30.6186409" lon="34.80186462"><ele>836.9</ele><time>2013-11-23T05:37:04.0000000+00:00</time></trkpt><trkpt lat="30.6186161" lon="34.80152893"><ele>836.3</ele><time>2013-11-23T05:45:34.0000000+00:00</time></trkpt><trkpt lat="30.61847115" lon="34.80153656"><ele>836.4</ele><time>2013-11-23T05:46:44.0000000+00:00</time></trkpt><trkpt lat="30.61855125" lon="34.80173111"><ele>836.9</ele><time>2013-11-23T05:49:59.0000000+00:00</time></trkpt><trkpt lat="30.61843872" lon="34.80052948"><ele>832.5</ele><time>2013-11-23T05:50:29.0000000+00:00</time></trkpt><trkpt lat="30.6183033" lon="34.80040741"><ele>832.2</ele><time>2013-11-23T05:50:34.0000000+00:00</time></trkpt><trkpt lat="30.61781883" lon="34.80061722"><ele>834.4</ele><time>2013-11-23T05:50:49.0000000+00:00</time></trkpt><trkpt lat="30.61673164" lon="34.80046082"><ele>835.5</ele><time>2013-11-23T05:51:19.0000000+00:00</time></trkpt><trkpt lat="30.61652565" lon="34.80068207"><ele>836.3</ele><time>2013-11-23T05:51:29.0000000+00:00</time></trkpt><trkpt lat="30.61639786" lon="34.80140305"><ele>838.5</ele><time>2013-11-23T05:51:49.0000000+00:00</time></trkpt><trkpt lat="30.61624527" lon="34.80331802"><ele>839.7</ele><time>2013-11-23T05:52:29.0000000+00:00</time></trkpt><trkpt lat="30.61608505" lon="34.80344009"><ele>839.8</ele><time>2013-11-23T05:52:34.0000000+00:00</time></trkpt><trkpt lat="30.61421585" lon="34.80345917"><ele>835.2</ele><time>2013-11-23T05:53:19.0000000+00:00</time></trkpt><trkpt lat="30.61325645" lon="34.80379486"><ele>835.4</ele><time>2013-11-23T05:53:44.0000000+00:00</time></trkpt><trkpt lat="30.61277199" lon="34.80368042"><ele>836.6</ele><time>2013-11-23T05:53:59.0000000+00:00</time></trkpt><trkpt lat="30.61223221" lon="34.8042984"><ele>840.0</ele><time>2013-11-23T05:54:34.0000000+00:00</time></trkpt><trkpt lat="30.61248398" lon="34.8047142"><ele>838.6</ele><time>2013-11-23T05:55:04.0000000+00:00</time></trkpt><trkpt lat="30.61223221" lon="34.80438232"><ele>839.9</ele><time>2013-11-23T06:08:19.0000000+00:00</time></trkpt><trkpt lat="30.61310005" lon="34.80433655"><ele>835.0</ele><time>2013-11-23T06:08:44.0000000+00:00</time></trkpt><trkpt lat="30.61313438" lon="34.80382919"><ele>835.8</ele><time>2013-11-23T06:08:54.0000000+00:00</time></trkpt><trkpt lat="30.61272049" lon="34.8036232"><ele>836.7</ele><time>2013-11-23T06:09:09.0000000+00:00</time></trkpt><trkpt lat="30.61167336" lon="34.8025856"><ele>837.7</ele><time>2013-11-23T06:09:49.0000000+00:00</time></trkpt><trkpt lat="30.61049461" lon="34.80192184"><ele>842.2</ele><time>2013-11-23T06:10:39.0000000+00:00</time></trkpt><trkpt lat="30.60894966" lon="34.80076599"><ele>849.6</ele><time>2013-11-23T06:12:04.0000000+00:00</time></trkpt><trkpt lat="30.6082058" lon="34.79964829"><ele>845.3</ele><time>2013-11-23T06:12:39.0000000+00:00</time></trkpt><trkpt lat="30.60805321" lon="34.79806519"><ele>837.8</ele><time>2013-11-23T06:13:04.0000000+00:00</time></trkpt><trkpt lat="30.6091938" lon="34.79554367"><ele>825.7</ele><time>2013-11-23T06:13:44.0000000+00:00</time></trkpt><trkpt lat="30.60813332" lon="34.79774475"><ele>836.2</ele><time>2013-11-23T06:14:49.0000000+00:00</time></trkpt><trkpt lat="30.6078186" lon="34.79905701"><ele>842.4</ele><time>2013-11-23T06:15:34.0000000+00:00</time></trkpt><trkpt lat="30.60839462" lon="34.80041504"><ele>849.9</ele><time>2013-11-23T06:16:39.0000000+00:00</time></trkpt><trkpt lat="30.6093502" lon="34.80135346"><ele>845.6</ele><time>2013-11-23T06:17:09.0000000+00:00</time></trkpt><trkpt lat="30.60930443" lon="34.80160523"><ele>844.7</ele><time>2013-11-23T06:17:14.0000000+00:00</time></trkpt><trkpt lat="30.60911942" lon="34.801754"><ele>845.4</ele><time>2013-11-23T06:17:19.0000000+00:00</time></trkpt><trkpt lat="30.60853005" lon="34.80152512"><ele>847.5</ele><time>2013-11-23T06:17:39.0000000+00:00</time></trkpt><trkpt lat="30.6077404" lon="34.80082321"><ele>850.8</ele><time>2013-11-23T06:18:19.0000000+00:00</time></trkpt><trkpt lat="30.6058197" lon="34.80217362"><ele>864.0</ele><time>2013-11-23T06:19:49.0000000+00:00</time></trkpt><trkpt lat="30.60580826" lon="34.80239868"><ele>864.5</ele><time>2013-11-23T06:19:59.0000000+00:00</time></trkpt><trkpt lat="30.60665512" lon="34.80386734"><ele>862.9</ele><time>2013-11-23T06:20:39.0000000+00:00</time></trkpt><trkpt lat="30.60666847" lon="34.80400848"><ele>862.1</ele><time>2013-11-23T06:20:44.0000000+00:00</time></trkpt><trkpt lat="30.60624123" lon="34.80438232"><ele>824.6</ele><time>2013-11-23T06:22:04.0000000+00:00</time></trkpt><trkpt lat="30.60831833" lon="34.80276108"><ele>850.2</ele><time>2013-11-23T06:24:44.0000000+00:00</time></trkpt><trkpt lat="30.60836792" lon="34.80143356"><ele>847.7</ele><time>2013-11-23T06:25:14.0000000+00:00</time></trkpt><trkpt lat="30.60624313" lon="34.79956436"><ele>848.9</ele><time>2013-11-23T06:26:59.0000000+00:00</time></trkpt><trkpt lat="30.6061306" lon="34.79938126"><ele>847.8</ele><time>2013-11-23T06:27:04.0000000+00:00</time></trkpt><trkpt lat="30.60643196" lon="34.79876328"><ele>843.8</ele><time>2013-11-23T06:27:19.0000000+00:00</time></trkpt><trkpt lat="30.60559464" lon="34.79776764"><ele>844.6</ele><time>2013-11-23T06:28:04.0000000+00:00</time></trkpt><trkpt lat="30.6052208" lon="34.79779816"><ele>845.4</ele><time>2013-11-23T06:28:29.0000000+00:00</time></trkpt><trkpt lat="30.60381317" lon="34.79679108"><ele>858.6</ele><time>2013-11-23T06:30:19.0000000+00:00</time></trkpt><trkpt lat="30.6029911" lon="34.79724884"><ele>864.8</ele><time>2013-11-23T06:31:19.0000000+00:00</time></trkpt><trkpt lat="30.60277367" lon="34.79721451"><ele>854.5</ele><time>2013-11-23T06:44:59.0000000+00:00</time></trkpt><trkpt lat="30.60311317" lon="34.79718781"><ele>864.8</ele><time>2013-11-23T06:45:39.0000000+00:00</time></trkpt><trkpt lat="30.6035881" lon="34.79683304"><ele>861.4</ele><time>2013-11-23T06:45:54.0000000+00:00</time></trkpt><trkpt lat="30.60383606" lon="34.79688263"><ele>857.4</ele><time>2013-11-23T06:45:59.0000000+00:00</time></trkpt><trkpt lat="30.60556984" lon="34.79814911"><ele>844.1</ele><time>2013-11-23T06:46:29.0000000+00:00</time></trkpt><trkpt lat="30.60581017" lon="34.79771042"><ele>843.5</ele><time>2013-11-23T06:46:54.0000000+00:00</time></trkpt><trkpt lat="30.60667229" lon="34.79717255"><ele>839.0</ele><time>2013-11-23T06:47:14.0000000+00:00</time></trkpt><trkpt lat="30.60689735" lon="34.79686356"><ele>838.1</ele><time>2013-11-23T06:47:19.0000000+00:00</time></trkpt><trkpt lat="30.60706139" lon="34.79605103"><ele>836.3</ele><time>2013-11-23T06:47:29.0000000+00:00</time></trkpt><trkpt lat="30.60702515" lon="34.79513931"><ele>834.6</ele><time>2013-11-23T06:47:44.0000000+00:00</time></trkpt><trkpt lat="30.60732842" lon="34.79456711"><ele>837.2</ele><time>2013-11-23T06:48:04.0000000+00:00</time></trkpt><trkpt lat="30.60783958" lon="34.79514313"><ele>829.9</ele><time>2013-11-23T06:48:29.0000000+00:00</time></trkpt><trkpt lat="30.60934258" lon="34.79514694"><ele>824.3</ele><time>2013-11-23T06:49:04.0000000+00:00</time></trkpt><trkpt lat="30.61043739" lon="34.79314804"><ele>820.2</ele><time>2013-11-23T06:49:59.0000000+00:00</time></trkpt><trkpt lat="30.61058807" lon="34.79224014"><ele>819.4</ele><time>2013-11-23T06:50:19.0000000+00:00</time></trkpt><trkpt lat="30.61030006" lon="34.79166031"><ele>818.8</ele><time>2013-11-23T06:50:34.0000000+00:00</time></trkpt><trkpt lat="30.60905838" lon="34.79069138"><ele>823.2</ele><time>2013-11-23T06:51:24.0000000+00:00</time></trkpt><trkpt lat="30.60873604" lon="34.78995132"><ele>823.3</ele><time>2013-11-23T06:51:44.0000000+00:00</time></trkpt><trkpt lat="30.60879898" lon="34.78917694"><ele>824.9</ele><time>2013-11-23T06:51:59.0000000+00:00</time></trkpt><trkpt lat="30.60944748" lon="34.78776169"><ele>828.4</ele><time>2013-11-23T06:52:29.0000000+00:00</time></trkpt><trkpt lat="30.60942078" lon="34.78731537"><ele>829.8</ele><time>2013-11-23T06:52:39.0000000+00:00</time></trkpt><trkpt lat="30.6091919" lon="34.78689194"><ele>830.6</ele><time>2013-11-23T06:52:54.0000000+00:00</time></trkpt><trkpt lat="30.60803413" lon="34.78601074"><ele>835.4</ele><time>2013-11-23T06:53:39.0000000+00:00</time></trkpt><trkpt lat="30.6064415" lon="34.78530502"><ele>843.2</ele><time>2013-11-23T06:54:44.0000000+00:00</time></trkpt><trkpt lat="30.60559845" lon="34.78355789"><ele>842.4</ele><time>2013-11-23T06:55:29.0000000+00:00</time></trkpt><trkpt lat="30.60377693" lon="34.78281784"><ele>845.9</ele><time>2013-11-23T06:56:24.0000000+00:00</time></trkpt><trkpt lat="30.60520554" lon="34.78297424"><ele>848.1</ele><time>2013-11-23T06:57:04.0000000+00:00</time></trkpt><trkpt lat="30.60610771" lon="34.78223038"><ele>852.9</ele><time>2013-11-23T06:57:34.0000000+00:00</time></trkpt><trkpt lat="30.60648727" lon="34.78148651"><ele>845.4</ele><time>2013-11-23T06:57:44.0000000+00:00</time></trkpt><trkpt lat="30.60669327" lon="34.77991104"><ele>839.3</ele><time>2013-11-23T06:57:59.0000000+00:00</time></trkpt><trkpt lat="30.60743332" lon="34.77772522"><ele>833.8</ele><time>2013-11-23T06:58:24.0000000+00:00</time></trkpt><trkpt lat="30.60824204" lon="34.77716065"><ele>831.4</ele><time>2013-11-23T06:58:34.0000000+00:00</time></trkpt><trkpt lat="30.60872841" lon="34.77709961"><ele>830.7</ele><time>2013-11-23T06:58:39.0000000+00:00</time></trkpt><trkpt lat="30.60999107" lon="34.77767944"><ele>827.9</ele><time>2013-11-23T06:59:34.0000000+00:00</time></trkpt><trkpt lat="30.61040115" lon="34.77696991"><ele>823.9</ele><time>2013-11-23T07:02:09.0000000+00:00</time></trkpt><trkpt lat="30.60999107" lon="34.777668"><ele>827.7</ele><time>2013-11-23T08:08:24.0000000+00:00</time></trkpt><trkpt lat="30.6085701" lon="34.7771492"><ele>831.9</ele><time>2013-11-23T08:09:14.0000000+00:00</time></trkpt><trkpt lat="30.60800552" lon="34.77727509"><ele>831.7</ele><time>2013-11-23T08:09:34.0000000+00:00</time></trkpt><trkpt lat="30.60739708" lon="34.77785111"><ele>834.5</ele><time>2013-11-23T08:09:59.0000000+00:00</time></trkpt><trkpt lat="30.6072197" lon="34.77815247"><ele>834.4</ele><time>2013-11-23T08:10:09.0000000+00:00</time></trkpt><trkpt lat="30.60700989" lon="34.77931595"><ele>838.1</ele><time>2013-11-23T08:10:39.0000000+00:00</time></trkpt><trkpt lat="30.60660172" lon="34.78023529"><ele>839.6</ele><time>2013-11-23T08:11:04.0000000+00:00</time></trkpt><trkpt lat="30.60639572" lon="34.78177643"><ele>847.2</ele><time>2013-11-23T08:12:09.0000000+00:00</time></trkpt><trkpt lat="30.60562134" lon="34.78279495"><ele>852.8</ele><time>2013-11-23T08:12:54.0000000+00:00</time></trkpt><trkpt lat="30.60506439" lon="34.78302002"><ele>846.9</ele><time>2013-11-23T08:13:09.0000000+00:00</time></trkpt><trkpt lat="30.60319901" lon="34.78268433"><ele>847.5</ele><time>2013-11-23T08:13:44.0000000+00:00</time></trkpt><trkpt lat="30.60287285" lon="34.78231812"><ele>849.9</ele><time>2013-11-23T08:13:54.0000000+00:00</time></trkpt><trkpt lat="30.60248375" lon="34.78110504"><ele>852.6</ele><time>2013-11-23T08:14:19.0000000+00:00</time></trkpt><trkpt lat="30.60118866" lon="34.77991104"><ele>859.7</ele><time>2013-11-23T08:15:09.0000000+00:00</time></trkpt><trkpt lat="30.60059166" lon="34.77861404"><ele>865.6</ele><time>2013-11-23T08:15:44.0000000+00:00</time></trkpt><trkpt lat="30.60074043" lon="34.77806473"><ele>866.8</ele><time>2013-11-23T08:15:54.0000000+00:00</time></trkpt><trkpt lat="30.60226631" lon="34.77574539"><ele>849.8</ele><time>2013-11-23T08:16:19.0000000+00:00</time></trkpt><trkpt lat="30.60232735" lon="34.77500153"><ele>843.1</ele><time>2013-11-23T08:16:24.0000000+00:00</time></trkpt><trkpt lat="30.60078239" lon="34.77252197"><ele>849.1</ele><time>2013-11-23T08:17:04.0000000+00:00</time></trkpt><trkpt lat="30.59865761" lon="34.77169037"><ele>854.0</ele><time>2013-11-23T08:18:14.0000000+00:00</time></trkpt><trkpt lat="30.59815216" lon="34.77003098"><ele>858.5</ele><time>2013-11-23T08:18:49.0000000+00:00</time></trkpt><trkpt lat="30.5981369" lon="34.76940918"><ele>858.1</ele><time>2013-11-23T08:18:59.0000000+00:00</time></trkpt><trkpt lat="30.59875488" lon="34.76620102"><ele>843.2</ele><time>2013-11-23T08:19:29.0000000+00:00</time></trkpt><trkpt lat="30.59863281" lon="34.76557922"><ele>842.7</ele><time>2013-11-23T08:20:09.0000000+00:00</time></trkpt><trkpt lat="30.59872437" lon="34.76615524"><ele>844.2</ele><time>2013-11-23T08:20:29.0000000+00:00</time></trkpt><trkpt lat="30.59823418" lon="34.76805115"><ele>847.0</ele><time>2013-11-23T08:21:44.0000000+00:00</time></trkpt><trkpt lat="30.59860611" lon="34.76773834"><ele>846.3</ele><time>2013-11-23T08:21:59.0000000+00:00</time></trkpt><trkpt lat="30.59899712" lon="34.76648712"><ele>840.6</ele><time>2013-11-23T08:22:19.0000000+00:00</time></trkpt><trkpt lat="30.60081101" lon="34.76377487"><ele>831.8</ele><time>2013-11-23T08:23:04.0000000+00:00</time></trkpt><trkpt lat="30.6014061" lon="34.7612114"><ele>827.2</ele><time>2013-11-23T08:23:44.0000000+00:00</time></trkpt><trkpt lat="30.60250282" lon="34.75894165"><ele>822.6</ele><time>2013-11-23T08:24:24.0000000+00:00</time></trkpt><trkpt lat="30.60258675" lon="34.75797653"><ele>821.2</ele><time>2013-11-23T08:24:39.0000000+00:00</time></trkpt><trkpt lat="30.60229492" lon="34.75642777"><ele>819.2</ele><time>2013-11-23T08:25:04.0000000+00:00</time></trkpt><trkpt lat="30.60244751" lon="34.75553894"><ele>817.8</ele><time>2013-11-23T08:25:19.0000000+00:00</time></trkpt><trkpt lat="30.60329628" lon="34.75466919"><ele>815.0</ele><time>2013-11-23T08:25:39.0000000+00:00</time></trkpt><trkpt lat="30.60534287" lon="34.75109863"><ele>808.6</ele><time>2013-11-23T08:26:44.0000000+00:00</time></trkpt><trkpt lat="30.60751915" lon="34.74913406"><ele>805.2</ele><time>2013-11-23T08:27:39.0000000+00:00</time></trkpt><trkpt lat="30.60904694" lon="34.74897766"><ele>803.2</ele><time>2013-11-23T08:28:09.0000000+00:00</time></trkpt><trkpt lat="30.61021233" lon="34.74843216"><ele>802.3</ele><time>2013-11-23T08:28:34.0000000+00:00</time></trkpt><trkpt lat="30.60964203" lon="34.74612045"><ele>803.1</ele><time>2013-11-23T08:29:24.0000000+00:00</time></trkpt><trkpt lat="30.60703278" lon="34.74461365"><ele>808.2</ele><time>2013-11-23T08:31:04.0000000+00:00</time></trkpt><trkpt lat="30.60440445" lon="34.74378586"><ele>814.6</ele><time>2013-11-23T08:32:29.0000000+00:00</time></trkpt><trkpt lat="30.60381317" lon="34.74388886"><ele>819.0</ele><time>2013-11-23T08:32:49.0000000+00:00</time></trkpt><trkpt lat="30.60273743" lon="34.74253082"><ele>817.7</ele><time>2013-11-23T08:33:34.0000000+00:00</time></trkpt><trkpt lat="30.60135651" lon="34.74206543"><ele>818.8</ele><time>2013-11-23T08:34:19.0000000+00:00</time></trkpt><trkpt lat="30.6012497" lon="34.74154282"><ele>818.5</ele><time>2013-11-23T08:34:34.0000000+00:00</time></trkpt><trkpt lat="30.59994316" lon="34.7400589"><ele>823.5</ele><time>2013-11-23T08:35:39.0000000+00:00</time></trkpt><trkpt lat="30.59947586" lon="34.73978424"><ele>823.6</ele><time>2013-11-23T08:35:59.0000000+00:00</time></trkpt><trkpt lat="30.59873581" lon="34.73972321"><ele>825.3</ele><time>2013-11-23T08:36:24.0000000+00:00</time></trkpt><trkpt lat="30.59800148" lon="34.73858261"><ele>825.8</ele><time>2013-11-23T08:37:44.0000000+00:00</time></trkpt><trkpt lat="30.59772492" lon="34.7376709"><ele>828.7</ele><time>2013-11-23T08:38:09.0000000+00:00</time></trkpt><trkpt lat="30.5956955" lon="34.73740006"><ele>833.2</ele><time>2013-11-23T08:39:14.0000000+00:00</time></trkpt><trkpt lat="30.59449196" lon="34.73612976"><ele>837.0</ele><time>2013-11-23T08:40:09.0000000+00:00</time></trkpt><trkpt lat="30.5935669" lon="34.73572922"><ele>838.5</ele><time>2013-11-23T08:40:34.0000000+00:00</time></trkpt><trkpt lat="30.59244728" lon="34.73557663"><ele>839.9</ele><time>2013-11-23T08:41:09.0000000+00:00</time></trkpt><trkpt lat="30.59187317" lon="34.73572159"><ele>840.4</ele><time>2013-11-23T08:41:34.0000000+00:00</time></trkpt><trkpt lat="30.59016037" lon="34.73661804"><ele>844.6</ele><time>2013-11-23T08:42:34.0000000+00:00</time></trkpt><trkpt lat="30.58848953" lon="34.7359848"><ele>846.8</ele><time>2013-11-23T08:43:29.0000000+00:00</time></trkpt><trkpt lat="30.58740997" lon="34.73596573"><ele>850.4</ele><time>2013-11-23T08:44:04.0000000+00:00</time></trkpt><trkpt lat="30.58646774" lon="34.73617172"><ele>852.9</ele><time>2013-11-23T08:44:44.0000000+00:00</time></trkpt><trkpt lat="30.58608055" lon="34.73651886"><ele>856.0</ele><time>2013-11-23T08:45:04.0000000+00:00</time></trkpt><trkpt lat="30.58539581" lon="34.73762131"><ele>861.6</ele><time>2013-11-23T08:46:24.0000000+00:00</time></trkpt><trkpt lat="30.58482742" lon="34.73788834"><ele>864.5</ele><time>2013-11-23T08:46:59.0000000+00:00</time></trkpt><trkpt lat="30.58409691" lon="34.73768997"><ele>853.3</ele><time>2013-11-23T08:52:29.0000000+00:00</time></trkpt><trkpt lat="30.58366966" lon="34.73810577"><ele>847.2</ele><time>2013-11-23T08:53:29.0000000+00:00</time></trkpt><trkpt lat="30.58322334" lon="34.73924637"><ele>830.8</ele><time>2013-11-23T08:54:19.0000000+00:00</time></trkpt><trkpt lat="30.58268929" lon="34.7400856"><ele>820.5</ele><time>2013-11-23T08:54:49.0000000+00:00</time></trkpt><trkpt lat="30.5822525" lon="34.74038696"><ele>809.4</ele><time>2013-11-23T08:55:24.0000000+00:00</time></trkpt><trkpt lat="30.58220863" lon="34.74070358"><ele>807.5</ele><time>2013-11-23T08:56:09.0000000+00:00</time></trkpt><trkpt lat="30.58184242" lon="34.74038696"><ele>803.1</ele><time>2013-11-23T08:57:04.0000000+00:00</time></trkpt><trkpt lat="30.58119011" lon="34.74052429"><ele>795.2</ele><time>2013-11-23T08:58:14.0000000+00:00</time></trkpt><trkpt lat="30.58105278" lon="34.74027634"><ele>788.2</ele><time>2013-11-23T09:00:29.0000000+00:00</time></trkpt><trkpt lat="30.58049011" lon="34.74089432"><ele>773.4</ele><time>2013-11-23T09:01:14.0000000+00:00</time></trkpt><trkpt lat="30.58023644" lon="34.74063873"><ele>767.1</ele><time>2013-11-23T09:01:49.0000000+00:00</time></trkpt><trkpt lat="30.58012009" lon="34.73945999"><ele>761.6</ele><time>2013-11-23T09:02:19.0000000+00:00</time></trkpt><trkpt lat="30.57966232" lon="34.73905945"><ele>752.6</ele><time>2013-11-23T09:03:34.0000000+00:00</time></trkpt><trkpt lat="30.57892799" lon="34.7389679"><ele>735.1</ele><time>2013-11-23T09:07:19.0000000+00:00</time></trkpt><trkpt lat="30.57895088" lon="34.7385025"><ele>732.7</ele><time>2013-11-23T09:08:49.0000000+00:00</time></trkpt><trkpt lat="30.57880783" lon="34.73835373"><ele>727.7</ele><time>2013-11-23T09:08:59.0000000+00:00</time></trkpt><trkpt lat="30.57836914" lon="34.73816299"><ele>716.1</ele><time>2013-11-23T09:09:54.0000000+00:00</time></trkpt><trkpt lat="30.57729149" lon="34.73720169"><ele>693.0</ele><time>2013-11-23T09:11:19.0000000+00:00</time></trkpt><trkpt lat="30.57693481" lon="34.73666763"><ele>688.1</ele><time>2013-11-23T09:12:09.0000000+00:00</time></trkpt><trkpt lat="30.57640266" lon="34.73655701"><ele>673.4</ele><time>2013-11-23T09:13:14.0000000+00:00</time></trkpt><trkpt lat="30.57635307" lon="34.73611832"><ele>672.3</ele><time>2013-11-23T09:13:34.0000000+00:00</time></trkpt><trkpt lat="30.57656288" lon="34.73572159"><ele>668.6</ele><time>2013-11-23T09:13:49.0000000+00:00</time></trkpt><trkpt lat="30.57649231" lon="34.73529053"><ele>664.0</ele><time>2013-11-23T09:13:59.0000000+00:00</time></trkpt><trkpt lat="30.57633209" lon="34.73511505"><ele>661.2</ele><time>2013-11-23T09:14:04.0000000+00:00</time></trkpt><trkpt lat="30.57551956" lon="34.73494721"><ele>646.2</ele><time>2013-11-23T09:14:34.0000000+00:00</time></trkpt><trkpt lat="30.57492256" lon="34.73603439"><ele>641.3</ele><time>2013-11-23T09:15:04.0000000+00:00</time></trkpt><trkpt lat="30.57511902" lon="34.73644638"><ele>639.6</ele><time>2013-11-23T09:15:34.0000000+00:00</time></trkpt><trkpt lat="30.57505226" lon="34.73694992"><ele>638.3</ele><time>2013-11-23T09:15:49.0000000+00:00</time></trkpt><trkpt lat="30.57465744" lon="34.7376442"><ele>633.7</ele><time>2013-11-23T09:16:09.0000000+00:00</time></trkpt><trkpt lat="30.57449722" lon="34.73828507"><ele>632.1</ele><time>2013-11-23T09:16:59.0000000+00:00</time></trkpt><trkpt lat="30.57331085" lon="34.73924255"><ele>626.2</ele><time>2013-11-23T09:17:44.0000000+00:00</time></trkpt><trkpt lat="30.57334328" lon="34.73946381"><ele>626.0</ele><time>2013-11-23T09:17:49.0000000+00:00</time></trkpt><trkpt lat="30.5731144" lon="34.7399025"><ele>626.0</ele><time>2013-11-23T09:18:04.0000000+00:00</time></trkpt><trkpt lat="30.57222366" lon="34.74065781"><ele>622.2</ele><time>2013-11-23T09:19:04.0000000+00:00</time></trkpt><trkpt lat="30.57200432" lon="34.74106979"><ele>620.7</ele><time>2013-11-23T09:19:14.0000000+00:00</time></trkpt><trkpt lat="30.56946182" lon="34.74259949"><ele>610.5</ele><time>2013-11-23T09:20:59.0000000+00:00</time></trkpt><trkpt lat="30.5682621" lon="34.74522018"><ele>602.2</ele><time>2013-11-23T09:22:14.0000000+00:00</time></trkpt><trkpt lat="30.56719017" lon="34.74633789"><ele>601.1</ele><time>2013-11-23T09:23:09.0000000+00:00</time></trkpt><trkpt lat="30.56683731" lon="34.74936295"><ele>599.3</ele><time>2013-11-23T09:25:04.0000000+00:00</time></trkpt><trkpt lat="30.56681633" lon="34.75085449"><ele>597.3</ele><time>2013-11-23T09:25:34.0000000+00:00</time></trkpt><trkpt lat="30.56707764" lon="34.75209427"><ele>595.3</ele><time>2013-11-23T09:27:44.0000000+00:00</time></trkpt><trkpt lat="30.56715584" lon="34.75394058"><ele>593.7</ele><time>2013-11-23T09:28:49.0000000+00:00</time></trkpt><trkpt lat="30.56678772" lon="34.75489044"><ele>592.4</ele><time>2013-11-23T09:29:14.0000000+00:00</time></trkpt><trkpt lat="30.56607628" lon="34.75516129"><ele>588.3</ele><time>2013-11-23T09:29:39.0000000+00:00</time></trkpt><trkpt lat="30.56583405" lon="34.75548935"><ele>586.9</ele><time>2013-11-23T09:29:49.0000000+00:00</time></trkpt><trkpt lat="30.56653404" lon="34.75809097"><ele>584.4</ele><time>2013-11-23T09:31:09.0000000+00:00</time></trkpt><trkpt lat="30.56631279" lon="34.75848007"><ele>584.8</ele><time>2013-11-23T09:31:24.0000000+00:00</time></trkpt><trkpt lat="30.56690025" lon="34.75935364"><ele>588.8</ele><time>2013-11-23T09:32:04.0000000+00:00</time></trkpt><trkpt lat="30.56709671" lon="34.76027298"><ele>588.3</ele><time>2013-11-23T09:32:34.0000000+00:00</time></trkpt><trkpt lat="30.56701469" lon="34.76240158"><ele>586.2</ele><time>2013-11-23T09:33:39.0000000+00:00</time></trkpt><trkpt lat="30.56646156" lon="34.76366043"><ele>587.3</ele><time>2013-11-23T09:35:09.0000000+00:00</time></trkpt><trkpt lat="30.56716347" lon="34.76461411"><ele>585.7</ele><time>2013-11-23T09:36:04.0000000+00:00</time></trkpt><trkpt lat="30.56744385" lon="34.7669487"><ele>584.4</ele><time>2013-11-23T09:37:09.0000000+00:00</time></trkpt><trkpt lat="30.56901169" lon="34.77098084"><ele>580.1</ele><time>2013-11-23T09:39:04.0000000+00:00</time></trkpt><trkpt lat="30.56897736" lon="34.77159882"><ele>583.0</ele><time>2013-11-23T09:39:19.0000000+00:00</time></trkpt><trkpt lat="30.56941223" lon="34.77273178"><ele>584.2</ele><time>2013-11-23T09:40:14.0000000+00:00</time></trkpt><trkpt lat="30.56980324" lon="34.77508926"><ele>583.7</ele><time>2013-11-23T09:41:14.0000000+00:00</time></trkpt><trkpt lat="30.56977654" lon="34.77776337"><ele>580.8</ele><time>2013-11-23T09:42:14.0000000+00:00</time></trkpt><trkpt lat="30.57023621" lon="34.7796135"><ele>578.8</ele><time>2013-11-23T09:43:04.0000000+00:00</time></trkpt><trkpt lat="30.57115555" lon="34.78121567"><ele>576.9</ele><time>2013-11-23T09:43:54.0000000+00:00</time></trkpt><trkpt lat="30.57109261" lon="34.78165054"><ele>578.0</ele><time>2013-11-23T09:44:19.0000000+00:00</time></trkpt><trkpt lat="30.57125664" lon="34.7823143"><ele>577.5</ele><time>2013-11-23T09:44:49.0000000+00:00</time></trkpt><trkpt lat="30.57223511" lon="34.78364182"><ele>574.9</ele><time>2013-11-23T09:45:34.0000000+00:00</time></trkpt><trkpt lat="30.57309532" lon="34.78588867"><ele>574.6</ele><time>2013-11-23T09:47:09.0000000+00:00</time></trkpt><trkpt lat="30.57356072" lon="34.78633499"><ele>574.9</ele><time>2013-11-23T09:47:24.0000000+00:00</time></trkpt><trkpt lat="30.57382393" lon="34.78704453"><ele>575.8</ele><time>2013-11-23T09:47:44.0000000+00:00</time></trkpt><trkpt lat="30.57422447" lon="34.78756714"><ele>570.8</ele><time>2013-11-23T09:47:59.0000000+00:00</time></trkpt><trkpt lat="30.57412529" lon="34.78821945"><ele>568.1</ele><time>2013-11-23T09:48:14.0000000+00:00</time></trkpt><trkpt lat="30.57423019" lon="34.78834152"><ele>567.9</ele><time>2013-11-23T09:48:19.0000000+00:00</time></trkpt><trkpt lat="30.57564735" lon="34.78880692"><ele>572.2</ele><time>2013-11-23T10:02:14.0000000+00:00</time></trkpt><trkpt lat="30.57817268" lon="34.78908157"><ele>568.7</ele><time>2013-11-23T10:04:29.0000000+00:00</time></trkpt><trkpt lat="30.57935333" lon="34.78964233"><ele>565.6</ele><time>2013-11-23T10:04:49.0000000+00:00</time></trkpt><trkpt lat="30.57977104" lon="34.7900238"><ele>566.8</ele><time>2013-11-23T10:04:59.0000000+00:00</time></trkpt><trkpt lat="30.58023453" lon="34.79118347"><ele>565.8</ele><time>2013-11-23T10:05:54.0000000+00:00</time></trkpt><trkpt lat="30.58040428" lon="34.79256058"><ele>557.0</ele><time>2013-11-23T10:06:24.0000000+00:00</time></trkpt><trkpt lat="30.57964897" lon="34.79638672"><ele>556.7</ele><time>2013-11-23T10:08:14.0000000+00:00</time></trkpt><trkpt lat="30.57975769" lon="34.79853058"><ele>559.3</ele><time>2013-11-23T10:09:19.0000000+00:00</time></trkpt><trkpt lat="30.57959557" lon="34.79965973"><ele>560.1</ele><time>2013-11-23T10:09:49.0000000+00:00</time></trkpt><trkpt lat="30.58163643" lon="34.80246735"><ele>553.4</ele><time>2013-11-23T10:11:24.0000000+00:00</time></trkpt><trkpt lat="30.58351326" lon="34.80373383"><ele>543.6</ele><time>2013-11-23T10:13:04.0000000+00:00</time></trkpt><trkpt lat="30.58428764" lon="34.80447006"><ele>545.2</ele><time>2013-11-23T10:13:34.0000000+00:00</time></trkpt><trkpt lat="30.58473587" lon="34.8051033"><ele>543.6</ele><time>2013-11-23T10:13:54.0000000+00:00</time></trkpt><trkpt lat="30.58497047" lon="34.80608368"><ele>535.0</ele><time>2013-11-23T10:14:29.0000000+00:00</time></trkpt><trkpt lat="30.58597946" lon="34.80641556"><ele>532.6</ele><time>2013-11-23T10:14:59.0000000+00:00</time></trkpt><trkpt lat="30.5861187" lon="34.8069191"><ele>536.4</ele><time>2013-11-23T10:15:19.0000000+00:00</time></trkpt><trkpt lat="30.58646202" lon="34.80731583"><ele>535.6</ele><time>2013-11-23T10:15:34.0000000+00:00</time></trkpt><trkpt lat="30.58642006" lon="34.80794907"><ele>541.6</ele><time>2013-11-23T10:16:54.0000000+00:00</time></trkpt><trkpt lat="30.5867691" lon="34.80839157"><ele>539.7</ele><time>2013-11-23T10:17:39.0000000+00:00</time></trkpt><trkpt lat="30.58745003" lon="34.81095123"><ele>531.5</ele><time>2013-11-23T10:18:39.0000000+00:00</time></trkpt><trkpt lat="30.58821297" lon="34.81276703"><ele>529.2</ele><time>2013-11-23T10:19:19.0000000+00:00</time></trkpt><trkpt lat="30.58843994" lon="34.81385803"><ele>527.4</ele><time>2013-11-23T10:19:44.0000000+00:00</time></trkpt><trkpt lat="30.58861923" lon="34.81632614"><ele>526.1</ele><time>2013-11-23T10:20:44.0000000+00:00</time></trkpt><trkpt lat="30.58856964" lon="34.81766129"><ele>525.1</ele><time>2013-11-23T10:21:04.0000000+00:00</time></trkpt><trkpt lat="30.58929634" lon="34.81948471"><ele>525.8</ele><time>2013-11-23T10:21:49.0000000+00:00</time></trkpt><trkpt lat="30.58986664" lon="34.82277679"><ele>521.8</ele><time>2013-11-23T10:22:59.0000000+00:00</time></trkpt><trkpt lat="30.58999634" lon="34.82484818"><ele>520.7</ele><time>2013-11-23T10:23:44.0000000+00:00</time></trkpt><trkpt lat="30.58958626" lon="34.82569885"><ele>523.2</ele><time>2013-11-23T10:24:14.0000000+00:00</time></trkpt><trkpt lat="30.58970833" lon="34.82675552"><ele>522.7</ele><time>2013-11-23T10:24:44.0000000+00:00</time></trkpt><trkpt lat="30.58996391" lon="34.82788086"><ele>521.7</ele><time>2013-11-23T10:25:09.0000000+00:00</time></trkpt><trkpt lat="30.59057999" lon="34.82865524"><ele>516.7</ele><time>2013-11-23T10:25:29.0000000+00:00</time></trkpt><trkpt lat="30.59060478" lon="34.82969284"><ele>517.7</ele><time>2013-11-23T10:25:54.0000000+00:00</time></trkpt><trkpt lat="30.59130287" lon="34.83046341"><ele>512.7</ele><time>2013-11-23T10:26:29.0000000+00:00</time></trkpt><trkpt lat="30.59147453" lon="34.83234024"><ele>511.0</ele><time>2013-11-23T10:28:14.0000000+00:00</time></trkpt><trkpt lat="30.59177208" lon="34.8335762"><ele>509.8</ele><time>2013-11-23T10:28:54.0000000+00:00</time></trkpt><trkpt lat="30.59136772" lon="34.83537293"><ele>517.0</ele><time>2013-11-23T10:31:09.0000000+00:00</time></trkpt><trkpt lat="30.59083748" lon="34.83620834"><ele>521.5</ele><time>2013-11-23T10:31:49.0000000+00:00</time></trkpt><trkpt lat="30.59019089" lon="34.8368187"><ele>524.5</ele><time>2013-11-23T10:32:24.0000000+00:00</time></trkpt><trkpt lat="30.58987618" lon="34.8374176"><ele>522.0</ele><time>2013-11-23T10:32:44.0000000+00:00</time></trkpt><trkpt lat="30.58926392" lon="34.83773422"><ele>523.4</ele><time>2013-11-23T10:32:59.0000000+00:00</time></trkpt><trkpt lat="30.58911324" lon="34.83804321"><ele>525.8</ele><time>2013-11-23T10:33:09.0000000+00:00</time></trkpt><trkpt lat="30.58856583" lon="34.83838272"><ele>530.8</ele><time>2013-11-23T10:33:39.0000000+00:00</time></trkpt><trkpt lat="30.587677" lon="34.840168"><ele>529.7</ele><time>2013-11-23T10:35:24.0000000+00:00</time></trkpt><trkpt lat="30.58732987" lon="34.8413887"><ele>529.0</ele><time>2013-11-23T10:35:54.0000000+00:00</time></trkpt><trkpt lat="30.58663559" lon="34.84205246"><ele>528.2</ele><time>2013-11-23T10:36:24.0000000+00:00</time></trkpt><trkpt lat="30.58642387" lon="34.84268189"><ele>526.8</ele><time>2013-11-23T10:36:44.0000000+00:00</time></trkpt><trkpt lat="30.58569527" lon="34.84316635"><ele>528.2</ele><time>2013-11-23T10:37:09.0000000+00:00</time></trkpt><trkpt lat="30.58457375" lon="34.84331513"><ele>532.2</ele><time>2013-11-23T10:37:49.0000000+00:00</time></trkpt><trkpt lat="30.58289719" lon="34.84395599"><ele>534.8</ele><time>2013-11-23T10:38:54.0000000+00:00</time></trkpt><trkpt lat="30.5807476" lon="34.84561539"><ele>539.2</ele><time>2013-11-23T10:41:24.0000000+00:00</time></trkpt><trkpt lat="30.57975006" lon="34.84584045"><ele>541.0</ele><time>2013-11-23T10:42:04.0000000+00:00</time></trkpt><trkpt lat="30.57773972" lon="34.84816361"><ele>548.1</ele><time>2013-11-23T10:44:19.0000000+00:00</time></trkpt><trkpt lat="30.57681465" lon="34.85048676"><ele>554.9</ele><time>2013-11-23T10:45:44.0000000+00:00</time></trkpt><trkpt lat="30.57668495" lon="34.85148239"><ele>556.9</ele><time>2013-11-23T10:46:24.0000000+00:00</time></trkpt><trkpt lat="30.5772152" lon="34.85193253"><ele>555.9</ele><time>2013-11-23T10:47:54.0000000+00:00</time></trkpt><trkpt lat="30.57710075" lon="34.85377884"><ele>561.1</ele><time>2013-11-23T10:49:09.0000000+00:00</time></trkpt><trkpt lat="30.57788849" lon="34.8551445"><ele>572.8</ele><time>2013-11-23T10:50:14.0000000+00:00</time></trkpt><trkpt lat="30.5786705" lon="34.85531616"><ele>577.1</ele><time>2013-11-23T10:51:24.0000000+00:00</time></trkpt><trkpt lat="30.5797081" lon="34.85517883"><ele>565.1</ele><time>2013-11-23T10:51:54.0000000+00:00</time></trkpt><trkpt lat="30.58018303" lon="34.85549927"><ele>562.2</ele><time>2013-11-23T10:52:14.0000000+00:00</time></trkpt><trkpt lat="30.58104134" lon="34.85561371"><ele>560.6</ele><time>2013-11-23T10:52:29.0000000+00:00</time></trkpt><trkpt lat="30.58189392" lon="34.85544205"><ele>556.5</ele><time>2013-11-23T10:52:44.0000000+00:00</time></trkpt><trkpt lat="30.58340836" lon="34.85621643"><ele>551.7</ele><time>2013-11-23T10:53:09.0000000+00:00</time></trkpt><trkpt lat="30.58507156" lon="34.85882568"><ele>544.3</ele><time>2013-11-23T10:53:49.0000000+00:00</time></trkpt><trkpt lat="30.58550835" lon="34.86005783"><ele>542.5</ele><time>2013-11-23T10:54:04.0000000+00:00</time></trkpt><trkpt lat="30.58639717" lon="34.8605957"><ele>539.9</ele><time>2013-11-23T10:54:19.0000000+00:00</time></trkpt><trkpt lat="30.58678436" lon="34.86131287"><ele>540.3</ele><time>2013-11-23T10:54:29.0000000+00:00</time></trkpt><trkpt lat="30.58751488" lon="34.86312103"><ele>542.8</ele><time>2013-11-23T10:55:09.0000000+00:00</time></trkpt><trkpt lat="30.58773232" lon="34.86421967"><ele>541.4</ele><time>2013-11-23T10:55:29.0000000+00:00</time></trkpt><trkpt lat="30.58770943" lon="34.86513138"><ele>542.5</ele><time>2013-11-23T10:55:49.0000000+00:00</time></trkpt><trkpt lat="30.58795166" lon="34.86550522"><ele>541.6</ele><time>2013-11-23T10:56:04.0000000+00:00</time></trkpt><trkpt lat="30.58892059" lon="34.86629105"><ele>528.6</ele><time>2013-11-23T10:56:29.0000000+00:00</time></trkpt><trkpt lat="30.58956528" lon="34.86710739"><ele>526.0</ele><time>2013-11-23T10:56:59.0000000+00:00</time></trkpt><trkpt lat="30.5898304" lon="34.86769486"><ele>523.6</ele><time>2013-11-23T10:57:09.0000000+00:00</time></trkpt><trkpt lat="30.59058952" lon="34.86856079"><ele>519.0</ele><time>2013-11-23T10:57:29.0000000+00:00</time></trkpt><trkpt lat="30.5913887" lon="34.8705864"><ele>515.5</ele><time>2013-11-23T10:57:59.0000000+00:00</time></trkpt><trkpt lat="30.59307671" lon="34.87193298"><ele>511.4</ele><time>2013-11-23T10:58:29.0000000+00:00</time></trkpt><trkpt lat="30.59329605" lon="34.87259293"><ele>508.1</ele><time>2013-11-23T10:58:44.0000000+00:00</time></trkpt><trkpt lat="30.59378815" lon="34.87218094"><ele>507.4</ele><time>2013-11-23T11:22:34.0000000+00:00</time></trkpt><trkpt lat="30.59474754" lon="34.87075806"><ele>511.0</ele><time>2013-11-23T11:23:39.0000000+00:00</time></trkpt><trkpt lat="30.59612274" lon="34.86949921"><ele>517.3</ele><time>2013-11-23T11:24:34.0000000+00:00</time></trkpt><trkpt lat="30.59766007" lon="34.86758804"><ele>514.0</ele><time>2013-11-23T11:25:44.0000000+00:00</time></trkpt><trkpt lat="30.59846115" lon="34.86737442"><ele>512.1</ele><time>2013-11-23T11:26:04.0000000+00:00</time></trkpt><trkpt lat="30.59857178" lon="34.86718369"><ele>511.1</ele><time>2013-11-23T11:26:09.0000000+00:00</time></trkpt><trkpt lat="30.59855843" lon="34.86615753"><ele>513.7</ele><time>2013-11-23T11:26:39.0000000+00:00</time></trkpt><trkpt lat="30.59904099" lon="34.86521912"><ele>517.1</ele><time>2013-11-23T11:27:24.0000000+00:00</time></trkpt><trkpt lat="30.59930992" lon="34.86528015"><ele>517.0</ele><time>2013-11-23T11:27:54.0000000+00:00</time></trkpt><trkpt lat="30.59962273" lon="34.86505127"><ele>516.7</ele><time>2013-11-23T11:28:04.0000000+00:00</time></trkpt><trkpt lat="30.59990501" lon="34.8646698"><ele>516.1</ele><time>2013-11-23T11:28:19.0000000+00:00</time></trkpt><trkpt lat="30.59996986" lon="34.86429215"><ele>513.5</ele><time>2013-11-23T11:28:29.0000000+00:00</time></trkpt><trkpt lat="30.60025597" lon="34.86401749"><ele>512.3</ele><time>2013-11-23T11:28:44.0000000+00:00</time></trkpt><trkpt lat="30.60099793" lon="34.86376572"><ele>501.1</ele><time>2013-11-23T11:28:59.0000000+00:00</time></trkpt><trkpt lat="30.60181427" lon="34.86317062"><ele>498.5</ele><time>2013-11-23T11:29:14.0000000+00:00</time></trkpt><trkpt lat="30.60256386" lon="34.86190414"><ele>500.5</ele><time>2013-11-23T11:30:19.0000000+00:00</time></trkpt><trkpt lat="30.60444641" lon="34.86011887"><ele>500.5</ele><time>2013-11-23T11:31:49.0000000+00:00</time></trkpt><trkpt lat="30.60449028" lon="34.85957336"><ele>499.3</ele><time>2013-11-23T11:32:04.0000000+00:00</time></trkpt><trkpt lat="30.60579872" lon="34.85896301"><ele>499.6</ele><time>2013-11-23T11:33:24.0000000+00:00</time></trkpt><trkpt lat="30.60678101" lon="34.85749054"><ele>490.7</ele><time>2013-11-23T11:33:54.0000000+00:00</time></trkpt><trkpt lat="30.60731316" lon="34.85709381"><ele>490.6</ele><time>2013-11-23T11:34:19.0000000+00:00</time></trkpt><trkpt lat="30.60950279" lon="34.85455704"><ele>485.2</ele><time>2013-11-23T11:35:54.0000000+00:00</time></trkpt><trkpt lat="30.61041451" lon="34.85402298"><ele>484.8</ele><time>2013-11-23T11:36:19.0000000+00:00</time></trkpt><trkpt lat="30.61081314" lon="34.85333633"><ele>486.1</ele><time>2013-11-23T11:36:39.0000000+00:00</time></trkpt><trkpt lat="30.61099625" lon="34.85327148"><ele>484.8</ele><time>2013-11-23T11:36:44.0000000+00:00</time></trkpt><trkpt lat="30.61120606" lon="34.85345459"><ele>483.2</ele><time>2013-11-23T11:36:54.0000000+00:00</time></trkpt><trkpt lat="30.61101723" lon="34.8545723"><ele>482.6</ele><time>2013-11-23T11:38:39.0000000+00:00</time></trkpt><trkpt lat="30.61102867" lon="34.85691834"><ele>487.8</ele><time>2013-11-23T11:40:19.0000000+00:00</time></trkpt><trkpt lat="30.61120796" lon="34.85717392"><ele>487.3</ele><time>2013-11-23T11:40:34.0000000+00:00</time></trkpt><trkpt lat="30.61219788" lon="34.85770416"><ele>482.0</ele><time>2013-11-23T11:41:39.0000000+00:00</time></trkpt><trkpt lat="30.61264038" lon="34.85775757"><ele>479.4</ele><time>2013-11-23T11:42:09.0000000+00:00</time></trkpt><trkpt lat="30.61273003" lon="34.85660934"><ele>483.1</ele><time>2013-11-23T11:42:54.0000000+00:00</time></trkpt><trkpt lat="30.61314201" lon="34.85573578"><ele>484.8</ele><time>2013-11-23T11:43:34.0000000+00:00</time></trkpt><trkpt lat="30.6137085" lon="34.85518265"><ele>491.6</ele><time>2013-11-23T11:49:49.0000000+00:00</time></trkpt><trkpt lat="30.61403847" lon="34.85454559"><ele>494.3</ele><time>2013-11-23T11:51:04.0000000+00:00</time></trkpt><trkpt lat="30.61513519" lon="34.8507576"><ele>501.3</ele><time>2013-11-23T11:53:04.0000000+00:00</time></trkpt><trkpt lat="30.61698532" lon="34.84830856"><ele>506.0</ele><time>2013-11-23T11:54:39.0000000+00:00</time></trkpt><trkpt lat="30.61693001" lon="34.84721756"><ele>504.4</ele><time>2013-11-23T11:55:29.0000000+00:00</time></trkpt><trkpt lat="30.6171093" lon="34.8467865"><ele>499.9</ele><time>2013-11-23T11:55:59.0000000+00:00</time></trkpt><trkpt lat="30.61720848" lon="34.84684372"><ele>499.5</ele><time>2013-11-23T11:56:04.0000000+00:00</time></trkpt><trkpt lat="30.6170044" lon="34.84674835"><ele>499.7</ele><time>2013-11-23T12:07:14.0000000+00:00</time></trkpt><trkpt lat="30.61684418" lon="34.84774399"><ele>506.1</ele><time>2013-11-23T12:08:14.0000000+00:00</time></trkpt><trkpt lat="30.61712837" lon="34.84805679"><ele>505.8</ele><time>2013-11-23T12:08:34.0000000+00:00</time></trkpt><trkpt lat="30.62055969" lon="34.84414291"><ele>514.3</ele><time>2013-11-23T12:11:29.0000000+00:00</time></trkpt><trkpt lat="30.62351608" lon="34.84145355"><ele>518.6</ele><time>2013-11-23T12:13:34.0000000+00:00</time></trkpt><trkpt lat="30.6240654" lon="34.84063721"><ele>518.3</ele><time>2013-11-23T12:14:19.0000000+00:00</time></trkpt><trkpt lat="30.62435722" lon="34.83871841"><ele>521.2</ele><time>2013-11-23T12:15:24.0000000+00:00</time></trkpt><trkpt lat="30.62513351" lon="34.82593918"><ele>574.5</ele><time>2013-11-23T12:23:49.0000000+00:00</time></trkpt><trkpt lat="30.62507057" lon="34.82477188"><ele>581.3</ele><time>2013-11-23T12:24:54.0000000+00:00</time></trkpt><trkpt lat="30.62464714" lon="34.82340622"><ele>589.3</ele><time>2013-11-23T12:26:09.0000000+00:00</time></trkpt><trkpt lat="30.62246704" lon="34.82009888"><ele>615.7</ele><time>2013-11-23T12:28:54.0000000+00:00</time></trkpt><trkpt lat="30.62166786" lon="34.81945419"><ele>620.6</ele><time>2013-11-23T12:29:39.0000000+00:00</time></trkpt><trkpt lat="30.62056541" lon="34.81903839"><ele>620.9</ele><time>2013-11-23T12:30:34.0000000+00:00</time></trkpt><trkpt lat="30.62038994" lon="34.8187561"><ele>630.7</ele><time>2013-11-23T12:30:49.0000000+00:00</time></trkpt><trkpt lat="30.62054253" lon="34.81842804"><ele>633.0</ele><time>2013-11-23T12:31:04.0000000+00:00</time></trkpt><trkpt lat="30.62078285" lon="34.81839371"><ele>636.2</ele><time>2013-11-23T12:31:14.0000000+00:00</time></trkpt><trkpt lat="30.62288857" lon="34.8189888"><ele>642.8</ele><time>2013-11-23T12:34:59.0000000+00:00</time></trkpt><trkpt lat="30.62319374" lon="34.81887436"><ele>652.1</ele><time>2013-11-23T12:35:24.0000000+00:00</time></trkpt><trkpt lat="30.62310028" lon="34.81844711"><ele>660.4</ele><time>2013-11-23T12:35:59.0000000+00:00</time></trkpt><trkpt lat="30.62137032" lon="34.81771088"><ele>662.9</ele><time>2013-11-23T12:37:59.0000000+00:00</time></trkpt><trkpt lat="30.62135887" lon="34.81745529"><ele>671.9</ele><time>2013-11-23T12:38:14.0000000+00:00</time></trkpt><trkpt lat="30.62339783" lon="34.81813812"><ele>679.2</ele><time>2013-11-23T12:45:09.0000000+00:00</time></trkpt><trkpt lat="30.62357903" lon="34.81806183"><ele>685.4</ele><time>2013-11-23T12:45:19.0000000+00:00</time></trkpt><trkpt lat="30.62358856" lon="34.81783295"><ele>696.8</ele><time>2013-11-23T12:45:29.0000000+00:00</time></trkpt><trkpt lat="30.62209702" lon="34.81702805"><ele>707.4</ele><time>2013-11-23T12:47:14.0000000+00:00</time></trkpt><trkpt lat="30.62110519" lon="34.8157196"><ele>713.0</ele><time>2013-11-23T12:48:39.0000000+00:00</time></trkpt><trkpt lat="30.61974144" lon="34.81480789"><ele>723.4</ele><time>2013-11-23T12:49:49.0000000+00:00</time></trkpt><trkpt lat="30.61827087" lon="34.81150055"><ele>743.8</ele><time>2013-11-23T12:54:24.0000000+00:00</time></trkpt><trkpt lat="30.6163559" lon="34.80925369"><ele>765.5</ele><time>2013-11-23T12:57:49.0000000+00:00</time></trkpt><trkpt lat="30.6164856" lon="34.80921173"><ele>771.6</ele><time>2013-11-23T12:59:44.0000000+00:00</time></trkpt><trkpt lat="30.61528015" lon="34.80922699"><ele>772.3</ele><time>2013-11-23T13:06:24.0000000+00:00</time></trkpt><trkpt lat="30.61259842" lon="34.80888367"><ele>792.1</ele><time>2013-11-23T13:10:09.0000000+00:00</time></trkpt><trkpt lat="30.60999107" lon="34.80812454"><ele>822.1</ele><time>2013-11-23T13:13:44.0000000+00:00</time></trkpt><trkpt lat="30.60974312" lon="34.80776978"><ele>828.3</ele><time>2013-11-23T13:14:14.0000000+00:00</time></trkpt><trkpt lat="30.60979271" lon="34.80710602"><ele>842.9</ele><time>2013-11-23T13:14:54.0000000+00:00</time></trkpt><trkpt lat="30.61102867" lon="34.80550003"><ele>840.2</ele><time>2013-11-23T13:16:59.0000000+00:00</time></trkpt><trkpt lat="30.61089325" lon="34.80498886"><ele>843.0</ele><time>2013-11-23T13:17:24.0000000+00:00</time></trkpt><trkpt lat="30.60929871" lon="34.80620956"><ele>855.2</ele><time>2013-11-23T13:19:29.0000000+00:00</time></trkpt><trkpt lat="30.6083374" lon="34.80589676"><ele>858.6</ele><time>2013-11-23T13:22:39.0000000+00:00</time></trkpt><trkpt lat="30.60830498" lon="34.80651093"><ele>855.5</ele><time>2013-11-23T13:27:39.0000000+00:00</time></trkpt><trkpt lat="30.60836601" lon="34.80617142"><ele>860.7</ele><time>2013-11-23T13:30:54.0000000+00:00</time></trkpt><trkpt lat="30.60832405" lon="34.80645371"><ele>857.5</ele><time>2013-11-23T13:49:04.0000000+00:00</time></trkpt><trkpt lat="30.60847664" lon="34.80638123"><ele>861.2</ele><time>2013-11-23T13:52:49.0000000+00:00</time></trkpt><trkpt lat="30.60848618" lon="34.8059082"><ele>858.4</ele><time>2013-11-23T13:53:09.0000000+00:00</time></trkpt><trkpt lat="30.6088829" lon="34.80579758"><ele>855.6</ele><time>2013-11-23T13:53:24.0000000+00:00</time></trkpt><trkpt lat="30.6093502" lon="34.80606461"><ele>854.1</ele><time>2013-11-23T13:53:39.0000000+00:00</time></trkpt><trkpt lat="30.60956192" lon="34.80602646"><ele>852.3</ele><time>2013-11-23T13:53:44.0000000+00:00</time></trkpt><trkpt lat="30.61088944" lon="34.80487824"><ele>843.3</ele><time>2013-11-23T13:54:09.0000000+00:00</time></trkpt><trkpt lat="30.6111908" lon="34.80495453"><ele>842.8</ele><time>2013-11-23T13:54:19.0000000+00:00</time></trkpt><trkpt lat="30.61257935" lon="34.8042984"><ele>838.4</ele><time>2013-11-23T13:54:54.0000000+00:00</time></trkpt><trkpt lat="30.6131134" lon="34.80441666"><ele>835.0</ele><time>2013-11-23T13:55:04.0000000+00:00</time></trkpt><trkpt lat="30.61328697" lon="34.80420685"><ele>834.2</ele><time>2013-11-23T13:55:09.0000000+00:00</time></trkpt><trkpt lat="30.61314011" lon="34.80375671"><ele>836.0</ele><time>2013-11-23T13:55:24.0000000+00:00</time></trkpt><trkpt lat="30.61358452" lon="34.8038559"><ele>833.1</ele><time>2013-11-23T13:55:39.0000000+00:00</time></trkpt><trkpt lat="30.61518097" lon="34.80356216"><ele>835.5</ele><time>2013-11-23T13:56:29.0000000+00:00</time></trkpt><trkpt lat="30.61638069" lon="34.80366135"><ele>841.4</ele><time>2013-11-23T13:57:39.0000000+00:00</time></trkpt><trkpt lat="30.61638641" lon="34.80221558"><ele>840.5</ele><time>2013-11-23T13:58:34.0000000+00:00</time></trkpt><trkpt lat="30.61662865" lon="34.80081558"><ele>836.6</ele><time>2013-11-23T13:58:59.0000000+00:00</time></trkpt><trkpt lat="30.61676598" lon="34.80063629"><ele>836.2</ele><time>2013-11-23T13:59:04.0000000+00:00</time></trkpt><trkpt lat="30.61768532" lon="34.8008194"><ele>836.1</ele><time>2013-11-23T13:59:24.0000000+00:00</time></trkpt><trkpt lat="30.6185112" lon="34.80057526"><ele>832.7</ele><time>2013-11-23T13:59:44.0000000+00:00</time></trkpt><trkpt lat="30.61863709" lon="34.80173874"><ele>836.8</ele><time>2013-11-23T14:07:39.0000000+00:00</time></trkpt></trkseg></trk></gpx>